<?xml version="1.0" encoding="UTF-8" standalone="no" ?>
<gpx xmlns="http://www.topografix.com/GPX/1/1" xmlns:xsi="http://www.w3.org/2001/XMLSchema-instance" xsi:schemaLocation="http://www.topografix.com/GPX/1/1 http://www.topografix.com/GPX/1/1/gpx.xsd" version="1.1" creator="VisuGPX - https://www.visugpx.com">
  <metadata>
    <name>circuit Port boinot, écluse marais pin, Port boiront</name>
    <desc><![CDATA[Facile ]]></desc>
  </metadata>
  <trk>
    <name><![CDATA[circuit Port boinot, écluse marais pin, Port boiront_1]]></name>
    <trkseg>
      <trkpt lat="46.3251" lon="-0.46963">
        <ele>12.2</ele>
        <time>2021-04-27T13:32:12Z</time>
      </trkpt>
      <trkpt lat="46.3253" lon="-0.46963">
        <ele>12.2</ele>
        <time>2021-04-27T13:32:17Z</time>
      </trkpt>
      <trkpt lat="46.32536" lon="-0.46968">
        <ele>12.6</ele>
        <time>2021-04-27T13:32:19Z</time>
      </trkpt>
      <trkpt lat="46.32537" lon="-0.46973">
        <ele>12.6</ele>
        <time>2021-04-27T13:32:20Z</time>
      </trkpt>
      <trkpt lat="46.32537" lon="-0.46977">
        <ele>12.8</ele>
        <time>2021-04-27T13:32:21Z</time>
      </trkpt>
      <trkpt lat="46.32536" lon="-0.46996">
        <ele>12.2</ele>
        <time>2021-04-27T13:32:24Z</time>
      </trkpt>
      <trkpt lat="46.32536" lon="-0.47004">
        <ele>12.2</ele>
        <time>2021-04-27T13:32:25Z</time>
      </trkpt>
      <trkpt lat="46.32534" lon="-0.47049">
        <ele>12.2</ele>
        <time>2021-04-27T13:32:30Z</time>
      </trkpt>
      <trkpt lat="46.32534" lon="-0.47068">
        <ele>12</ele>
        <time>2021-04-27T13:32:32Z</time>
      </trkpt>
      <trkpt lat="46.32536" lon="-0.47123">
        <ele>11.8</ele>
        <time>2021-04-27T13:32:38Z</time>
      </trkpt>
      <trkpt lat="46.32537" lon="-0.47131">
        <ele>11.6</ele>
        <time>2021-04-27T13:32:39Z</time>
      </trkpt>
      <trkpt lat="46.3254" lon="-0.47147">
        <ele>11.6</ele>
        <time>2021-04-27T13:32:41Z</time>
      </trkpt>
      <trkpt lat="46.32543" lon="-0.47165">
        <ele>11.4</ele>
        <time>2021-04-27T13:32:43Z</time>
      </trkpt>
      <trkpt lat="46.32546" lon="-0.47212">
        <ele>11.4</ele>
        <time>2021-04-27T13:32:48Z</time>
      </trkpt>
      <trkpt lat="46.32547" lon="-0.4723">
        <ele>11.4</ele>
        <time>2021-04-27T13:32:50Z</time>
      </trkpt>
      <trkpt lat="46.32551" lon="-0.47271">
        <ele>11.4</ele>
        <time>2021-04-27T13:32:55Z</time>
      </trkpt>
      <trkpt lat="46.32552" lon="-0.47282">
        <ele>11.4</ele>
        <time>2021-04-27T13:32:56Z</time>
      </trkpt>
      <trkpt lat="46.32557" lon="-0.47326">
        <ele>11.2</ele>
        <time>2021-04-27T13:33:01Z</time>
      </trkpt>
      <trkpt lat="46.32559" lon="-0.47337">
        <ele>11.2</ele>
        <time>2021-04-27T13:33:02Z</time>
      </trkpt>
      <trkpt lat="46.3257" lon="-0.47421">
        <ele>11</ele>
        <time>2021-04-27T13:33:11Z</time>
      </trkpt>
      <trkpt lat="46.32573" lon="-0.47438">
        <ele>10.8</ele>
        <time>2021-04-27T13:33:13Z</time>
      </trkpt>
      <trkpt lat="46.32577" lon="-0.47455">
        <ele>10.6</ele>
        <time>2021-04-27T13:33:15Z</time>
      </trkpt>
      <trkpt lat="46.32579" lon="-0.47463">
        <ele>10.4</ele>
        <time>2021-04-27T13:33:16Z</time>
      </trkpt>
      <trkpt lat="46.32583" lon="-0.4747">
        <ele>10.2</ele>
        <time>2021-04-27T13:33:17Z</time>
      </trkpt>
      <trkpt lat="46.32588" lon="-0.47477">
        <ele>10</ele>
        <time>2021-04-27T13:33:18Z</time>
      </trkpt>
      <trkpt lat="46.32594" lon="-0.47483">
        <ele>10</ele>
        <time>2021-04-27T13:33:19Z</time>
      </trkpt>
      <trkpt lat="46.326" lon="-0.47487">
        <ele>9.8</ele>
        <time>2021-04-27T13:33:20Z</time>
      </trkpt>
      <trkpt lat="46.32605" lon="-0.47489">
        <ele>9.8</ele>
        <time>2021-04-27T13:33:21Z</time>
      </trkpt>
      <trkpt lat="46.32611" lon="-0.47492">
        <ele>9.6</ele>
        <time>2021-04-27T13:33:22Z</time>
      </trkpt>
      <trkpt lat="46.32619" lon="-0.47495">
        <ele>9.4</ele>
        <time>2021-04-27T13:33:23Z</time>
      </trkpt>
      <trkpt lat="46.32655" lon="-0.47513">
        <ele>9.4</ele>
        <time>2021-04-27T13:33:29Z</time>
      </trkpt>
      <trkpt lat="46.32705" lon="-0.47542">
        <ele>9.2</ele>
        <time>2021-04-27T13:33:37Z</time>
      </trkpt>
      <trkpt lat="46.3274" lon="-0.47563">
        <ele>9.4</ele>
        <time>2021-04-27T13:33:43Z</time>
      </trkpt>
      <trkpt lat="46.32751" lon="-0.47575">
        <ele>9.4</ele>
        <time>2021-04-27T13:33:45Z</time>
      </trkpt>
      <trkpt lat="46.3276" lon="-0.47588">
        <ele>9.6</ele>
        <time>2021-04-27T13:33:47Z</time>
      </trkpt>
      <trkpt lat="46.32799" lon="-0.47638">
        <ele>9.8</ele>
        <time>2021-04-27T13:33:55Z</time>
      </trkpt>
      <trkpt lat="46.32822" lon="-0.47658">
        <ele>9.8</ele>
        <time>2021-04-27T13:33:59Z</time>
      </trkpt>
      <trkpt lat="46.32829" lon="-0.47662">
        <ele>10</ele>
        <time>2021-04-27T13:34:00Z</time>
      </trkpt>
      <trkpt lat="46.32886" lon="-0.47688">
        <ele>9.8</ele>
        <time>2021-04-27T13:34:09Z</time>
      </trkpt>
      <trkpt lat="46.32892" lon="-0.47692">
        <ele>9.8</ele>
        <time>2021-04-27T13:34:10Z</time>
      </trkpt>
      <trkpt lat="46.32936" lon="-0.47731">
        <ele>9.8</ele>
        <time>2021-04-27T13:34:18Z</time>
      </trkpt>
      <trkpt lat="46.32985" lon="-0.47779">
        <ele>9.6</ele>
        <time>2021-04-27T13:34:27Z</time>
      </trkpt>
      <trkpt lat="46.32996" lon="-0.4779">
        <ele>9.8</ele>
        <time>2021-04-27T13:34:29Z</time>
      </trkpt>
      <trkpt lat="46.33029" lon="-0.47819">
        <ele>9.4</ele>
        <time>2021-04-27T13:34:35Z</time>
      </trkpt>
      <trkpt lat="46.33054" lon="-0.47831">
        <ele>9.2</ele>
        <time>2021-04-27T13:34:39Z</time>
      </trkpt>
      <trkpt lat="46.3306" lon="-0.47833">
        <ele>9.2</ele>
        <time>2021-04-27T13:34:40Z</time>
      </trkpt>
      <trkpt lat="46.33118" lon="-0.47859">
        <ele>9</ele>
        <time>2021-04-27T13:34:49Z</time>
      </trkpt>
      <trkpt lat="46.33125" lon="-0.47861">
        <ele>9</ele>
        <time>2021-04-27T13:34:50Z</time>
      </trkpt>
      <trkpt lat="46.3315" lon="-0.47866">
        <ele>9.2</ele>
        <time>2021-04-27T13:34:54Z</time>
      </trkpt>
      <trkpt lat="46.33156" lon="-0.47866">
        <ele>9.2</ele>
        <time>2021-04-27T13:34:55Z</time>
      </trkpt>
      <trkpt lat="46.33175" lon="-0.47866">
        <ele>9.2</ele>
        <time>2021-04-27T13:34:58Z</time>
      </trkpt>
      <trkpt lat="46.33182" lon="-0.47866">
        <ele>9.2</ele>
        <time>2021-04-27T13:34:59Z</time>
      </trkpt>
      <trkpt lat="46.33188" lon="-0.47866">
        <ele>9.2</ele>
        <time>2021-04-27T13:35:00Z</time>
      </trkpt>
      <trkpt lat="46.33195" lon="-0.47865">
        <ele>9.2</ele>
        <time>2021-04-27T13:35:01Z</time>
      </trkpt>
      <trkpt lat="46.33208" lon="-0.47864">
        <ele>9.2</ele>
        <time>2021-04-27T13:35:03Z</time>
      </trkpt>
      <trkpt lat="46.33241" lon="-0.47865">
        <ele>9.2</ele>
        <time>2021-04-27T13:35:08Z</time>
      </trkpt>
      <trkpt lat="46.33247" lon="-0.47863">
        <ele>9.2</ele>
        <time>2021-04-27T13:35:09Z</time>
      </trkpt>
      <trkpt lat="46.33254" lon="-0.47862">
        <ele>9.4</ele>
        <time>2021-04-27T13:35:10Z</time>
      </trkpt>
      <trkpt lat="46.33281" lon="-0.47863">
        <ele>9</ele>
        <time>2021-04-27T13:35:14Z</time>
      </trkpt>
      <trkpt lat="46.33314" lon="-0.47869">
        <ele>9.2</ele>
        <time>2021-04-27T13:35:19Z</time>
      </trkpt>
      <trkpt lat="46.3332" lon="-0.4787">
        <ele>9.2</ele>
        <time>2021-04-27T13:35:20Z</time>
      </trkpt>
      <trkpt lat="46.33324" lon="-0.4787">
        <ele>9.2</ele>
        <time>2021-04-27T13:35:21Z</time>
      </trkpt>
      <trkpt lat="46.3333" lon="-0.47871">
        <ele>9.2</ele>
        <time>2021-04-27T13:35:22Z</time>
      </trkpt>
      <trkpt lat="46.33335" lon="-0.47871">
        <ele>9.2</ele>
        <time>2021-04-27T13:35:23Z</time>
      </trkpt>
      <trkpt lat="46.3334" lon="-0.4787">
        <ele>9.2</ele>
        <time>2021-04-27T13:35:24Z</time>
      </trkpt>
      <trkpt lat="46.33345" lon="-0.47871">
        <ele>9.2</ele>
        <time>2021-04-27T13:35:25Z</time>
      </trkpt>
      <trkpt lat="46.3335" lon="-0.47872">
        <ele>9.2</ele>
        <time>2021-04-27T13:35:26Z</time>
      </trkpt>
      <trkpt lat="46.33366" lon="-0.47874">
        <ele>9.4</ele>
        <time>2021-04-27T13:35:29Z</time>
      </trkpt>
      <trkpt lat="46.33371" lon="-0.47875">
        <ele>9.4</ele>
        <time>2021-04-27T13:35:30Z</time>
      </trkpt>
      <trkpt lat="46.33394" lon="-0.47879">
        <ele>9.4</ele>
        <time>2021-04-27T13:35:34Z</time>
      </trkpt>
      <trkpt lat="46.33407" lon="-0.4788">
        <ele>9.2</ele>
        <time>2021-04-27T13:35:36Z</time>
      </trkpt>
      <trkpt lat="46.33432" lon="-0.47883">
        <ele>9.4</ele>
        <time>2021-04-27T13:35:40Z</time>
      </trkpt>
      <trkpt lat="46.33439" lon="-0.47882">
        <ele>9.4</ele>
        <time>2021-04-27T13:35:41Z</time>
      </trkpt>
      <trkpt lat="46.33445" lon="-0.47882">
        <ele>9.4</ele>
        <time>2021-04-27T13:35:42Z</time>
      </trkpt>
      <trkpt lat="46.33451" lon="-0.47882">
        <ele>9.2</ele>
        <time>2021-04-27T13:35:43Z</time>
      </trkpt>
      <trkpt lat="46.33459" lon="-0.47883">
        <ele>9.2</ele>
        <time>2021-04-27T13:35:44Z</time>
      </trkpt>
      <trkpt lat="46.33464" lon="-0.47885">
        <ele>9.2</ele>
        <time>2021-04-27T13:35:45Z</time>
      </trkpt>
      <trkpt lat="46.33471" lon="-0.47888">
        <ele>9.2</ele>
        <time>2021-04-27T13:35:46Z</time>
      </trkpt>
      <trkpt lat="46.33515" lon="-0.47907">
        <ele>9</ele>
        <time>2021-04-27T13:35:53Z</time>
      </trkpt>
      <trkpt lat="46.33521" lon="-0.4791">
        <ele>8.8</ele>
        <time>2021-04-27T13:35:54Z</time>
      </trkpt>
      <trkpt lat="46.33559" lon="-0.47932">
        <ele>8.6</ele>
        <time>2021-04-27T13:36:00Z</time>
      </trkpt>
      <trkpt lat="46.33565" lon="-0.47937">
        <ele>8.8</ele>
        <time>2021-04-27T13:36:01Z</time>
      </trkpt>
      <trkpt lat="46.33597" lon="-0.47972">
        <ele>8.8</ele>
        <time>2021-04-27T13:36:07Z</time>
      </trkpt>
      <trkpt lat="46.336" lon="-0.47978">
        <ele>8.8</ele>
        <time>2021-04-27T13:36:08Z</time>
      </trkpt>
      <trkpt lat="46.33605" lon="-0.47985">
        <ele>9</ele>
        <time>2021-04-27T13:36:09Z</time>
      </trkpt>
      <trkpt lat="46.33615" lon="-0.4801">
        <ele>9.2</ele>
        <time>2021-04-27T13:36:12Z</time>
      </trkpt>
      <trkpt lat="46.33625" lon="-0.48035">
        <ele>9.8</ele>
        <time>2021-04-27T13:36:15Z</time>
      </trkpt>
      <trkpt lat="46.33633" lon="-0.48052">
        <ele>9.8</ele>
        <time>2021-04-27T13:36:17Z</time>
      </trkpt>
      <trkpt lat="46.33651" lon="-0.48113">
        <ele>10.2</ele>
        <time>2021-04-27T13:36:24Z</time>
      </trkpt>
      <trkpt lat="46.33656" lon="-0.48139">
        <ele>10.2</ele>
        <time>2021-04-27T13:36:27Z</time>
      </trkpt>
      <trkpt lat="46.33657" lon="-0.48157">
        <ele>10.2</ele>
        <time>2021-04-27T13:36:29Z</time>
      </trkpt>
      <trkpt lat="46.33658" lon="-0.48177">
        <ele>10.2</ele>
        <time>2021-04-27T13:36:31Z</time>
      </trkpt>
      <trkpt lat="46.33658" lon="-0.48185">
        <ele>10.2</ele>
        <time>2021-04-27T13:36:32Z</time>
      </trkpt>
      <trkpt lat="46.33659" lon="-0.48193">
        <ele>10.2</ele>
        <time>2021-04-27T13:36:33Z</time>
      </trkpt>
      <trkpt lat="46.33659" lon="-0.48202">
        <ele>10.2</ele>
        <time>2021-04-27T13:36:34Z</time>
      </trkpt>
      <trkpt lat="46.3366" lon="-0.48212">
        <ele>10.2</ele>
        <time>2021-04-27T13:36:35Z</time>
      </trkpt>
      <trkpt lat="46.33663" lon="-0.48231">
        <ele>10.2</ele>
        <time>2021-04-27T13:36:37Z</time>
      </trkpt>
      <trkpt lat="46.33664" lon="-0.48258">
        <ele>10.2</ele>
        <time>2021-04-27T13:36:40Z</time>
      </trkpt>
      <trkpt lat="46.33664" lon="-0.48268">
        <ele>10</ele>
        <time>2021-04-27T13:36:41Z</time>
      </trkpt>
      <trkpt lat="46.3366" lon="-0.48328">
        <ele>10</ele>
        <time>2021-04-27T13:36:47Z</time>
      </trkpt>
      <trkpt lat="46.33654" lon="-0.48405">
        <ele>9.8</ele>
        <time>2021-04-27T13:36:55Z</time>
      </trkpt>
      <trkpt lat="46.33652" lon="-0.48469">
        <ele>9.8</ele>
        <time>2021-04-27T13:37:02Z</time>
      </trkpt>
      <trkpt lat="46.33644" lon="-0.48547">
        <ele>9.8</ele>
        <time>2021-04-27T13:37:10Z</time>
      </trkpt>
      <trkpt lat="46.33635" lon="-0.4863">
        <ele>9.8</ele>
        <time>2021-04-27T13:37:19Z</time>
      </trkpt>
      <trkpt lat="46.33629" lon="-0.48706">
        <ele>9.6</ele>
        <time>2021-04-27T13:37:27Z</time>
      </trkpt>
      <trkpt lat="46.33627" lon="-0.48725">
        <ele>9.6</ele>
        <time>2021-04-27T13:37:29Z</time>
      </trkpt>
      <trkpt lat="46.33622" lon="-0.48751">
        <ele>9.6</ele>
        <time>2021-04-27T13:37:32Z</time>
      </trkpt>
      <trkpt lat="46.33614" lon="-0.48806">
        <ele>9.8</ele>
        <time>2021-04-27T13:37:38Z</time>
      </trkpt>
      <trkpt lat="46.33609" lon="-0.48835">
        <ele>9.8</ele>
        <time>2021-04-27T13:37:41Z</time>
      </trkpt>
      <trkpt lat="46.33606" lon="-0.48863">
        <ele>9.8</ele>
        <time>2021-04-27T13:37:44Z</time>
      </trkpt>
      <trkpt lat="46.33601" lon="-0.48882">
        <ele>9.6</ele>
        <time>2021-04-27T13:37:46Z</time>
      </trkpt>
      <trkpt lat="46.33588" lon="-0.48934">
        <ele>9.4</ele>
        <time>2021-04-27T13:37:52Z</time>
      </trkpt>
      <trkpt lat="46.33587" lon="-0.48941">
        <ele>9.4</ele>
        <time>2021-04-27T13:37:53Z</time>
      </trkpt>
      <trkpt lat="46.33578" lon="-0.48979">
        <ele>9.4</ele>
        <time>2021-04-27T13:37:57Z</time>
      </trkpt>
      <trkpt lat="46.33571" lon="-0.49015">
        <ele>9.4</ele>
        <time>2021-04-27T13:38:01Z</time>
      </trkpt>
      <trkpt lat="46.33559" lon="-0.4909">
        <ele>9</ele>
        <time>2021-04-27T13:38:09Z</time>
      </trkpt>
      <trkpt lat="46.33559" lon="-0.49099">
        <ele>8.8</ele>
        <time>2021-04-27T13:38:10Z</time>
      </trkpt>
      <trkpt lat="46.33558" lon="-0.49108">
        <ele>8.8</ele>
        <time>2021-04-27T13:38:11Z</time>
      </trkpt>
      <trkpt lat="46.33554" lon="-0.49127">
        <ele>8.6</ele>
        <time>2021-04-27T13:38:13Z</time>
      </trkpt>
      <trkpt lat="46.33552" lon="-0.49136">
        <ele>8.6</ele>
        <time>2021-04-27T13:38:14Z</time>
      </trkpt>
      <trkpt lat="46.33542" lon="-0.4917">
        <ele>8.8</ele>
        <time>2021-04-27T13:38:18Z</time>
      </trkpt>
      <trkpt lat="46.33539" lon="-0.49178">
        <ele>8.8</ele>
        <time>2021-04-27T13:38:19Z</time>
      </trkpt>
      <trkpt lat="46.33536" lon="-0.49186">
        <ele>8.8</ele>
        <time>2021-04-27T13:38:20Z</time>
      </trkpt>
      <trkpt lat="46.33526" lon="-0.49201">
        <ele>8.8</ele>
        <time>2021-04-27T13:38:22Z</time>
      </trkpt>
      <trkpt lat="46.33496" lon="-0.49238">
        <ele>8.8</ele>
        <time>2021-04-27T13:38:28Z</time>
      </trkpt>
      <trkpt lat="46.33492" lon="-0.49245">
        <ele>8.8</ele>
        <time>2021-04-27T13:38:29Z</time>
      </trkpt>
      <trkpt lat="46.33477" lon="-0.49274">
        <ele>9</ele>
        <time>2021-04-27T13:38:33Z</time>
      </trkpt>
      <trkpt lat="46.3345" lon="-0.49326">
        <ele>9.2</ele>
        <time>2021-04-27T13:38:40Z</time>
      </trkpt>
      <trkpt lat="46.33446" lon="-0.49333">
        <ele>9.2</ele>
        <time>2021-04-27T13:38:41Z</time>
      </trkpt>
      <trkpt lat="46.33442" lon="-0.4934">
        <ele>9.2</ele>
        <time>2021-04-27T13:38:42Z</time>
      </trkpt>
      <trkpt lat="46.33421" lon="-0.49364">
        <ele>9.2</ele>
        <time>2021-04-27T13:38:46Z</time>
      </trkpt>
      <trkpt lat="46.33397" lon="-0.49379">
        <ele>9.2</ele>
        <time>2021-04-27T13:38:50Z</time>
      </trkpt>
      <trkpt lat="46.33343" lon="-0.49401">
        <ele>9.6</ele>
        <time>2021-04-27T13:38:58Z</time>
      </trkpt>
      <trkpt lat="46.33291" lon="-0.49417">
        <ele>9.6</ele>
        <time>2021-04-27T13:39:06Z</time>
      </trkpt>
      <trkpt lat="46.33272" lon="-0.49423">
        <ele>9.4</ele>
        <time>2021-04-27T13:39:09Z</time>
      </trkpt>
      <trkpt lat="46.33259" lon="-0.49426">
        <ele>9.4</ele>
        <time>2021-04-27T13:39:11Z</time>
      </trkpt>
      <trkpt lat="46.33234" lon="-0.49431">
        <ele>9.4</ele>
        <time>2021-04-27T13:39:15Z</time>
      </trkpt>
      <trkpt lat="46.3322" lon="-0.49434">
        <ele>9.4</ele>
        <time>2021-04-27T13:39:17Z</time>
      </trkpt>
      <trkpt lat="46.33194" lon="-0.49437">
        <ele>9.6</ele>
        <time>2021-04-27T13:39:21Z</time>
      </trkpt>
      <trkpt lat="46.33169" lon="-0.49439">
        <ele>9.4</ele>
        <time>2021-04-27T13:39:25Z</time>
      </trkpt>
      <trkpt lat="46.33129" lon="-0.49438">
        <ele>9.4</ele>
        <time>2021-04-27T13:39:31Z</time>
      </trkpt>
      <trkpt lat="46.33077" lon="-0.49435">
        <ele>9.4</ele>
        <time>2021-04-27T13:39:39Z</time>
      </trkpt>
      <trkpt lat="46.33022" lon="-0.49429">
        <ele>9</ele>
        <time>2021-04-27T13:39:47Z</time>
      </trkpt>
      <trkpt lat="46.33017" lon="-0.49429">
        <ele>9</ele>
        <time>2021-04-27T13:39:48Z</time>
      </trkpt>
      <trkpt lat="46.33011" lon="-0.49429">
        <ele>9</ele>
        <time>2021-04-27T13:39:49Z</time>
      </trkpt>
      <trkpt lat="46.33006" lon="-0.49429">
        <ele>9</ele>
        <time>2021-04-27T13:39:50Z</time>
      </trkpt>
      <trkpt lat="46.33001" lon="-0.49428">
        <ele>9</ele>
        <time>2021-04-27T13:39:51Z</time>
      </trkpt>
      <trkpt lat="46.32994" lon="-0.49428">
        <ele>9</ele>
        <time>2021-04-27T13:39:52Z</time>
      </trkpt>
      <trkpt lat="46.32975" lon="-0.49426">
        <ele>9</ele>
        <time>2021-04-27T13:39:55Z</time>
      </trkpt>
      <trkpt lat="46.3293" lon="-0.4942">
        <ele>9.6</ele>
        <time>2021-04-27T13:40:02Z</time>
      </trkpt>
      <trkpt lat="46.32911" lon="-0.49417">
        <ele>9.6</ele>
        <time>2021-04-27T13:40:05Z</time>
      </trkpt>
      <trkpt lat="46.32904" lon="-0.49416">
        <ele>9.6</ele>
        <time>2021-04-27T13:40:06Z</time>
      </trkpt>
      <trkpt lat="46.3288" lon="-0.49411">
        <ele>9.6</ele>
        <time>2021-04-27T13:40:10Z</time>
      </trkpt>
      <trkpt lat="46.32822" lon="-0.494">
        <ele>9.4</ele>
        <time>2021-04-27T13:40:19Z</time>
      </trkpt>
      <trkpt lat="46.32776" lon="-0.49393">
        <ele>9.6</ele>
        <time>2021-04-27T13:40:26Z</time>
      </trkpt>
      <trkpt lat="46.32769" lon="-0.49392">
        <ele>9.6</ele>
        <time>2021-04-27T13:40:27Z</time>
      </trkpt>
      <trkpt lat="46.3271" lon="-0.49383">
        <ele>9.8</ele>
        <time>2021-04-27T13:40:36Z</time>
      </trkpt>
      <trkpt lat="46.32678" lon="-0.49374">
        <ele>9.8</ele>
        <time>2021-04-27T13:40:41Z</time>
      </trkpt>
      <trkpt lat="46.32671" lon="-0.49372">
        <ele>10</ele>
        <time>2021-04-27T13:40:42Z</time>
      </trkpt>
      <trkpt lat="46.32645" lon="-0.49368">
        <ele>9.8</ele>
        <time>2021-04-27T13:40:46Z</time>
      </trkpt>
      <trkpt lat="46.32639" lon="-0.49367">
        <ele>9.8</ele>
        <time>2021-04-27T13:40:47Z</time>
      </trkpt>
      <trkpt lat="46.32633" lon="-0.49366">
        <ele>9.8</ele>
        <time>2021-04-27T13:40:48Z</time>
      </trkpt>
      <trkpt lat="46.32602" lon="-0.49355">
        <ele>9.8</ele>
        <time>2021-04-27T13:40:53Z</time>
      </trkpt>
      <trkpt lat="46.32596" lon="-0.49353">
        <ele>9.6</ele>
        <time>2021-04-27T13:40:54Z</time>
      </trkpt>
      <trkpt lat="46.3259" lon="-0.49351">
        <ele>9.6</ele>
        <time>2021-04-27T13:40:55Z</time>
      </trkpt>
      <trkpt lat="46.32584" lon="-0.4935">
        <ele>9.6</ele>
        <time>2021-04-27T13:40:56Z</time>
      </trkpt>
      <trkpt lat="46.32572" lon="-0.49349">
        <ele>9.4</ele>
        <time>2021-04-27T13:40:58Z</time>
      </trkpt>
      <trkpt lat="46.32566" lon="-0.49348">
        <ele>9.4</ele>
        <time>2021-04-27T13:40:59Z</time>
      </trkpt>
      <trkpt lat="46.3256" lon="-0.49349">
        <ele>9.4</ele>
        <time>2021-04-27T13:41:00Z</time>
      </trkpt>
      <trkpt lat="46.32554" lon="-0.49349">
        <ele>9.4</ele>
        <time>2021-04-27T13:41:01Z</time>
      </trkpt>
      <trkpt lat="46.32549" lon="-0.49349">
        <ele>9.4</ele>
        <time>2021-04-27T13:41:02Z</time>
      </trkpt>
      <trkpt lat="46.32538" lon="-0.49351">
        <ele>9.6</ele>
        <time>2021-04-27T13:41:04Z</time>
      </trkpt>
      <trkpt lat="46.32532" lon="-0.49352">
        <ele>9.4</ele>
        <time>2021-04-27T13:41:05Z</time>
      </trkpt>
      <trkpt lat="46.32507" lon="-0.4936">
        <ele>9.6</ele>
        <time>2021-04-27T13:41:09Z</time>
      </trkpt>
      <trkpt lat="46.32473" lon="-0.49384">
        <ele>9.4</ele>
        <time>2021-04-27T13:41:15Z</time>
      </trkpt>
      <trkpt lat="46.32446" lon="-0.49408">
        <ele>9</ele>
        <time>2021-04-27T13:41:20Z</time>
      </trkpt>
      <trkpt lat="46.32428" lon="-0.49422">
        <ele>9</ele>
        <time>2021-04-27T13:41:23Z</time>
      </trkpt>
      <trkpt lat="46.324" lon="-0.49446">
        <ele>8.8</ele>
        <time>2021-04-27T13:41:28Z</time>
      </trkpt>
      <trkpt lat="46.32395" lon="-0.4945">
        <ele>8.8</ele>
        <time>2021-04-27T13:41:29Z</time>
      </trkpt>
      <trkpt lat="46.32389" lon="-0.49455">
        <ele>8.8</ele>
        <time>2021-04-27T13:41:30Z</time>
      </trkpt>
      <trkpt lat="46.32346" lon="-0.49497">
        <ele>8.8</ele>
        <time>2021-04-27T13:41:38Z</time>
      </trkpt>
      <trkpt lat="46.32336" lon="-0.49509">
        <ele>8.8</ele>
        <time>2021-04-27T13:41:40Z</time>
      </trkpt>
      <trkpt lat="46.32332" lon="-0.49514">
        <ele>8.8</ele>
        <time>2021-04-27T13:41:41Z</time>
      </trkpt>
      <trkpt lat="46.32328" lon="-0.4952">
        <ele>9</ele>
        <time>2021-04-27T13:41:42Z</time>
      </trkpt>
      <trkpt lat="46.32325" lon="-0.49526">
        <ele>9</ele>
        <time>2021-04-27T13:41:43Z</time>
      </trkpt>
      <trkpt lat="46.32321" lon="-0.49532">
        <ele>9</ele>
        <time>2021-04-27T13:41:44Z</time>
      </trkpt>
      <trkpt lat="46.32299" lon="-0.49563">
        <ele>9</ele>
        <time>2021-04-27T13:41:49Z</time>
      </trkpt>
      <trkpt lat="46.32267" lon="-0.49611">
        <ele>8.6</ele>
        <time>2021-04-27T13:41:56Z</time>
      </trkpt>
      <trkpt lat="46.32249" lon="-0.49639">
        <ele>8.6</ele>
        <time>2021-04-27T13:42:00Z</time>
      </trkpt>
      <trkpt lat="46.32236" lon="-0.4966">
        <ele>8.4</ele>
        <time>2021-04-27T13:42:03Z</time>
      </trkpt>
      <trkpt lat="46.32231" lon="-0.49666">
        <ele>8.4</ele>
        <time>2021-04-27T13:42:04Z</time>
      </trkpt>
      <trkpt lat="46.32226" lon="-0.49671">
        <ele>8.4</ele>
        <time>2021-04-27T13:42:05Z</time>
      </trkpt>
      <trkpt lat="46.32219" lon="-0.49676">
        <ele>8.4</ele>
        <time>2021-04-27T13:42:06Z</time>
      </trkpt>
      <trkpt lat="46.32208" lon="-0.49685">
        <ele>8.4</ele>
        <time>2021-04-27T13:42:08Z</time>
      </trkpt>
      <trkpt lat="46.32191" lon="-0.49699">
        <ele>8.4</ele>
        <time>2021-04-27T13:42:11Z</time>
      </trkpt>
      <trkpt lat="46.32173" lon="-0.49711">
        <ele>8.4</ele>
        <time>2021-04-27T13:42:14Z</time>
      </trkpt>
      <trkpt lat="46.32154" lon="-0.49719">
        <ele>8.4</ele>
        <time>2021-04-27T13:42:17Z</time>
      </trkpt>
      <trkpt lat="46.32112" lon="-0.49743">
        <ele>8.4</ele>
        <time>2021-04-27T13:42:24Z</time>
      </trkpt>
      <trkpt lat="46.32081" lon="-0.49779">
        <ele>8.4</ele>
        <time>2021-04-27T13:42:30Z</time>
      </trkpt>
      <trkpt lat="46.32033" lon="-0.49832">
        <ele>8.4</ele>
        <time>2021-04-27T13:42:39Z</time>
      </trkpt>
      <trkpt lat="46.32029" lon="-0.49838">
        <ele>8.4</ele>
        <time>2021-04-27T13:42:40Z</time>
      </trkpt>
      <trkpt lat="46.32002" lon="-0.49882">
        <ele>8.4</ele>
        <time>2021-04-27T13:42:46Z</time>
      </trkpt>
      <trkpt lat="46.31977" lon="-0.49937">
        <ele>8.4</ele>
        <time>2021-04-27T13:42:53Z</time>
      </trkpt>
      <trkpt lat="46.31975" lon="-0.49955">
        <ele>8.4</ele>
        <time>2021-04-27T13:42:55Z</time>
      </trkpt>
      <trkpt lat="46.31976" lon="-0.49974">
        <ele>8.4</ele>
        <time>2021-04-27T13:42:57Z</time>
      </trkpt>
      <trkpt lat="46.31981" lon="-0.50002">
        <ele>8.4</ele>
        <time>2021-04-27T13:43:00Z</time>
      </trkpt>
      <trkpt lat="46.31984" lon="-0.50011">
        <ele>8.4</ele>
        <time>2021-04-27T13:43:01Z</time>
      </trkpt>
      <trkpt lat="46.32009" lon="-0.50067">
        <ele>8.6</ele>
        <time>2021-04-27T13:43:08Z</time>
      </trkpt>
      <trkpt lat="46.32045" lon="-0.50136">
        <ele>8.2</ele>
        <time>2021-04-27T13:43:17Z</time>
      </trkpt>
      <trkpt lat="46.32051" lon="-0.50153">
        <ele>8</ele>
        <time>2021-04-27T13:43:19Z</time>
      </trkpt>
      <trkpt lat="46.32062" lon="-0.50187">
        <ele>7.8</ele>
        <time>2021-04-27T13:43:23Z</time>
      </trkpt>
      <trkpt lat="46.32076" lon="-0.50241">
        <ele>7.4</ele>
        <time>2021-04-27T13:43:29Z</time>
      </trkpt>
      <trkpt lat="46.3209" lon="-0.50301">
        <ele>7.4</ele>
        <time>2021-04-27T13:43:36Z</time>
      </trkpt>
      <trkpt lat="46.32091" lon="-0.50311">
        <ele>7.4</ele>
        <time>2021-04-27T13:43:37Z</time>
      </trkpt>
      <trkpt lat="46.3209" lon="-0.50322">
        <ele>7.4</ele>
        <time>2021-04-27T13:43:38Z</time>
      </trkpt>
      <trkpt lat="46.32087" lon="-0.50331">
        <ele>7.4</ele>
        <time>2021-04-27T13:43:39Z</time>
      </trkpt>
      <trkpt lat="46.32084" lon="-0.5034">
        <ele>7.4</ele>
        <time>2021-04-27T13:43:40Z</time>
      </trkpt>
      <trkpt lat="46.32081" lon="-0.50346">
        <ele>7.4</ele>
        <time>2021-04-27T13:43:41Z</time>
      </trkpt>
      <trkpt lat="46.32078" lon="-0.50354">
        <ele>7.4</ele>
        <time>2021-04-27T13:43:42Z</time>
      </trkpt>
      <trkpt lat="46.32061" lon="-0.50396">
        <ele>7.8</ele>
        <time>2021-04-27T13:43:47Z</time>
      </trkpt>
      <trkpt lat="46.32048" lon="-0.5044">
        <ele>8.4</ele>
        <time>2021-04-27T13:43:52Z</time>
      </trkpt>
      <trkpt lat="46.32042" lon="-0.50459">
        <ele>8.6</ele>
        <time>2021-04-27T13:43:54Z</time>
      </trkpt>
      <trkpt lat="46.3204" lon="-0.50467">
        <ele>8.6</ele>
        <time>2021-04-27T13:43:55Z</time>
      </trkpt>
      <trkpt lat="46.32034" lon="-0.50494">
        <ele>8.6</ele>
        <time>2021-04-27T13:43:58Z</time>
      </trkpt>
      <trkpt lat="46.32032" lon="-0.50513">
        <ele>8.4</ele>
        <time>2021-04-27T13:44:00Z</time>
      </trkpt>
      <trkpt lat="46.32032" lon="-0.50539">
        <ele>8.4</ele>
        <time>2021-04-27T13:44:03Z</time>
      </trkpt>
      <trkpt lat="46.32035" lon="-0.50598">
        <ele>8.2</ele>
        <time>2021-04-27T13:44:09Z</time>
      </trkpt>
      <trkpt lat="46.32044" lon="-0.50663">
        <ele>8.2</ele>
        <time>2021-04-27T13:44:16Z</time>
      </trkpt>
      <trkpt lat="46.32047" lon="-0.5069">
        <ele>8</ele>
        <time>2021-04-27T13:44:19Z</time>
      </trkpt>
      <trkpt lat="46.32047" lon="-0.50709">
        <ele>7.8</ele>
        <time>2021-04-27T13:44:21Z</time>
      </trkpt>
      <trkpt lat="46.32047" lon="-0.50728">
        <ele>7.6</ele>
        <time>2021-04-27T13:44:23Z</time>
      </trkpt>
      <trkpt lat="46.32049" lon="-0.50766">
        <ele>7.4</ele>
        <time>2021-04-27T13:44:27Z</time>
      </trkpt>
      <trkpt lat="46.3205" lon="-0.50775">
        <ele>7.4</ele>
        <time>2021-04-27T13:44:28Z</time>
      </trkpt>
      <trkpt lat="46.32064" lon="-0.50818">
        <ele>7.4</ele>
        <time>2021-04-27T13:44:33Z</time>
      </trkpt>
      <trkpt lat="46.32071" lon="-0.50834">
        <ele>7.6</ele>
        <time>2021-04-27T13:44:35Z</time>
      </trkpt>
      <trkpt lat="46.32084" lon="-0.50854">
        <ele>7.6</ele>
        <time>2021-04-27T13:44:38Z</time>
      </trkpt>
      <trkpt lat="46.32088" lon="-0.5086">
        <ele>8</ele>
        <time>2021-04-27T13:44:39Z</time>
      </trkpt>
      <trkpt lat="46.32091" lon="-0.50865">
        <ele>8</ele>
        <time>2021-04-27T13:44:40Z</time>
      </trkpt>
      <trkpt lat="46.32096" lon="-0.50871">
        <ele>8</ele>
        <time>2021-04-27T13:44:41Z</time>
      </trkpt>
      <trkpt lat="46.32099" lon="-0.50877">
        <ele>8</ele>
        <time>2021-04-27T13:44:42Z</time>
      </trkpt>
      <trkpt lat="46.32104" lon="-0.50881">
        <ele>8</ele>
        <time>2021-04-27T13:44:43Z</time>
      </trkpt>
      <trkpt lat="46.32108" lon="-0.50884">
        <ele>8</ele>
        <time>2021-04-27T13:44:44Z</time>
      </trkpt>
      <trkpt lat="46.32113" lon="-0.50884">
        <ele>8</ele>
        <time>2021-04-27T13:44:45Z</time>
      </trkpt>
      <trkpt lat="46.32117" lon="-0.50881">
        <ele>8.2</ele>
        <time>2021-04-27T13:44:46Z</time>
      </trkpt>
      <trkpt lat="46.32121" lon="-0.50876">
        <ele>8.4</ele>
        <time>2021-04-27T13:44:47Z</time>
      </trkpt>
      <trkpt lat="46.32125" lon="-0.50873">
        <ele>8.6</ele>
        <time>2021-04-27T13:44:48Z</time>
      </trkpt>
      <trkpt lat="46.32134" lon="-0.50873">
        <ele>8.6</ele>
        <time>2021-04-27T13:44:50Z</time>
      </trkpt>
      <trkpt lat="46.32138" lon="-0.50876">
        <ele>8.6</ele>
        <time>2021-04-27T13:44:51Z</time>
      </trkpt>
      <trkpt lat="46.32147" lon="-0.50885">
        <ele>8.8</ele>
        <time>2021-04-27T13:44:53Z</time>
      </trkpt>
      <trkpt lat="46.32153" lon="-0.50891">
        <ele>8.6</ele>
        <time>2021-04-27T13:44:54Z</time>
      </trkpt>
      <trkpt lat="46.32158" lon="-0.50896">
        <ele>8.6</ele>
        <time>2021-04-27T13:44:55Z</time>
      </trkpt>
      <trkpt lat="46.32202" lon="-0.5094">
        <ele>7.6</ele>
        <time>2021-04-27T13:45:03Z</time>
      </trkpt>
      <trkpt lat="46.32207" lon="-0.50946">
        <ele>7.6</ele>
        <time>2021-04-27T13:45:04Z</time>
      </trkpt>
      <trkpt lat="46.32237" lon="-0.50983">
        <ele>7.6</ele>
        <time>2021-04-27T13:45:10Z</time>
      </trkpt>
      <trkpt lat="46.32242" lon="-0.50988">
        <ele>7.6</ele>
        <time>2021-04-27T13:45:11Z</time>
      </trkpt>
      <trkpt lat="46.32248" lon="-0.50993">
        <ele>7.6</ele>
        <time>2021-04-27T13:45:12Z</time>
      </trkpt>
      <trkpt lat="46.32252" lon="-0.50998">
        <ele>7.6</ele>
        <time>2021-04-27T13:45:13Z</time>
      </trkpt>
      <trkpt lat="46.32257" lon="-0.51002">
        <ele>7.6</ele>
        <time>2021-04-27T13:45:14Z</time>
      </trkpt>
      <trkpt lat="46.32262" lon="-0.51005">
        <ele>7.6</ele>
        <time>2021-04-27T13:45:15Z</time>
      </trkpt>
      <trkpt lat="46.32266" lon="-0.51008">
        <ele>7.6</ele>
        <time>2021-04-27T13:45:16Z</time>
      </trkpt>
      <trkpt lat="46.3227" lon="-0.51011">
        <ele>7.8</ele>
        <time>2021-04-27T13:45:17Z</time>
      </trkpt>
      <trkpt lat="46.32274" lon="-0.51013">
        <ele>7.8</ele>
        <time>2021-04-27T13:45:18Z</time>
      </trkpt>
      <trkpt lat="46.32277" lon="-0.51015">
        <ele>7.8</ele>
        <time>2021-04-27T13:45:19Z</time>
      </trkpt>
      <trkpt lat="46.32288" lon="-0.51021">
        <ele>7.8</ele>
        <time>2021-04-27T13:45:21Z</time>
      </trkpt>
      <trkpt lat="46.32307" lon="-0.51029">
        <ele>8</ele>
        <time>2021-04-27T13:45:24Z</time>
      </trkpt>
      <trkpt lat="46.3232" lon="-0.5103">
        <ele>8</ele>
        <time>2021-04-27T13:45:26Z</time>
      </trkpt>
      <trkpt lat="46.32373" lon="-0.51035">
        <ele>7.8</ele>
        <time>2021-04-27T13:45:34Z</time>
      </trkpt>
      <trkpt lat="46.32398" lon="-0.51038">
        <ele>7.8</ele>
        <time>2021-04-27T13:45:38Z</time>
      </trkpt>
      <trkpt lat="46.32405" lon="-0.51039">
        <ele>7.8</ele>
        <time>2021-04-27T13:45:39Z</time>
      </trkpt>
      <trkpt lat="46.32424" lon="-0.5104">
        <ele>7.6</ele>
        <time>2021-04-27T13:45:42Z</time>
      </trkpt>
      <trkpt lat="46.3243" lon="-0.5104">
        <ele>7.6</ele>
        <time>2021-04-27T13:45:43Z</time>
      </trkpt>
      <trkpt lat="46.32437" lon="-0.5104">
        <ele>7.6</ele>
        <time>2021-04-27T13:45:44Z</time>
      </trkpt>
      <trkpt lat="46.32449" lon="-0.51036">
        <ele>7.6</ele>
        <time>2021-04-27T13:45:46Z</time>
      </trkpt>
      <trkpt lat="46.32454" lon="-0.51033">
        <ele>7.6</ele>
        <time>2021-04-27T13:45:47Z</time>
      </trkpt>
      <trkpt lat="46.32459" lon="-0.51029">
        <ele>7.6</ele>
        <time>2021-04-27T13:45:48Z</time>
      </trkpt>
      <trkpt lat="46.32465" lon="-0.51026">
        <ele>7.8</ele>
        <time>2021-04-27T13:45:49Z</time>
      </trkpt>
      <trkpt lat="46.3247" lon="-0.51023">
        <ele>7.8</ele>
        <time>2021-04-27T13:45:50Z</time>
      </trkpt>
      <trkpt lat="46.32493" lon="-0.51009">
        <ele>7.6</ele>
        <time>2021-04-27T13:45:54Z</time>
      </trkpt>
      <trkpt lat="46.32529" lon="-0.50985">
        <ele>7.6</ele>
        <time>2021-04-27T13:46:00Z</time>
      </trkpt>
      <trkpt lat="46.32535" lon="-0.50979">
        <ele>7.6</ele>
        <time>2021-04-27T13:46:01Z</time>
      </trkpt>
      <trkpt lat="46.3254" lon="-0.50974">
        <ele>7.6</ele>
        <time>2021-04-27T13:46:02Z</time>
      </trkpt>
      <trkpt lat="46.32556" lon="-0.50957">
        <ele>7.6</ele>
        <time>2021-04-27T13:46:05Z</time>
      </trkpt>
      <trkpt lat="46.32561" lon="-0.5095">
        <ele>7.6</ele>
        <time>2021-04-27T13:46:06Z</time>
      </trkpt>
      <trkpt lat="46.32569" lon="-0.50934">
        <ele>7.6</ele>
        <time>2021-04-27T13:46:08Z</time>
      </trkpt>
      <trkpt lat="46.32581" lon="-0.50901">
        <ele>7.8</ele>
        <time>2021-04-27T13:46:12Z</time>
      </trkpt>
      <trkpt lat="46.32599" lon="-0.50852">
        <ele>8</ele>
        <time>2021-04-27T13:46:18Z</time>
      </trkpt>
      <trkpt lat="46.32603" lon="-0.50846">
        <ele>8</ele>
        <time>2021-04-27T13:46:19Z</time>
      </trkpt>
      <trkpt lat="46.32607" lon="-0.50842">
        <ele>8.2</ele>
        <time>2021-04-27T13:46:20Z</time>
      </trkpt>
      <trkpt lat="46.32611" lon="-0.5084">
        <ele>8.2</ele>
        <time>2021-04-27T13:46:21Z</time>
      </trkpt>
      <trkpt lat="46.32616" lon="-0.50839">
        <ele>8.2</ele>
        <time>2021-04-27T13:46:22Z</time>
      </trkpt>
      <trkpt lat="46.3262" lon="-0.50837">
        <ele>8.2</ele>
        <time>2021-04-27T13:46:23Z</time>
      </trkpt>
      <trkpt lat="46.32624" lon="-0.50834">
        <ele>8.2</ele>
        <time>2021-04-27T13:46:24Z</time>
      </trkpt>
      <trkpt lat="46.32627" lon="-0.5083">
        <ele>8.2</ele>
        <time>2021-04-27T13:46:25Z</time>
      </trkpt>
      <trkpt lat="46.32631" lon="-0.50824">
        <ele>8.2</ele>
        <time>2021-04-27T13:46:26Z</time>
      </trkpt>
      <trkpt lat="46.32634" lon="-0.50818">
        <ele>8.2</ele>
        <time>2021-04-27T13:46:27Z</time>
      </trkpt>
      <trkpt lat="46.32638" lon="-0.50811">
        <ele>8.2</ele>
        <time>2021-04-27T13:46:28Z</time>
      </trkpt>
      <trkpt lat="46.32645" lon="-0.50798">
        <ele>8.4</ele>
        <time>2021-04-27T13:46:30Z</time>
      </trkpt>
      <trkpt lat="46.32653" lon="-0.50784">
        <ele>8.6</ele>
        <time>2021-04-27T13:46:32Z</time>
      </trkpt>
      <trkpt lat="46.32657" lon="-0.50778">
        <ele>8.6</ele>
        <time>2021-04-27T13:46:33Z</time>
      </trkpt>
      <trkpt lat="46.3266" lon="-0.50773">
        <ele>8.6</ele>
        <time>2021-04-27T13:46:34Z</time>
      </trkpt>
      <trkpt lat="46.32663" lon="-0.50769">
        <ele>8.6</ele>
        <time>2021-04-27T13:46:35Z</time>
      </trkpt>
      <trkpt lat="46.32667" lon="-0.50765">
        <ele>8.6</ele>
        <time>2021-04-27T13:46:36Z</time>
      </trkpt>
      <trkpt lat="46.32671" lon="-0.5076">
        <ele>8.8</ele>
        <time>2021-04-27T13:46:37Z</time>
      </trkpt>
      <trkpt lat="46.32688" lon="-0.50748">
        <ele>8.8</ele>
        <time>2021-04-27T13:46:40Z</time>
      </trkpt>
      <trkpt lat="46.32699" lon="-0.50745">
        <ele>8.8</ele>
        <time>2021-04-27T13:46:42Z</time>
      </trkpt>
      <trkpt lat="46.32712" lon="-0.50744">
        <ele>8.8</ele>
        <time>2021-04-27T13:46:44Z</time>
      </trkpt>
      <trkpt lat="46.32724" lon="-0.50745">
        <ele>8.8</ele>
        <time>2021-04-27T13:46:46Z</time>
      </trkpt>
      <trkpt lat="46.32736" lon="-0.50749">
        <ele>8.8</ele>
        <time>2021-04-27T13:46:48Z</time>
      </trkpt>
      <trkpt lat="46.32775" lon="-0.50763">
        <ele>8.6</ele>
        <time>2021-04-27T13:46:54Z</time>
      </trkpt>
      <trkpt lat="46.32782" lon="-0.50764">
        <ele>8.6</ele>
        <time>2021-04-27T13:46:55Z</time>
      </trkpt>
      <trkpt lat="46.32806" lon="-0.50769">
        <ele>8.6</ele>
        <time>2021-04-27T13:46:59Z</time>
      </trkpt>
      <trkpt lat="46.32812" lon="-0.50771">
        <ele>8.6</ele>
        <time>2021-04-27T13:47:00Z</time>
      </trkpt>
      <trkpt lat="46.32817" lon="-0.50772">
        <ele>8.6</ele>
        <time>2021-04-27T13:47:01Z</time>
      </trkpt>
      <trkpt lat="46.32822" lon="-0.50773">
        <ele>8.6</ele>
        <time>2021-04-27T13:47:02Z</time>
      </trkpt>
      <trkpt lat="46.32827" lon="-0.50774">
        <ele>8.6</ele>
        <time>2021-04-27T13:47:03Z</time>
      </trkpt>
      <trkpt lat="46.32833" lon="-0.50774">
        <ele>8.6</ele>
        <time>2021-04-27T13:47:04Z</time>
      </trkpt>
      <trkpt lat="46.32837" lon="-0.50775">
        <ele>8.6</ele>
        <time>2021-04-27T13:47:05Z</time>
      </trkpt>
      <trkpt lat="46.32842" lon="-0.50777">
        <ele>8.6</ele>
        <time>2021-04-27T13:47:06Z</time>
      </trkpt>
      <trkpt lat="46.32847" lon="-0.50779">
        <ele>8.6</ele>
        <time>2021-04-27T13:47:07Z</time>
      </trkpt>
      <trkpt lat="46.32852" lon="-0.5078">
        <ele>8.6</ele>
        <time>2021-04-27T13:47:08Z</time>
      </trkpt>
      <trkpt lat="46.32856" lon="-0.50781">
        <ele>8.6</ele>
        <time>2021-04-27T13:47:09Z</time>
      </trkpt>
      <trkpt lat="46.3286" lon="-0.5078">
        <ele>8.8</ele>
        <time>2021-04-27T13:47:10Z</time>
      </trkpt>
      <trkpt lat="46.32865" lon="-0.5078">
        <ele>8.8</ele>
        <time>2021-04-27T13:47:11Z</time>
      </trkpt>
      <trkpt lat="46.3287" lon="-0.50778">
        <ele>8.8</ele>
        <time>2021-04-27T13:47:12Z</time>
      </trkpt>
      <trkpt lat="46.32902" lon="-0.50771">
        <ele>8.8</ele>
        <time>2021-04-27T13:47:17Z</time>
      </trkpt>
      <trkpt lat="46.32916" lon="-0.50768">
        <ele>9</ele>
        <time>2021-04-27T13:47:19Z</time>
      </trkpt>
      <trkpt lat="46.32933" lon="-0.50764">
        <ele>8.8</ele>
        <time>2021-04-27T13:47:22Z</time>
      </trkpt>
      <trkpt lat="46.32939" lon="-0.50763">
        <ele>8.8</ele>
        <time>2021-04-27T13:47:23Z</time>
      </trkpt>
      <trkpt lat="46.32945" lon="-0.50762">
        <ele>8.6</ele>
        <time>2021-04-27T13:47:24Z</time>
      </trkpt>
      <trkpt lat="46.32956" lon="-0.5076">
        <ele>8.6</ele>
        <time>2021-04-27T13:47:26Z</time>
      </trkpt>
      <trkpt lat="46.32967" lon="-0.50759">
        <ele>8.4</ele>
        <time>2021-04-27T13:47:28Z</time>
      </trkpt>
      <trkpt lat="46.32973" lon="-0.50757">
        <ele>8.4</ele>
        <time>2021-04-27T13:47:29Z</time>
      </trkpt>
      <trkpt lat="46.32979" lon="-0.50756">
        <ele>8.4</ele>
        <time>2021-04-27T13:47:30Z</time>
      </trkpt>
      <trkpt lat="46.32985" lon="-0.50756">
        <ele>8.4</ele>
        <time>2021-04-27T13:47:31Z</time>
      </trkpt>
      <trkpt lat="46.3299" lon="-0.50755">
        <ele>8.4</ele>
        <time>2021-04-27T13:47:32Z</time>
      </trkpt>
      <trkpt lat="46.32996" lon="-0.50755">
        <ele>8.4</ele>
        <time>2021-04-27T13:47:33Z</time>
      </trkpt>
      <trkpt lat="46.33001" lon="-0.50755">
        <ele>8.4</ele>
        <time>2021-04-27T13:47:34Z</time>
      </trkpt>
      <trkpt lat="46.33007" lon="-0.50754">
        <ele>8.2</ele>
        <time>2021-04-27T13:47:35Z</time>
      </trkpt>
      <trkpt lat="46.33026" lon="-0.50751">
        <ele>8.2</ele>
        <time>2021-04-27T13:47:38Z</time>
      </trkpt>
      <trkpt lat="46.33032" lon="-0.50749">
        <ele>8.2</ele>
        <time>2021-04-27T13:47:39Z</time>
      </trkpt>
      <trkpt lat="46.33045" lon="-0.50747">
        <ele>8.2</ele>
        <time>2021-04-27T13:47:41Z</time>
      </trkpt>
      <trkpt lat="46.33081" lon="-0.50735">
        <ele>8.2</ele>
        <time>2021-04-27T13:47:46Z</time>
      </trkpt>
      <trkpt lat="46.33089" lon="-0.50732">
        <ele>8.2</ele>
        <time>2021-04-27T13:47:47Z</time>
      </trkpt>
      <trkpt lat="46.33096" lon="-0.50729">
        <ele>8.2</ele>
        <time>2021-04-27T13:47:48Z</time>
      </trkpt>
      <trkpt lat="46.33103" lon="-0.50727">
        <ele>8.2</ele>
        <time>2021-04-27T13:47:49Z</time>
      </trkpt>
      <trkpt lat="46.33109" lon="-0.50725">
        <ele>8.2</ele>
        <time>2021-04-27T13:47:50Z</time>
      </trkpt>
      <trkpt lat="46.33116" lon="-0.50723">
        <ele>8.2</ele>
        <time>2021-04-27T13:47:51Z</time>
      </trkpt>
      <trkpt lat="46.33121" lon="-0.50721">
        <ele>8.2</ele>
        <time>2021-04-27T13:47:52Z</time>
      </trkpt>
      <trkpt lat="46.33127" lon="-0.50719">
        <ele>8.2</ele>
        <time>2021-04-27T13:47:53Z</time>
      </trkpt>
      <trkpt lat="46.33134" lon="-0.50717">
        <ele>8.2</ele>
        <time>2021-04-27T13:47:54Z</time>
      </trkpt>
      <trkpt lat="46.33151" lon="-0.50714">
        <ele>8.2</ele>
        <time>2021-04-27T13:47:57Z</time>
      </trkpt>
      <trkpt lat="46.33194" lon="-0.50705">
        <ele>8.2</ele>
        <time>2021-04-27T13:48:03Z</time>
      </trkpt>
      <trkpt lat="46.332" lon="-0.50705">
        <ele>8.2</ele>
        <time>2021-04-27T13:48:04Z</time>
      </trkpt>
      <trkpt lat="46.33205" lon="-0.50705">
        <ele>8</ele>
        <time>2021-04-27T13:48:05Z</time>
      </trkpt>
      <trkpt lat="46.33209" lon="-0.50705">
        <ele>8</ele>
        <time>2021-04-27T13:48:06Z</time>
      </trkpt>
      <trkpt lat="46.33215" lon="-0.50705">
        <ele>8</ele>
        <time>2021-04-27T13:48:07Z</time>
      </trkpt>
      <trkpt lat="46.33221" lon="-0.50705">
        <ele>8</ele>
        <time>2021-04-27T13:48:08Z</time>
      </trkpt>
      <trkpt lat="46.33232" lon="-0.50705">
        <ele>8</ele>
        <time>2021-04-27T13:48:10Z</time>
      </trkpt>
      <trkpt lat="46.33239" lon="-0.50704">
        <ele>8.4</ele>
        <time>2021-04-27T13:48:11Z</time>
      </trkpt>
      <trkpt lat="46.33249" lon="-0.50707">
        <ele>8.4</ele>
        <time>2021-04-27T13:48:13Z</time>
      </trkpt>
      <trkpt lat="46.33252" lon="-0.50709">
        <ele>8.4</ele>
        <time>2021-04-27T13:48:14Z</time>
      </trkpt>
      <trkpt lat="46.33254" lon="-0.50711">
        <ele>8.4</ele>
        <time>2021-04-27T13:48:15Z</time>
      </trkpt>
      <trkpt lat="46.33254" lon="-0.50715">
        <ele>8.4</ele>
        <time>2021-04-27T13:48:16Z</time>
      </trkpt>
      <trkpt lat="46.33255" lon="-0.5072">
        <ele>8.6</ele>
        <time>2021-04-27T13:48:17Z</time>
      </trkpt>
      <trkpt lat="46.33255" lon="-0.50726">
        <ele>8.6</ele>
        <time>2021-04-27T13:48:18Z</time>
      </trkpt>
      <trkpt lat="46.33255" lon="-0.50738">
        <ele>9</ele>
        <time>2021-04-27T13:48:20Z</time>
      </trkpt>
      <trkpt lat="46.33255" lon="-0.50744">
        <ele>9</ele>
        <time>2021-04-27T13:48:21Z</time>
      </trkpt>
      <trkpt lat="46.33255" lon="-0.5075">
        <ele>9.2</ele>
        <time>2021-04-27T13:48:22Z</time>
      </trkpt>
      <trkpt lat="46.33254" lon="-0.50756">
        <ele>9.4</ele>
        <time>2021-04-27T13:48:23Z</time>
      </trkpt>
      <trkpt lat="46.33254" lon="-0.50761">
        <ele>9.6</ele>
        <time>2021-04-27T13:48:24Z</time>
      </trkpt>
      <trkpt lat="46.33254" lon="-0.50764">
        <ele>9.8</ele>
        <time>2021-04-27T13:48:25Z</time>
      </trkpt>
      <trkpt lat="46.33253" lon="-0.50768">
        <ele>9.8</ele>
        <time>2021-04-27T13:48:26Z</time>
      </trkpt>
      <trkpt lat="46.33252" lon="-0.50772">
        <ele>9.8</ele>
        <time>2021-04-27T13:48:27Z</time>
      </trkpt>
      <trkpt lat="46.33253" lon="-0.50775">
        <ele>9.8</ele>
        <time>2021-04-27T13:48:28Z</time>
      </trkpt>
      <trkpt lat="46.33254" lon="-0.50778">
        <ele>9.8</ele>
        <time>2021-04-27T13:48:29Z</time>
      </trkpt>
      <trkpt lat="46.33254" lon="-0.50786">
        <ele>9.8</ele>
        <time>2021-04-27T13:48:30Z</time>
      </trkpt>
      <trkpt lat="46.33254" lon="-0.50793">
        <ele>9.8</ele>
        <time>2021-04-27T13:48:31Z</time>
      </trkpt>
      <trkpt lat="46.33252" lon="-0.508">
        <ele>9.8</ele>
        <time>2021-04-27T13:48:32Z</time>
      </trkpt>
      <trkpt lat="46.33251" lon="-0.50807">
        <ele>9.8</ele>
        <time>2021-04-27T13:48:33Z</time>
      </trkpt>
      <trkpt lat="46.33249" lon="-0.50815">
        <ele>9.8</ele>
        <time>2021-04-27T13:48:34Z</time>
      </trkpt>
      <trkpt lat="46.3325" lon="-0.50828">
        <ele>9.6</ele>
        <time>2021-04-27T13:48:36Z</time>
      </trkpt>
      <trkpt lat="46.33253" lon="-0.50835">
        <ele>9.6</ele>
        <time>2021-04-27T13:48:37Z</time>
      </trkpt>
      <trkpt lat="46.33264" lon="-0.50847">
        <ele>9.2</ele>
        <time>2021-04-27T13:48:39Z</time>
      </trkpt>
      <trkpt lat="46.3327" lon="-0.50852">
        <ele>9</ele>
        <time>2021-04-27T13:48:40Z</time>
      </trkpt>
      <trkpt lat="46.33276" lon="-0.50857">
        <ele>8.8</ele>
        <time>2021-04-27T13:48:41Z</time>
      </trkpt>
      <trkpt lat="46.33282" lon="-0.50862">
        <ele>8.8</ele>
        <time>2021-04-27T13:48:42Z</time>
      </trkpt>
      <trkpt lat="46.33287" lon="-0.50865">
        <ele>8.6</ele>
        <time>2021-04-27T13:48:43Z</time>
      </trkpt>
      <trkpt lat="46.33293" lon="-0.5087">
        <ele>8.6</ele>
        <time>2021-04-27T13:48:44Z</time>
      </trkpt>
      <trkpt lat="46.33304" lon="-0.5088">
        <ele>8.4</ele>
        <time>2021-04-27T13:48:46Z</time>
      </trkpt>
      <trkpt lat="46.3331" lon="-0.50885">
        <ele>8</ele>
        <time>2021-04-27T13:48:47Z</time>
      </trkpt>
      <trkpt lat="46.33341" lon="-0.50917">
        <ele>7.4</ele>
        <time>2021-04-27T13:48:53Z</time>
      </trkpt>
      <trkpt lat="46.33344" lon="-0.50923">
        <ele>7.4</ele>
        <time>2021-04-27T13:48:54Z</time>
      </trkpt>
      <trkpt lat="46.33348" lon="-0.50929">
        <ele>7.4</ele>
        <time>2021-04-27T13:48:55Z</time>
      </trkpt>
      <trkpt lat="46.33351" lon="-0.50935">
        <ele>7.4</ele>
        <time>2021-04-27T13:48:56Z</time>
      </trkpt>
      <trkpt lat="46.33353" lon="-0.50938">
        <ele>7.4</ele>
        <time>2021-04-27T13:48:57Z</time>
      </trkpt>
      <trkpt lat="46.33355" lon="-0.50943">
        <ele>7.4</ele>
        <time>2021-04-27T13:48:58Z</time>
      </trkpt>
      <trkpt lat="46.33355" lon="-0.50946">
        <ele>7.6</ele>
        <time>2021-04-27T13:48:59Z</time>
      </trkpt>
      <trkpt lat="46.33357" lon="-0.5095">
        <ele>7.6</ele>
        <time>2021-04-27T13:49:00Z</time>
      </trkpt>
      <trkpt lat="46.33358" lon="-0.50953">
        <ele>7.6</ele>
        <time>2021-04-27T13:49:01Z</time>
      </trkpt>
      <trkpt lat="46.33359" lon="-0.50956">
        <ele>7.6</ele>
        <time>2021-04-27T13:49:02Z</time>
      </trkpt>
      <trkpt lat="46.3336" lon="-0.50959">
        <ele>7.8</ele>
        <time>2021-04-27T13:49:03Z</time>
      </trkpt>
      <trkpt lat="46.33361" lon="-0.50961">
        <ele>8</ele>
        <time>2021-04-27T13:49:04Z</time>
      </trkpt>
      <trkpt lat="46.33362" lon="-0.50963">
        <ele>8.2</ele>
        <time>2021-04-27T13:49:05Z</time>
      </trkpt>
      <trkpt lat="46.33363" lon="-0.50964">
        <ele>8.2</ele>
        <time>2021-04-27T13:49:06Z</time>
      </trkpt>
      <trkpt lat="46.33367" lon="-0.50974">
        <ele>8.8</ele>
        <time>2021-04-27T13:49:10Z</time>
      </trkpt>
      <trkpt lat="46.33368" lon="-0.50976">
        <ele>8.8</ele>
        <time>2021-04-27T13:49:11Z</time>
      </trkpt>
      <trkpt lat="46.33368" lon="-0.50978">
        <ele>8.8</ele>
        <time>2021-04-27T13:49:12Z</time>
      </trkpt>
      <trkpt lat="46.33369" lon="-0.50981">
        <ele>9</ele>
        <time>2021-04-27T13:49:13Z</time>
      </trkpt>
      <trkpt lat="46.33371" lon="-0.50988">
        <ele>9.2</ele>
        <time>2021-04-27T13:49:15Z</time>
      </trkpt>
      <trkpt lat="46.33373" lon="-0.50993">
        <ele>9.2</ele>
        <time>2021-04-27T13:49:16Z</time>
      </trkpt>
      <trkpt lat="46.33373" lon="-0.5102">
        <ele>9.2</ele>
        <time>2021-04-27T13:49:20Z</time>
      </trkpt>
      <trkpt lat="46.33371" lon="-0.5106">
        <ele>8.8</ele>
        <time>2021-04-27T13:49:24Z</time>
      </trkpt>
      <trkpt lat="46.33371" lon="-0.51069">
        <ele>8.6</ele>
        <time>2021-04-27T13:49:25Z</time>
      </trkpt>
      <trkpt lat="46.33371" lon="-0.51088">
        <ele>8.2</ele>
        <time>2021-04-27T13:49:27Z</time>
      </trkpt>
      <trkpt lat="46.33369" lon="-0.51118">
        <ele>7.4</ele>
        <time>2021-04-27T13:49:30Z</time>
      </trkpt>
      <trkpt lat="46.33369" lon="-0.51136">
        <ele>7.2</ele>
        <time>2021-04-27T13:49:32Z</time>
      </trkpt>
      <trkpt lat="46.33364" lon="-0.51155">
        <ele>7.2</ele>
        <time>2021-04-27T13:49:34Z</time>
      </trkpt>
      <trkpt lat="46.33361" lon="-0.51163">
        <ele>7</ele>
        <time>2021-04-27T13:49:35Z</time>
      </trkpt>
      <trkpt lat="46.33356" lon="-0.51171">
        <ele>7</ele>
        <time>2021-04-27T13:49:36Z</time>
      </trkpt>
      <trkpt lat="46.33352" lon="-0.51178">
        <ele>7</ele>
        <time>2021-04-27T13:49:37Z</time>
      </trkpt>
      <trkpt lat="46.3334" lon="-0.512">
        <ele>7.2</ele>
        <time>2021-04-27T13:49:40Z</time>
      </trkpt>
      <trkpt lat="46.33321" lon="-0.51249">
        <ele>7</ele>
        <time>2021-04-27T13:49:46Z</time>
      </trkpt>
      <trkpt lat="46.33315" lon="-0.51264">
        <ele>7</ele>
        <time>2021-04-27T13:49:48Z</time>
      </trkpt>
      <trkpt lat="46.33312" lon="-0.51271">
        <ele>7.2</ele>
        <time>2021-04-27T13:49:49Z</time>
      </trkpt>
      <trkpt lat="46.33299" lon="-0.51303">
        <ele>6.8</ele>
        <time>2021-04-27T13:49:53Z</time>
      </trkpt>
      <trkpt lat="46.33282" lon="-0.51333">
        <ele>6.6</ele>
        <time>2021-04-27T13:49:57Z</time>
      </trkpt>
      <trkpt lat="46.33278" lon="-0.51341">
        <ele>6.6</ele>
        <time>2021-04-27T13:49:58Z</time>
      </trkpt>
      <trkpt lat="46.33265" lon="-0.51373">
        <ele>6.6</ele>
        <time>2021-04-27T13:50:02Z</time>
      </trkpt>
      <trkpt lat="46.33262" lon="-0.51379">
        <ele>6.6</ele>
        <time>2021-04-27T13:50:03Z</time>
      </trkpt>
      <trkpt lat="46.33258" lon="-0.51386">
        <ele>6.6</ele>
        <time>2021-04-27T13:50:04Z</time>
      </trkpt>
      <trkpt lat="46.33236" lon="-0.51421">
        <ele>6.4</ele>
        <time>2021-04-27T13:50:09Z</time>
      </trkpt>
      <trkpt lat="46.33227" lon="-0.51437">
        <ele>6.4</ele>
        <time>2021-04-27T13:50:11Z</time>
      </trkpt>
      <trkpt lat="46.33216" lon="-0.5146">
        <ele>6.6</ele>
        <time>2021-04-27T13:50:14Z</time>
      </trkpt>
      <trkpt lat="46.33213" lon="-0.51466">
        <ele>6.6</ele>
        <time>2021-04-27T13:50:15Z</time>
      </trkpt>
      <trkpt lat="46.3321" lon="-0.51474">
        <ele>6.6</ele>
        <time>2021-04-27T13:50:16Z</time>
      </trkpt>
      <trkpt lat="46.33206" lon="-0.51481">
        <ele>6.8</ele>
        <time>2021-04-27T13:50:17Z</time>
      </trkpt>
      <trkpt lat="46.33195" lon="-0.51503">
        <ele>7.4</ele>
        <time>2021-04-27T13:50:20Z</time>
      </trkpt>
      <trkpt lat="46.33192" lon="-0.51511">
        <ele>7.4</ele>
        <time>2021-04-27T13:50:21Z</time>
      </trkpt>
      <trkpt lat="46.33189" lon="-0.51519">
        <ele>7.6</ele>
        <time>2021-04-27T13:50:22Z</time>
      </trkpt>
      <trkpt lat="46.33186" lon="-0.51526">
        <ele>7.8</ele>
        <time>2021-04-27T13:50:23Z</time>
      </trkpt>
      <trkpt lat="46.33183" lon="-0.51534">
        <ele>7.8</ele>
        <time>2021-04-27T13:50:24Z</time>
      </trkpt>
      <trkpt lat="46.33158" lon="-0.51587">
        <ele>7.8</ele>
        <time>2021-04-27T13:50:31Z</time>
      </trkpt>
      <trkpt lat="46.33154" lon="-0.51595">
        <ele>7.8</ele>
        <time>2021-04-27T13:50:32Z</time>
      </trkpt>
      <trkpt lat="46.33151" lon="-0.51602">
        <ele>7.8</ele>
        <time>2021-04-27T13:50:33Z</time>
      </trkpt>
      <trkpt lat="46.33142" lon="-0.51624">
        <ele>8</ele>
        <time>2021-04-27T13:50:36Z</time>
      </trkpt>
      <trkpt lat="46.33139" lon="-0.51631">
        <ele>8</ele>
        <time>2021-04-27T13:50:37Z</time>
      </trkpt>
      <trkpt lat="46.33136" lon="-0.51638">
        <ele>8</ele>
        <time>2021-04-27T13:50:38Z</time>
      </trkpt>
      <trkpt lat="46.33121" lon="-0.51667">
        <ele>8</ele>
        <time>2021-04-27T13:50:42Z</time>
      </trkpt>
      <trkpt lat="46.33118" lon="-0.51675">
        <ele>8</ele>
        <time>2021-04-27T13:50:43Z</time>
      </trkpt>
      <trkpt lat="46.33115" lon="-0.51682">
        <ele>8</ele>
        <time>2021-04-27T13:50:44Z</time>
      </trkpt>
      <trkpt lat="46.33112" lon="-0.51688">
        <ele>8</ele>
        <time>2021-04-27T13:50:45Z</time>
      </trkpt>
      <trkpt lat="46.33108" lon="-0.51694">
        <ele>8</ele>
        <time>2021-04-27T13:50:46Z</time>
      </trkpt>
      <trkpt lat="46.33105" lon="-0.51701">
        <ele>8</ele>
        <time>2021-04-27T13:50:47Z</time>
      </trkpt>
      <trkpt lat="46.33102" lon="-0.51708">
        <ele>8</ele>
        <time>2021-04-27T13:50:48Z</time>
      </trkpt>
      <trkpt lat="46.33096" lon="-0.51726">
        <ele>8</ele>
        <time>2021-04-27T13:50:50Z</time>
      </trkpt>
      <trkpt lat="46.33074" lon="-0.51786">
        <ele>7.6</ele>
        <time>2021-04-27T13:50:57Z</time>
      </trkpt>
      <trkpt lat="46.33071" lon="-0.51793">
        <ele>7.8</ele>
        <time>2021-04-27T13:50:58Z</time>
      </trkpt>
      <trkpt lat="46.33068" lon="-0.518">
        <ele>7.6</ele>
        <time>2021-04-27T13:50:59Z</time>
      </trkpt>
      <trkpt lat="46.33065" lon="-0.51806">
        <ele>7.6</ele>
        <time>2021-04-27T13:51:00Z</time>
      </trkpt>
      <trkpt lat="46.33063" lon="-0.51812">
        <ele>7.4</ele>
        <time>2021-04-27T13:51:01Z</time>
      </trkpt>
      <trkpt lat="46.3306" lon="-0.51821">
        <ele>7.4</ele>
        <time>2021-04-27T13:51:02Z</time>
      </trkpt>
      <trkpt lat="46.33055" lon="-0.51835">
        <ele>7.4</ele>
        <time>2021-04-27T13:51:04Z</time>
      </trkpt>
      <trkpt lat="46.33053" lon="-0.51842">
        <ele>7.4</ele>
        <time>2021-04-27T13:51:05Z</time>
      </trkpt>
      <trkpt lat="46.3305" lon="-0.51848">
        <ele>7.4</ele>
        <time>2021-04-27T13:51:06Z</time>
      </trkpt>
      <trkpt lat="46.33046" lon="-0.51855">
        <ele>7.4</ele>
        <time>2021-04-27T13:51:07Z</time>
      </trkpt>
      <trkpt lat="46.33042" lon="-0.51862">
        <ele>7.4</ele>
        <time>2021-04-27T13:51:08Z</time>
      </trkpt>
      <trkpt lat="46.33034" lon="-0.51872">
        <ele>7.4</ele>
        <time>2021-04-27T13:51:10Z</time>
      </trkpt>
      <trkpt lat="46.33028" lon="-0.51877">
        <ele>7.4</ele>
        <time>2021-04-27T13:51:11Z</time>
      </trkpt>
      <trkpt lat="46.32997" lon="-0.51901">
        <ele>7.4</ele>
        <time>2021-04-27T13:51:16Z</time>
      </trkpt>
      <trkpt lat="46.32991" lon="-0.51905">
        <ele>7.4</ele>
        <time>2021-04-27T13:51:17Z</time>
      </trkpt>
      <trkpt lat="46.32961" lon="-0.51927">
        <ele>7.4</ele>
        <time>2021-04-27T13:51:22Z</time>
      </trkpt>
      <trkpt lat="46.32955" lon="-0.51931">
        <ele>7.4</ele>
        <time>2021-04-27T13:51:23Z</time>
      </trkpt>
      <trkpt lat="46.32949" lon="-0.51935">
        <ele>7.4</ele>
        <time>2021-04-27T13:51:24Z</time>
      </trkpt>
      <trkpt lat="46.32944" lon="-0.51939">
        <ele>7.4</ele>
        <time>2021-04-27T13:51:25Z</time>
      </trkpt>
      <trkpt lat="46.32939" lon="-0.51943">
        <ele>7.4</ele>
        <time>2021-04-27T13:51:26Z</time>
      </trkpt>
      <trkpt lat="46.32935" lon="-0.51946">
        <ele>7.4</ele>
        <time>2021-04-27T13:51:27Z</time>
      </trkpt>
      <trkpt lat="46.32931" lon="-0.5195">
        <ele>7.4</ele>
        <time>2021-04-27T13:51:28Z</time>
      </trkpt>
      <trkpt lat="46.32927" lon="-0.51954">
        <ele>7.4</ele>
        <time>2021-04-27T13:51:29Z</time>
      </trkpt>
      <trkpt lat="46.32923" lon="-0.51958">
        <ele>7.4</ele>
        <time>2021-04-27T13:51:30Z</time>
      </trkpt>
      <trkpt lat="46.32918" lon="-0.51962">
        <ele>7.4</ele>
        <time>2021-04-27T13:51:31Z</time>
      </trkpt>
      <trkpt lat="46.32908" lon="-0.5197">
        <ele>7.4</ele>
        <time>2021-04-27T13:51:33Z</time>
      </trkpt>
      <trkpt lat="46.32898" lon="-0.51977">
        <ele>7.4</ele>
        <time>2021-04-27T13:51:35Z</time>
      </trkpt>
      <trkpt lat="46.32893" lon="-0.51981">
        <ele>7.4</ele>
        <time>2021-04-27T13:51:36Z</time>
      </trkpt>
      <trkpt lat="46.32889" lon="-0.51984">
        <ele>7.4</ele>
        <time>2021-04-27T13:51:37Z</time>
      </trkpt>
      <trkpt lat="46.32885" lon="-0.51987">
        <ele>7.4</ele>
        <time>2021-04-27T13:51:38Z</time>
      </trkpt>
      <trkpt lat="46.32881" lon="-0.5199">
        <ele>7.4</ele>
        <time>2021-04-27T13:51:39Z</time>
      </trkpt>
      <trkpt lat="46.32873" lon="-0.51996">
        <ele>7.6</ele>
        <time>2021-04-27T13:51:41Z</time>
      </trkpt>
      <trkpt lat="46.32869" lon="-0.51998">
        <ele>7.6</ele>
        <time>2021-04-27T13:51:42Z</time>
      </trkpt>
      <trkpt lat="46.32865" lon="-0.51999">
        <ele>7.6</ele>
        <time>2021-04-27T13:51:43Z</time>
      </trkpt>
      <trkpt lat="46.32861" lon="-0.52">
        <ele>7.6</ele>
        <time>2021-04-27T13:51:44Z</time>
      </trkpt>
      <trkpt lat="46.32857" lon="-0.52001">
        <ele>7.4</ele>
        <time>2021-04-27T13:51:45Z</time>
      </trkpt>
      <trkpt lat="46.32854" lon="-0.52001">
        <ele>7.4</ele>
        <time>2021-04-27T13:51:46Z</time>
      </trkpt>
      <trkpt lat="46.32851" lon="-0.52003">
        <ele>7.4</ele>
        <time>2021-04-27T13:51:47Z</time>
      </trkpt>
      <trkpt lat="46.3285" lon="-0.52006">
        <ele>7.4</ele>
        <time>2021-04-27T13:51:48Z</time>
      </trkpt>
      <trkpt lat="46.32848" lon="-0.52009">
        <ele>7.4</ele>
        <time>2021-04-27T13:51:49Z</time>
      </trkpt>
      <trkpt lat="46.32845" lon="-0.52014">
        <ele>7.4</ele>
        <time>2021-04-27T13:51:50Z</time>
      </trkpt>
      <trkpt lat="46.32842" lon="-0.52019">
        <ele>7.4</ele>
        <time>2021-04-27T13:51:51Z</time>
      </trkpt>
      <trkpt lat="46.32838" lon="-0.52023">
        <ele>7.4</ele>
        <time>2021-04-27T13:51:52Z</time>
      </trkpt>
      <trkpt lat="46.32814" lon="-0.52041">
        <ele>7.4</ele>
        <time>2021-04-27T13:51:57Z</time>
      </trkpt>
      <trkpt lat="46.3281" lon="-0.52044">
        <ele>7.4</ele>
        <time>2021-04-27T13:51:58Z</time>
      </trkpt>
      <trkpt lat="46.32806" lon="-0.52048">
        <ele>7.4</ele>
        <time>2021-04-27T13:51:59Z</time>
      </trkpt>
      <trkpt lat="46.3279" lon="-0.52063">
        <ele>7.2</ele>
        <time>2021-04-27T13:52:02Z</time>
      </trkpt>
      <trkpt lat="46.3278" lon="-0.52071">
        <ele>7</ele>
        <time>2021-04-27T13:52:04Z</time>
      </trkpt>
      <trkpt lat="46.32775" lon="-0.52075">
        <ele>7</ele>
        <time>2021-04-27T13:52:05Z</time>
      </trkpt>
      <trkpt lat="46.32769" lon="-0.52078">
        <ele>7</ele>
        <time>2021-04-27T13:52:06Z</time>
      </trkpt>
      <trkpt lat="46.32759" lon="-0.52087">
        <ele>6.8</ele>
        <time>2021-04-27T13:52:08Z</time>
      </trkpt>
      <trkpt lat="46.32732" lon="-0.52113">
        <ele>6.8</ele>
        <time>2021-04-27T13:52:13Z</time>
      </trkpt>
      <trkpt lat="46.32727" lon="-0.52118">
        <ele>7</ele>
        <time>2021-04-27T13:52:14Z</time>
      </trkpt>
      <trkpt lat="46.32722" lon="-0.52122">
        <ele>7</ele>
        <time>2021-04-27T13:52:15Z</time>
      </trkpt>
      <trkpt lat="46.32706" lon="-0.52134">
        <ele>7</ele>
        <time>2021-04-27T13:52:18Z</time>
      </trkpt>
      <trkpt lat="46.32701" lon="-0.52138">
        <ele>7.2</ele>
        <time>2021-04-27T13:52:19Z</time>
      </trkpt>
      <trkpt lat="46.32695" lon="-0.52142">
        <ele>7.2</ele>
        <time>2021-04-27T13:52:20Z</time>
      </trkpt>
      <trkpt lat="46.32678" lon="-0.52155">
        <ele>7.2</ele>
        <time>2021-04-27T13:52:23Z</time>
      </trkpt>
      <trkpt lat="46.3267" lon="-0.52164">
        <ele>7.4</ele>
        <time>2021-04-27T13:52:25Z</time>
      </trkpt>
      <trkpt lat="46.32666" lon="-0.5217">
        <ele>7.4</ele>
        <time>2021-04-27T13:52:26Z</time>
      </trkpt>
      <trkpt lat="46.32662" lon="-0.52173">
        <ele>7.4</ele>
        <time>2021-04-27T13:52:27Z</time>
      </trkpt>
      <trkpt lat="46.32659" lon="-0.52175">
        <ele>7.4</ele>
        <time>2021-04-27T13:52:28Z</time>
      </trkpt>
      <trkpt lat="46.32657" lon="-0.52177">
        <ele>7.4</ele>
        <time>2021-04-27T13:52:29Z</time>
      </trkpt>
      <trkpt lat="46.32655" lon="-0.5218">
        <ele>7.4</ele>
        <time>2021-04-27T13:52:30Z</time>
      </trkpt>
      <trkpt lat="46.32653" lon="-0.52183">
        <ele>7.6</ele>
        <time>2021-04-27T13:52:31Z</time>
      </trkpt>
      <trkpt lat="46.32652" lon="-0.52186">
        <ele>7.6</ele>
        <time>2021-04-27T13:52:32Z</time>
      </trkpt>
      <trkpt lat="46.32652" lon="-0.52189">
        <ele>7.6</ele>
        <time>2021-04-27T13:52:33Z</time>
      </trkpt>
      <trkpt lat="46.32652" lon="-0.52192">
        <ele>7.8</ele>
        <time>2021-04-27T13:52:34Z</time>
      </trkpt>
      <trkpt lat="46.32649" lon="-0.52197">
        <ele>7.8</ele>
        <time>2021-04-27T13:52:35Z</time>
      </trkpt>
      <trkpt lat="46.32644" lon="-0.52202">
        <ele>7.8</ele>
        <time>2021-04-27T13:52:36Z</time>
      </trkpt>
      <trkpt lat="46.32639" lon="-0.52207">
        <ele>8</ele>
        <time>2021-04-27T13:52:37Z</time>
      </trkpt>
      <trkpt lat="46.32634" lon="-0.52213">
        <ele>8</ele>
        <time>2021-04-27T13:52:38Z</time>
      </trkpt>
      <trkpt lat="46.32629" lon="-0.52217">
        <ele>8</ele>
        <time>2021-04-27T13:52:39Z</time>
      </trkpt>
      <trkpt lat="46.32619" lon="-0.52223">
        <ele>8</ele>
        <time>2021-04-27T13:52:41Z</time>
      </trkpt>
      <trkpt lat="46.32613" lon="-0.52226">
        <ele>8</ele>
        <time>2021-04-27T13:52:42Z</time>
      </trkpt>
      <trkpt lat="46.32608" lon="-0.52227">
        <ele>8</ele>
        <time>2021-04-27T13:52:43Z</time>
      </trkpt>
      <trkpt lat="46.32603" lon="-0.52227">
        <ele>8</ele>
        <time>2021-04-27T13:52:44Z</time>
      </trkpt>
      <trkpt lat="46.32598" lon="-0.52227">
        <ele>8</ele>
        <time>2021-04-27T13:52:45Z</time>
      </trkpt>
      <trkpt lat="46.32595" lon="-0.52227">
        <ele>8</ele>
        <time>2021-04-27T13:52:46Z</time>
      </trkpt>
      <trkpt lat="46.32591" lon="-0.52228">
        <ele>7.8</ele>
        <time>2021-04-27T13:52:47Z</time>
      </trkpt>
      <trkpt lat="46.32588" lon="-0.52228">
        <ele>7.8</ele>
        <time>2021-04-27T13:52:48Z</time>
      </trkpt>
      <trkpt lat="46.32583" lon="-0.52228">
        <ele>7.8</ele>
        <time>2021-04-27T13:52:49Z</time>
      </trkpt>
      <trkpt lat="46.32579" lon="-0.52228">
        <ele>7.8</ele>
        <time>2021-04-27T13:52:50Z</time>
      </trkpt>
      <trkpt lat="46.3257" lon="-0.52231">
        <ele>7.8</ele>
        <time>2021-04-27T13:52:52Z</time>
      </trkpt>
      <trkpt lat="46.32557" lon="-0.52229">
        <ele>7.6</ele>
        <time>2021-04-27T13:52:54Z</time>
      </trkpt>
      <trkpt lat="46.32545" lon="-0.52224">
        <ele>7.6</ele>
        <time>2021-04-27T13:52:56Z</time>
      </trkpt>
      <trkpt lat="46.32533" lon="-0.52219">
        <ele>7.6</ele>
        <time>2021-04-27T13:52:58Z</time>
      </trkpt>
      <trkpt lat="46.32502" lon="-0.52205">
        <ele>7.4</ele>
        <time>2021-04-27T13:53:03Z</time>
      </trkpt>
      <trkpt lat="46.3247" lon="-0.52194">
        <ele>7</ele>
        <time>2021-04-27T13:53:08Z</time>
      </trkpt>
      <trkpt lat="46.32453" lon="-0.5219">
        <ele>7</ele>
        <time>2021-04-27T13:53:11Z</time>
      </trkpt>
      <trkpt lat="46.32447" lon="-0.5219">
        <ele>7</ele>
        <time>2021-04-27T13:53:12Z</time>
      </trkpt>
      <trkpt lat="46.32434" lon="-0.52192">
        <ele>7</ele>
        <time>2021-04-27T13:53:14Z</time>
      </trkpt>
      <trkpt lat="46.32427" lon="-0.52194">
        <ele>6.8</ele>
        <time>2021-04-27T13:53:15Z</time>
      </trkpt>
      <trkpt lat="46.32421" lon="-0.52197">
        <ele>6.8</ele>
        <time>2021-04-27T13:53:16Z</time>
      </trkpt>
      <trkpt lat="46.32416" lon="-0.522">
        <ele>6.8</ele>
        <time>2021-04-27T13:53:17Z</time>
      </trkpt>
      <trkpt lat="46.32385" lon="-0.52218">
        <ele>6.6</ele>
        <time>2021-04-27T13:53:22Z</time>
      </trkpt>
      <trkpt lat="46.32379" lon="-0.52223">
        <ele>6.6</ele>
        <time>2021-04-27T13:53:23Z</time>
      </trkpt>
      <trkpt lat="46.32375" lon="-0.52229">
        <ele>6.8</ele>
        <time>2021-04-27T13:53:24Z</time>
      </trkpt>
      <trkpt lat="46.32371" lon="-0.52235">
        <ele>6.8</ele>
        <time>2021-04-27T13:53:25Z</time>
      </trkpt>
      <trkpt lat="46.32367" lon="-0.52241">
        <ele>6.8</ele>
        <time>2021-04-27T13:53:26Z</time>
      </trkpt>
      <trkpt lat="46.32364" lon="-0.52247">
        <ele>6.8</ele>
        <time>2021-04-27T13:53:27Z</time>
      </trkpt>
      <trkpt lat="46.32361" lon="-0.52252">
        <ele>6.8</ele>
        <time>2021-04-27T13:53:28Z</time>
      </trkpt>
      <trkpt lat="46.32358" lon="-0.52258">
        <ele>6.8</ele>
        <time>2021-04-27T13:53:29Z</time>
      </trkpt>
      <trkpt lat="46.32355" lon="-0.52261">
        <ele>6.8</ele>
        <time>2021-04-27T13:53:30Z</time>
      </trkpt>
      <trkpt lat="46.32349" lon="-0.52264">
        <ele>6.8</ele>
        <time>2021-04-27T13:53:31Z</time>
      </trkpt>
      <trkpt lat="46.32344" lon="-0.52267">
        <ele>6.8</ele>
        <time>2021-04-27T13:53:32Z</time>
      </trkpt>
      <trkpt lat="46.32338" lon="-0.52272">
        <ele>6.8</ele>
        <time>2021-04-27T13:53:33Z</time>
      </trkpt>
      <trkpt lat="46.32333" lon="-0.52278">
        <ele>6.8</ele>
        <time>2021-04-27T13:53:34Z</time>
      </trkpt>
      <trkpt lat="46.32326" lon="-0.52291">
        <ele>6.8</ele>
        <time>2021-04-27T13:53:36Z</time>
      </trkpt>
      <trkpt lat="46.32323" lon="-0.52302">
        <ele>6.8</ele>
        <time>2021-04-27T13:53:37Z</time>
      </trkpt>
      <trkpt lat="46.32321" lon="-0.52311">
        <ele>6.8</ele>
        <time>2021-04-27T13:53:38Z</time>
      </trkpt>
      <trkpt lat="46.3232" lon="-0.52319">
        <ele>7</ele>
        <time>2021-04-27T13:53:39Z</time>
      </trkpt>
      <trkpt lat="46.3232" lon="-0.52329">
        <ele>7</ele>
        <time>2021-04-27T13:53:40Z</time>
      </trkpt>
      <trkpt lat="46.32316" lon="-0.52368">
        <ele>7</ele>
        <time>2021-04-27T13:53:44Z</time>
      </trkpt>
      <trkpt lat="46.32301" lon="-0.52421">
        <ele>6.8</ele>
        <time>2021-04-27T13:53:50Z</time>
      </trkpt>
      <trkpt lat="46.32298" lon="-0.52429">
        <ele>6.4</ele>
        <time>2021-04-27T13:53:51Z</time>
      </trkpt>
      <trkpt lat="46.32294" lon="-0.52438">
        <ele>6.2</ele>
        <time>2021-04-27T13:53:52Z</time>
      </trkpt>
      <trkpt lat="46.32287" lon="-0.52451">
        <ele>6</ele>
        <time>2021-04-27T13:53:54Z</time>
      </trkpt>
      <trkpt lat="46.32281" lon="-0.52458">
        <ele>6</ele>
        <time>2021-04-27T13:53:55Z</time>
      </trkpt>
      <trkpt lat="46.32269" lon="-0.52468">
        <ele>6</ele>
        <time>2021-04-27T13:53:57Z</time>
      </trkpt>
      <trkpt lat="46.32259" lon="-0.52474">
        <ele>6</ele>
        <time>2021-04-27T13:53:59Z</time>
      </trkpt>
      <trkpt lat="46.32252" lon="-0.52477">
        <ele>6</ele>
        <time>2021-04-27T13:54:00Z</time>
      </trkpt>
      <trkpt lat="46.32246" lon="-0.52478">
        <ele>6</ele>
        <time>2021-04-27T13:54:01Z</time>
      </trkpt>
      <trkpt lat="46.32239" lon="-0.52478">
        <ele>6</ele>
        <time>2021-04-27T13:54:02Z</time>
      </trkpt>
      <trkpt lat="46.32233" lon="-0.52477">
        <ele>6</ele>
        <time>2021-04-27T13:54:03Z</time>
      </trkpt>
      <trkpt lat="46.32226" lon="-0.52476">
        <ele>6</ele>
        <time>2021-04-27T13:54:04Z</time>
      </trkpt>
      <trkpt lat="46.3222" lon="-0.52475">
        <ele>6.2</ele>
        <time>2021-04-27T13:54:05Z</time>
      </trkpt>
      <trkpt lat="46.32207" lon="-0.52474">
        <ele>6.2</ele>
        <time>2021-04-27T13:54:07Z</time>
      </trkpt>
      <trkpt lat="46.322" lon="-0.52472">
        <ele>6.4</ele>
        <time>2021-04-27T13:54:08Z</time>
      </trkpt>
      <trkpt lat="46.32148" lon="-0.52453">
        <ele>6.4</ele>
        <time>2021-04-27T13:54:16Z</time>
      </trkpt>
      <trkpt lat="46.32142" lon="-0.52452">
        <ele>6.4</ele>
        <time>2021-04-27T13:54:17Z</time>
      </trkpt>
      <trkpt lat="46.32136" lon="-0.52453">
        <ele>6.4</ele>
        <time>2021-04-27T13:54:18Z</time>
      </trkpt>
      <trkpt lat="46.32129" lon="-0.52457">
        <ele>6.4</ele>
        <time>2021-04-27T13:54:19Z</time>
      </trkpt>
      <trkpt lat="46.32123" lon="-0.52461">
        <ele>6.4</ele>
        <time>2021-04-27T13:54:20Z</time>
      </trkpt>
      <trkpt lat="46.32117" lon="-0.52466">
        <ele>6.4</ele>
        <time>2021-04-27T13:54:21Z</time>
      </trkpt>
      <trkpt lat="46.32112" lon="-0.52471">
        <ele>6.4</ele>
        <time>2021-04-27T13:54:22Z</time>
      </trkpt>
      <trkpt lat="46.32106" lon="-0.52478">
        <ele>6.2</ele>
        <time>2021-04-27T13:54:23Z</time>
      </trkpt>
      <trkpt lat="46.32102" lon="-0.52485">
        <ele>6.4</ele>
        <time>2021-04-27T13:54:24Z</time>
      </trkpt>
      <trkpt lat="46.32062" lon="-0.52548">
        <ele>6.2</ele>
        <time>2021-04-27T13:54:33Z</time>
      </trkpt>
      <trkpt lat="46.32038" lon="-0.5258">
        <ele>6.2</ele>
        <time>2021-04-27T13:54:38Z</time>
      </trkpt>
      <trkpt lat="46.32033" lon="-0.52586">
        <ele>6.2</ele>
        <time>2021-04-27T13:54:39Z</time>
      </trkpt>
      <trkpt lat="46.32014" lon="-0.52609">
        <ele>6.2</ele>
        <time>2021-04-27T13:54:43Z</time>
      </trkpt>
      <trkpt lat="46.32002" lon="-0.52617">
        <ele>6.2</ele>
        <time>2021-04-27T13:54:45Z</time>
      </trkpt>
      <trkpt lat="46.31996" lon="-0.5262">
        <ele>6.4</ele>
        <time>2021-04-27T13:54:46Z</time>
      </trkpt>
      <trkpt lat="46.3199" lon="-0.52622">
        <ele>6.4</ele>
        <time>2021-04-27T13:54:47Z</time>
      </trkpt>
      <trkpt lat="46.31977" lon="-0.52626">
        <ele>6.4</ele>
        <time>2021-04-27T13:54:49Z</time>
      </trkpt>
      <trkpt lat="46.31965" lon="-0.5263">
        <ele>6.4</ele>
        <time>2021-04-27T13:54:51Z</time>
      </trkpt>
      <trkpt lat="46.31959" lon="-0.52632">
        <ele>6.6</ele>
        <time>2021-04-27T13:54:52Z</time>
      </trkpt>
      <trkpt lat="46.31954" lon="-0.52634">
        <ele>6.6</ele>
        <time>2021-04-27T13:54:53Z</time>
      </trkpt>
      <trkpt lat="46.31949" lon="-0.52636">
        <ele>6.8</ele>
        <time>2021-04-27T13:54:54Z</time>
      </trkpt>
      <trkpt lat="46.31944" lon="-0.52637">
        <ele>6.8</ele>
        <time>2021-04-27T13:54:55Z</time>
      </trkpt>
      <trkpt lat="46.31938" lon="-0.5264">
        <ele>6.8</ele>
        <time>2021-04-27T13:54:56Z</time>
      </trkpt>
      <trkpt lat="46.31909" lon="-0.52648">
        <ele>6.8</ele>
        <time>2021-04-27T13:55:01Z</time>
      </trkpt>
      <trkpt lat="46.31903" lon="-0.52652">
        <ele>6.8</ele>
        <time>2021-04-27T13:55:02Z</time>
      </trkpt>
      <trkpt lat="46.31893" lon="-0.52663">
        <ele>6.8</ele>
        <time>2021-04-27T13:55:04Z</time>
      </trkpt>
      <trkpt lat="46.31887" lon="-0.52669">
        <ele>6.6</ele>
        <time>2021-04-27T13:55:05Z</time>
      </trkpt>
      <trkpt lat="46.31877" lon="-0.52681">
        <ele>6.4</ele>
        <time>2021-04-27T13:55:07Z</time>
      </trkpt>
      <trkpt lat="46.31844" lon="-0.52728">
        <ele>6.2</ele>
        <time>2021-04-27T13:55:14Z</time>
      </trkpt>
      <trkpt lat="46.31839" lon="-0.52734">
        <ele>6.2</ele>
        <time>2021-04-27T13:55:15Z</time>
      </trkpt>
      <trkpt lat="46.31834" lon="-0.52741">
        <ele>6</ele>
        <time>2021-04-27T13:55:16Z</time>
      </trkpt>
      <trkpt lat="46.31829" lon="-0.52747">
        <ele>5.8</ele>
        <time>2021-04-27T13:55:17Z</time>
      </trkpt>
      <trkpt lat="46.31819" lon="-0.5276">
        <ele>5.8</ele>
        <time>2021-04-27T13:55:19Z</time>
      </trkpt>
      <trkpt lat="46.31776" lon="-0.52802">
        <ele>5.8</ele>
        <time>2021-04-27T13:55:27Z</time>
      </trkpt>
      <trkpt lat="46.3177" lon="-0.52806">
        <ele>5.8</ele>
        <time>2021-04-27T13:55:28Z</time>
      </trkpt>
      <trkpt lat="46.31757" lon="-0.52812">
        <ele>5.8</ele>
        <time>2021-04-27T13:55:30Z</time>
      </trkpt>
      <trkpt lat="46.31751" lon="-0.52813">
        <ele>5.8</ele>
        <time>2021-04-27T13:55:31Z</time>
      </trkpt>
      <trkpt lat="46.31712" lon="-0.52819">
        <ele>6.2</ele>
        <time>2021-04-27T13:55:37Z</time>
      </trkpt>
      <trkpt lat="46.31705" lon="-0.52821">
        <ele>6.2</ele>
        <time>2021-04-27T13:55:38Z</time>
      </trkpt>
      <trkpt lat="46.31676" lon="-0.5283">
        <ele>6.4</ele>
        <time>2021-04-27T13:55:43Z</time>
      </trkpt>
      <trkpt lat="46.31663" lon="-0.52835">
        <ele>6.6</ele>
        <time>2021-04-27T13:55:45Z</time>
      </trkpt>
      <trkpt lat="46.31658" lon="-0.52837">
        <ele>6.6</ele>
        <time>2021-04-27T13:55:46Z</time>
      </trkpt>
      <trkpt lat="46.31652" lon="-0.5284">
        <ele>6.6</ele>
        <time>2021-04-27T13:55:47Z</time>
      </trkpt>
      <trkpt lat="46.31647" lon="-0.52843">
        <ele>6.6</ele>
        <time>2021-04-27T13:55:48Z</time>
      </trkpt>
      <trkpt lat="46.31642" lon="-0.52847">
        <ele>6.6</ele>
        <time>2021-04-27T13:55:49Z</time>
      </trkpt>
      <trkpt lat="46.31637" lon="-0.5285">
        <ele>6.8</ele>
        <time>2021-04-27T13:55:50Z</time>
      </trkpt>
      <trkpt lat="46.31632" lon="-0.52854">
        <ele>6.8</ele>
        <time>2021-04-27T13:55:51Z</time>
      </trkpt>
      <trkpt lat="46.31627" lon="-0.52859">
        <ele>6.8</ele>
        <time>2021-04-27T13:55:52Z</time>
      </trkpt>
      <trkpt lat="46.31623" lon="-0.52864">
        <ele>6.8</ele>
        <time>2021-04-27T13:55:53Z</time>
      </trkpt>
      <trkpt lat="46.3162" lon="-0.52871">
        <ele>7</ele>
        <time>2021-04-27T13:55:54Z</time>
      </trkpt>
      <trkpt lat="46.31615" lon="-0.5288">
        <ele>7</ele>
        <time>2021-04-27T13:55:55Z</time>
      </trkpt>
      <trkpt lat="46.31598" lon="-0.52905">
        <ele>6.8</ele>
        <time>2021-04-27T13:55:59Z</time>
      </trkpt>
      <trkpt lat="46.31593" lon="-0.52912">
        <ele>6.8</ele>
        <time>2021-04-27T13:56:00Z</time>
      </trkpt>
      <trkpt lat="46.31564" lon="-0.5295">
        <ele>5.8</ele>
        <time>2021-04-27T13:56:06Z</time>
      </trkpt>
      <trkpt lat="46.31522" lon="-0.52998">
        <ele>5.8</ele>
        <time>2021-04-27T13:56:14Z</time>
      </trkpt>
      <trkpt lat="46.31508" lon="-0.53018">
        <ele>5.8</ele>
        <time>2021-04-27T13:56:17Z</time>
      </trkpt>
      <trkpt lat="46.315" lon="-0.53034">
        <ele>6.2</ele>
        <time>2021-04-27T13:56:19Z</time>
      </trkpt>
      <trkpt lat="46.31485" lon="-0.53097">
        <ele>6.4</ele>
        <time>2021-04-27T13:56:26Z</time>
      </trkpt>
      <trkpt lat="46.31483" lon="-0.53106">
        <ele>6.4</ele>
        <time>2021-04-27T13:56:27Z</time>
      </trkpt>
      <trkpt lat="46.31476" lon="-0.53133">
        <ele>6.4</ele>
        <time>2021-04-27T13:56:30Z</time>
      </trkpt>
      <trkpt lat="46.3147" lon="-0.53169">
        <ele>6.2</ele>
        <time>2021-04-27T13:56:34Z</time>
      </trkpt>
      <trkpt lat="46.3146" lon="-0.53225">
        <ele>6.2</ele>
        <time>2021-04-27T13:56:40Z</time>
      </trkpt>
      <trkpt lat="46.31458" lon="-0.53234">
        <ele>6.2</ele>
        <time>2021-04-27T13:56:41Z</time>
      </trkpt>
      <trkpt lat="46.31441" lon="-0.53274">
        <ele>6.2</ele>
        <time>2021-04-27T13:56:46Z</time>
      </trkpt>
      <trkpt lat="46.31404" lon="-0.53342">
        <ele>6.2</ele>
        <time>2021-04-27T13:56:55Z</time>
      </trkpt>
      <trkpt lat="46.31389" lon="-0.53374">
        <ele>6.2</ele>
        <time>2021-04-27T13:56:59Z</time>
      </trkpt>
      <trkpt lat="46.31387" lon="-0.53383">
        <ele>6.2</ele>
        <time>2021-04-27T13:57:00Z</time>
      </trkpt>
      <trkpt lat="46.31386" lon="-0.53392">
        <ele>6.2</ele>
        <time>2021-04-27T13:57:01Z</time>
      </trkpt>
      <trkpt lat="46.31384" lon="-0.5342">
        <ele>6</ele>
        <time>2021-04-27T13:57:04Z</time>
      </trkpt>
      <trkpt lat="46.31383" lon="-0.53439">
        <ele>6</ele>
        <time>2021-04-27T13:57:06Z</time>
      </trkpt>
      <trkpt lat="46.31386" lon="-0.53477">
        <ele>5.8</ele>
        <time>2021-04-27T13:57:10Z</time>
      </trkpt>
      <trkpt lat="46.31392" lon="-0.53553">
        <ele>5.8</ele>
        <time>2021-04-27T13:57:18Z</time>
      </trkpt>
      <trkpt lat="46.31392" lon="-0.53562">
        <ele>5.8</ele>
        <time>2021-04-27T13:57:19Z</time>
      </trkpt>
      <trkpt lat="46.31392" lon="-0.53579">
        <ele>5.8</ele>
        <time>2021-04-27T13:57:21Z</time>
      </trkpt>
      <trkpt lat="46.31393" lon="-0.53587">
        <ele>5.8</ele>
        <time>2021-04-27T13:57:22Z</time>
      </trkpt>
      <trkpt lat="46.31394" lon="-0.53596">
        <ele>6</ele>
        <time>2021-04-27T13:57:23Z</time>
      </trkpt>
      <trkpt lat="46.31394" lon="-0.53605">
        <ele>6</ele>
        <time>2021-04-27T13:57:24Z</time>
      </trkpt>
      <trkpt lat="46.31395" lon="-0.53612">
        <ele>6</ele>
        <time>2021-04-27T13:57:25Z</time>
      </trkpt>
      <trkpt lat="46.31396" lon="-0.53626">
        <ele>6.2</ele>
        <time>2021-04-27T13:57:27Z</time>
      </trkpt>
      <trkpt lat="46.31396" lon="-0.53634">
        <ele>6.2</ele>
        <time>2021-04-27T13:57:28Z</time>
      </trkpt>
      <trkpt lat="46.31395" lon="-0.53641">
        <ele>6.4</ele>
        <time>2021-04-27T13:57:29Z</time>
      </trkpt>
      <trkpt lat="46.31394" lon="-0.53649">
        <ele>6.4</ele>
        <time>2021-04-27T13:57:30Z</time>
      </trkpt>
      <trkpt lat="46.31393" lon="-0.53657">
        <ele>6.4</ele>
        <time>2021-04-27T13:57:31Z</time>
      </trkpt>
      <trkpt lat="46.31392" lon="-0.53664">
        <ele>6.6</ele>
        <time>2021-04-27T13:57:32Z</time>
      </trkpt>
      <trkpt lat="46.31392" lon="-0.53671">
        <ele>6.6</ele>
        <time>2021-04-27T13:57:33Z</time>
      </trkpt>
      <trkpt lat="46.31391" lon="-0.53678">
        <ele>6.6</ele>
        <time>2021-04-27T13:57:34Z</time>
      </trkpt>
      <trkpt lat="46.31391" lon="-0.53684">
        <ele>6.8</ele>
        <time>2021-04-27T13:57:35Z</time>
      </trkpt>
      <trkpt lat="46.3139" lon="-0.5369">
        <ele>7</ele>
        <time>2021-04-27T13:57:36Z</time>
      </trkpt>
      <trkpt lat="46.3139" lon="-0.53696">
        <ele>7</ele>
        <time>2021-04-27T13:57:37Z</time>
      </trkpt>
      <trkpt lat="46.31389" lon="-0.53703">
        <ele>7</ele>
        <time>2021-04-27T13:57:38Z</time>
      </trkpt>
      <trkpt lat="46.31389" lon="-0.53709">
        <ele>7</ele>
        <time>2021-04-27T13:57:39Z</time>
      </trkpt>
      <trkpt lat="46.31389" lon="-0.53714">
        <ele>7.2</ele>
        <time>2021-04-27T13:57:40Z</time>
      </trkpt>
      <trkpt lat="46.3139" lon="-0.53719">
        <ele>7.2</ele>
        <time>2021-04-27T13:57:41Z</time>
      </trkpt>
      <trkpt lat="46.31392" lon="-0.53726">
        <ele>7.2</ele>
        <time>2021-04-27T13:57:42Z</time>
      </trkpt>
      <trkpt lat="46.31394" lon="-0.53731">
        <ele>7.2</ele>
        <time>2021-04-27T13:57:43Z</time>
      </trkpt>
      <trkpt lat="46.31398" lon="-0.53737">
        <ele>7.2</ele>
        <time>2021-04-27T13:57:44Z</time>
      </trkpt>
      <trkpt lat="46.31399" lon="-0.53742">
        <ele>7.2</ele>
        <time>2021-04-27T13:57:45Z</time>
      </trkpt>
      <trkpt lat="46.31401" lon="-0.53749">
        <ele>7.2</ele>
        <time>2021-04-27T13:57:46Z</time>
      </trkpt>
      <trkpt lat="46.31407" lon="-0.53767">
        <ele>7.2</ele>
        <time>2021-04-27T13:57:48Z</time>
      </trkpt>
      <trkpt lat="46.31416" lon="-0.53803">
        <ele>7.2</ele>
        <time>2021-04-27T13:57:52Z</time>
      </trkpt>
      <trkpt lat="46.31422" lon="-0.5382">
        <ele>7</ele>
        <time>2021-04-27T13:57:54Z</time>
      </trkpt>
      <trkpt lat="46.31442" lon="-0.5387">
        <ele>6.8</ele>
        <time>2021-04-27T13:58:00Z</time>
      </trkpt>
      <trkpt lat="46.31447" lon="-0.53879">
        <ele>6.6</ele>
        <time>2021-04-27T13:58:01Z</time>
      </trkpt>
      <trkpt lat="46.3145" lon="-0.53884">
        <ele>6.6</ele>
        <time>2021-04-27T13:58:02Z</time>
      </trkpt>
      <trkpt lat="46.31479" lon="-0.53924">
        <ele>6.6</ele>
        <time>2021-04-27T13:58:08Z</time>
      </trkpt>
      <trkpt lat="46.31486" lon="-0.5394">
        <ele>6.4</ele>
        <time>2021-04-27T13:58:10Z</time>
      </trkpt>
      <trkpt lat="46.31491" lon="-0.5396">
        <ele>6.2</ele>
        <time>2021-04-27T13:58:12Z</time>
      </trkpt>
      <trkpt lat="46.31503" lon="-0.54014">
        <ele>6</ele>
        <time>2021-04-27T13:58:18Z</time>
      </trkpt>
      <trkpt lat="46.31505" lon="-0.54023">
        <ele>5.8</ele>
        <time>2021-04-27T13:58:19Z</time>
      </trkpt>
      <trkpt lat="46.31509" lon="-0.54042">
        <ele>5.8</ele>
        <time>2021-04-27T13:58:21Z</time>
      </trkpt>
      <trkpt lat="46.31511" lon="-0.54051">
        <ele>5.6</ele>
        <time>2021-04-27T13:58:22Z</time>
      </trkpt>
      <trkpt lat="46.31512" lon="-0.54058">
        <ele>5.6</ele>
        <time>2021-04-27T13:58:23Z</time>
      </trkpt>
      <trkpt lat="46.31515" lon="-0.54066">
        <ele>5.6</ele>
        <time>2021-04-27T13:58:24Z</time>
      </trkpt>
      <trkpt lat="46.31516" lon="-0.54073">
        <ele>5.6</ele>
        <time>2021-04-27T13:58:25Z</time>
      </trkpt>
      <trkpt lat="46.31518" lon="-0.54081">
        <ele>5.6</ele>
        <time>2021-04-27T13:58:26Z</time>
      </trkpt>
      <trkpt lat="46.3152" lon="-0.54089">
        <ele>5.8</ele>
        <time>2021-04-27T13:58:27Z</time>
      </trkpt>
      <trkpt lat="46.31523" lon="-0.54118">
        <ele>5.8</ele>
        <time>2021-04-27T13:58:30Z</time>
      </trkpt>
      <trkpt lat="46.31525" lon="-0.54136">
        <ele>5.8</ele>
        <time>2021-04-27T13:58:32Z</time>
      </trkpt>
      <trkpt lat="46.31525" lon="-0.54145">
        <ele>5.8</ele>
        <time>2021-04-27T13:58:33Z</time>
      </trkpt>
      <trkpt lat="46.31525" lon="-0.54153">
        <ele>6.2</ele>
        <time>2021-04-27T13:58:34Z</time>
      </trkpt>
      <trkpt lat="46.31525" lon="-0.54161">
        <ele>6.2</ele>
        <time>2021-04-27T13:58:35Z</time>
      </trkpt>
      <trkpt lat="46.31526" lon="-0.54167">
        <ele>6.4</ele>
        <time>2021-04-27T13:58:36Z</time>
      </trkpt>
      <trkpt lat="46.31529" lon="-0.54172">
        <ele>6.4</ele>
        <time>2021-04-27T13:58:37Z</time>
      </trkpt>
      <trkpt lat="46.31532" lon="-0.54176">
        <ele>6.6</ele>
        <time>2021-04-27T13:58:38Z</time>
      </trkpt>
      <trkpt lat="46.31542" lon="-0.5418">
        <ele>6.6</ele>
        <time>2021-04-27T13:58:40Z</time>
      </trkpt>
      <trkpt lat="46.31547" lon="-0.54181">
        <ele>6.6</ele>
        <time>2021-04-27T13:58:41Z</time>
      </trkpt>
      <trkpt lat="46.31553" lon="-0.54183">
        <ele>6.6</ele>
        <time>2021-04-27T13:58:42Z</time>
      </trkpt>
      <trkpt lat="46.31597" lon="-0.54193">
        <ele>6.6</ele>
        <time>2021-04-27T13:58:49Z</time>
      </trkpt>
      <trkpt lat="46.31643" lon="-0.54203">
        <ele>6.2</ele>
        <time>2021-04-27T13:58:56Z</time>
      </trkpt>
      <trkpt lat="46.31656" lon="-0.54203">
        <ele>6.2</ele>
        <time>2021-04-27T13:58:58Z</time>
      </trkpt>
      <trkpt lat="46.31661" lon="-0.54204">
        <ele>6.2</ele>
        <time>2021-04-27T13:58:59Z</time>
      </trkpt>
      <trkpt lat="46.31667" lon="-0.54204">
        <ele>6.2</ele>
        <time>2021-04-27T13:59:00Z</time>
      </trkpt>
      <trkpt lat="46.31674" lon="-0.54203">
        <ele>6.2</ele>
        <time>2021-04-27T13:59:01Z</time>
      </trkpt>
      <trkpt lat="46.31699" lon="-0.54196">
        <ele>6.4</ele>
        <time>2021-04-27T13:59:05Z</time>
      </trkpt>
      <trkpt lat="46.31705" lon="-0.54192">
        <ele>6.4</ele>
        <time>2021-04-27T13:59:06Z</time>
      </trkpt>
      <trkpt lat="46.31733" lon="-0.54168">
        <ele>6.6</ele>
        <time>2021-04-27T13:59:11Z</time>
      </trkpt>
      <trkpt lat="46.31737" lon="-0.54164">
        <ele>6.6</ele>
        <time>2021-04-27T13:59:12Z</time>
      </trkpt>
      <trkpt lat="46.31742" lon="-0.54159">
        <ele>6.6</ele>
        <time>2021-04-27T13:59:13Z</time>
      </trkpt>
      <trkpt lat="46.31746" lon="-0.54154">
        <ele>6.6</ele>
        <time>2021-04-27T13:59:14Z</time>
      </trkpt>
      <trkpt lat="46.31751" lon="-0.5415">
        <ele>6.6</ele>
        <time>2021-04-27T13:59:15Z</time>
      </trkpt>
      <trkpt lat="46.31755" lon="-0.54146">
        <ele>6.8</ele>
        <time>2021-04-27T13:59:16Z</time>
      </trkpt>
      <trkpt lat="46.31771" lon="-0.54131">
        <ele>6.6</ele>
        <time>2021-04-27T13:59:19Z</time>
      </trkpt>
      <trkpt lat="46.31818" lon="-0.54089">
        <ele>6.8</ele>
        <time>2021-04-27T13:59:28Z</time>
      </trkpt>
      <trkpt lat="46.31834" lon="-0.54074">
        <ele>6.8</ele>
        <time>2021-04-27T13:59:31Z</time>
      </trkpt>
      <trkpt lat="46.31839" lon="-0.54069">
        <ele>6.6</ele>
        <time>2021-04-27T13:59:32Z</time>
      </trkpt>
      <trkpt lat="46.31858" lon="-0.5405">
        <ele>6.4</ele>
        <time>2021-04-27T13:59:36Z</time>
      </trkpt>
      <trkpt lat="46.31862" lon="-0.54045">
        <ele>6.4</ele>
        <time>2021-04-27T13:59:37Z</time>
      </trkpt>
      <trkpt lat="46.31867" lon="-0.54041">
        <ele>6.4</ele>
        <time>2021-04-27T13:59:38Z</time>
      </trkpt>
      <trkpt lat="46.31871" lon="-0.54037">
        <ele>6.4</ele>
        <time>2021-04-27T13:59:39Z</time>
      </trkpt>
      <trkpt lat="46.31881" lon="-0.54026">
        <ele>6.4</ele>
        <time>2021-04-27T13:59:41Z</time>
      </trkpt>
      <trkpt lat="46.31913" lon="-0.53994">
        <ele>6.2</ele>
        <time>2021-04-27T13:59:46Z</time>
      </trkpt>
      <trkpt lat="46.31933" lon="-0.53974">
        <ele>6.2</ele>
        <time>2021-04-27T13:59:49Z</time>
      </trkpt>
      <trkpt lat="46.31939" lon="-0.53968">
        <ele>6</ele>
        <time>2021-04-27T13:59:50Z</time>
      </trkpt>
      <trkpt lat="46.31945" lon="-0.53962">
        <ele>6</ele>
        <time>2021-04-27T13:59:51Z</time>
      </trkpt>
      <trkpt lat="46.31951" lon="-0.53956">
        <ele>6</ele>
        <time>2021-04-27T13:59:52Z</time>
      </trkpt>
      <trkpt lat="46.31956" lon="-0.5395">
        <ele>6</ele>
        <time>2021-04-27T13:59:53Z</time>
      </trkpt>
      <trkpt lat="46.31962" lon="-0.53945">
        <ele>5.8</ele>
        <time>2021-04-27T13:59:54Z</time>
      </trkpt>
      <trkpt lat="46.31967" lon="-0.5394">
        <ele>5.8</ele>
        <time>2021-04-27T13:59:55Z</time>
      </trkpt>
      <trkpt lat="46.31984" lon="-0.53923">
        <ele>5.8</ele>
        <time>2021-04-27T13:59:58Z</time>
      </trkpt>
      <trkpt lat="46.31989" lon="-0.53918">
        <ele>5.8</ele>
        <time>2021-04-27T13:59:59Z</time>
      </trkpt>
      <trkpt lat="46.31995" lon="-0.53912">
        <ele>5.8</ele>
        <time>2021-04-27T14:00:00Z</time>
      </trkpt>
      <trkpt lat="46.32" lon="-0.53907">
        <ele>5.8</ele>
        <time>2021-04-27T14:00:01Z</time>
      </trkpt>
      <trkpt lat="46.32005" lon="-0.53901">
        <ele>6</ele>
        <time>2021-04-27T14:00:02Z</time>
      </trkpt>
      <trkpt lat="46.32011" lon="-0.53895">
        <ele>6</ele>
        <time>2021-04-27T14:00:03Z</time>
      </trkpt>
      <trkpt lat="46.32016" lon="-0.5389">
        <ele>6.2</ele>
        <time>2021-04-27T14:00:04Z</time>
      </trkpt>
      <trkpt lat="46.32021" lon="-0.53884">
        <ele>6.2</ele>
        <time>2021-04-27T14:00:05Z</time>
      </trkpt>
      <trkpt lat="46.32027" lon="-0.53879">
        <ele>6.6</ele>
        <time>2021-04-27T14:00:06Z</time>
      </trkpt>
      <trkpt lat="46.32032" lon="-0.53874">
        <ele>6.6</ele>
        <time>2021-04-27T14:00:07Z</time>
      </trkpt>
      <trkpt lat="46.32042" lon="-0.53863">
        <ele>6.6</ele>
        <time>2021-04-27T14:00:09Z</time>
      </trkpt>
      <trkpt lat="46.32047" lon="-0.53857">
        <ele>6.6</ele>
        <time>2021-04-27T14:00:10Z</time>
      </trkpt>
      <trkpt lat="46.32052" lon="-0.53851">
        <ele>6.6</ele>
        <time>2021-04-27T14:00:11Z</time>
      </trkpt>
      <trkpt lat="46.32068" lon="-0.53835">
        <ele>6.6</ele>
        <time>2021-04-27T14:00:14Z</time>
      </trkpt>
      <trkpt lat="46.32078" lon="-0.53823">
        <ele>6.6</ele>
        <time>2021-04-27T14:00:16Z</time>
      </trkpt>
      <trkpt lat="46.32114" lon="-0.53783">
        <ele>6.4</ele>
        <time>2021-04-27T14:00:23Z</time>
      </trkpt>
      <trkpt lat="46.32119" lon="-0.53778">
        <ele>6.4</ele>
        <time>2021-04-27T14:00:24Z</time>
      </trkpt>
      <trkpt lat="46.32147" lon="-0.53752">
        <ele>6.2</ele>
        <time>2021-04-27T14:00:29Z</time>
      </trkpt>
      <trkpt lat="46.32152" lon="-0.53748">
        <ele>6.2</ele>
        <time>2021-04-27T14:00:30Z</time>
      </trkpt>
      <trkpt lat="46.32158" lon="-0.53744">
        <ele>6.2</ele>
        <time>2021-04-27T14:00:31Z</time>
      </trkpt>
      <trkpt lat="46.32177" lon="-0.53733">
        <ele>6</ele>
        <time>2021-04-27T14:00:34Z</time>
      </trkpt>
      <trkpt lat="46.32184" lon="-0.53732">
        <ele>6</ele>
        <time>2021-04-27T14:00:35Z</time>
      </trkpt>
      <trkpt lat="46.3219" lon="-0.53731">
        <ele>6</ele>
        <time>2021-04-27T14:00:36Z</time>
      </trkpt>
      <trkpt lat="46.32204" lon="-0.53731">
        <ele>6</ele>
        <time>2021-04-27T14:00:38Z</time>
      </trkpt>
      <trkpt lat="46.3221" lon="-0.53732">
        <ele>6</ele>
        <time>2021-04-27T14:00:39Z</time>
      </trkpt>
      <trkpt lat="46.32215" lon="-0.53733">
        <ele>6</ele>
        <time>2021-04-27T14:00:40Z</time>
      </trkpt>
      <trkpt lat="46.32235" lon="-0.53737">
        <ele>5.8</ele>
        <time>2021-04-27T14:00:43Z</time>
      </trkpt>
      <trkpt lat="46.32241" lon="-0.53737">
        <ele>5.8</ele>
        <time>2021-04-27T14:00:44Z</time>
      </trkpt>
      <trkpt lat="46.32248" lon="-0.53737">
        <ele>5.6</ele>
        <time>2021-04-27T14:00:45Z</time>
      </trkpt>
      <trkpt lat="46.32254" lon="-0.53738">
        <ele>5.6</ele>
        <time>2021-04-27T14:00:46Z</time>
      </trkpt>
      <trkpt lat="46.32266" lon="-0.5374">
        <ele>5.6</ele>
        <time>2021-04-27T14:00:48Z</time>
      </trkpt>
      <trkpt lat="46.32273" lon="-0.53743">
        <ele>5.4</ele>
        <time>2021-04-27T14:00:49Z</time>
      </trkpt>
      <trkpt lat="46.32279" lon="-0.53746">
        <ele>5.4</ele>
        <time>2021-04-27T14:00:50Z</time>
      </trkpt>
      <trkpt lat="46.32285" lon="-0.53748">
        <ele>5.2</ele>
        <time>2021-04-27T14:00:51Z</time>
      </trkpt>
      <trkpt lat="46.3231" lon="-0.53756">
        <ele>5.2</ele>
        <time>2021-04-27T14:00:55Z</time>
      </trkpt>
      <trkpt lat="46.32316" lon="-0.53761">
        <ele>5.2</ele>
        <time>2021-04-27T14:00:56Z</time>
      </trkpt>
      <trkpt lat="46.32348" lon="-0.5378">
        <ele>5.2</ele>
        <time>2021-04-27T14:01:01Z</time>
      </trkpt>
      <trkpt lat="46.32361" lon="-0.53783">
        <ele>5.4</ele>
        <time>2021-04-27T14:01:03Z</time>
      </trkpt>
      <trkpt lat="46.32399" lon="-0.53795">
        <ele>5.6</ele>
        <time>2021-04-27T14:01:09Z</time>
      </trkpt>
      <trkpt lat="46.32419" lon="-0.53802">
        <ele>5.6</ele>
        <time>2021-04-27T14:01:12Z</time>
      </trkpt>
      <trkpt lat="46.32425" lon="-0.53804">
        <ele>5.6</ele>
        <time>2021-04-27T14:01:13Z</time>
      </trkpt>
      <trkpt lat="46.32431" lon="-0.53807">
        <ele>5.6</ele>
        <time>2021-04-27T14:01:14Z</time>
      </trkpt>
      <trkpt lat="46.32436" lon="-0.53809">
        <ele>5.6</ele>
        <time>2021-04-27T14:01:15Z</time>
      </trkpt>
      <trkpt lat="46.32441" lon="-0.53813">
        <ele>5.6</ele>
        <time>2021-04-27T14:01:16Z</time>
      </trkpt>
      <trkpt lat="46.32445" lon="-0.53818">
        <ele>5.6</ele>
        <time>2021-04-27T14:01:17Z</time>
      </trkpt>
      <trkpt lat="46.32449" lon="-0.53825">
        <ele>5.6</ele>
        <time>2021-04-27T14:01:18Z</time>
      </trkpt>
      <trkpt lat="46.32453" lon="-0.53832">
        <ele>5.6</ele>
        <time>2021-04-27T14:01:19Z</time>
      </trkpt>
      <trkpt lat="46.32456" lon="-0.5384">
        <ele>5.6</ele>
        <time>2021-04-27T14:01:20Z</time>
      </trkpt>
      <trkpt lat="46.32459" lon="-0.53849">
        <ele>5.6</ele>
        <time>2021-04-27T14:01:21Z</time>
      </trkpt>
      <trkpt lat="46.32462" lon="-0.53858">
        <ele>5.6</ele>
        <time>2021-04-27T14:01:22Z</time>
      </trkpt>
      <trkpt lat="46.32469" lon="-0.53874">
        <ele>5.6</ele>
        <time>2021-04-27T14:01:24Z</time>
      </trkpt>
      <trkpt lat="46.32472" lon="-0.53883">
        <ele>5.6</ele>
        <time>2021-04-27T14:01:25Z</time>
      </trkpt>
      <trkpt lat="46.32474" lon="-0.53901">
        <ele>5.8</ele>
        <time>2021-04-27T14:01:27Z</time>
      </trkpt>
      <trkpt lat="46.32475" lon="-0.5392">
        <ele>5.8</ele>
        <time>2021-04-27T14:01:29Z</time>
      </trkpt>
      <trkpt lat="46.32481" lon="-0.53956">
        <ele>5.8</ele>
        <time>2021-04-27T14:01:33Z</time>
      </trkpt>
      <trkpt lat="46.32484" lon="-0.53976">
        <ele>5.8</ele>
        <time>2021-04-27T14:01:35Z</time>
      </trkpt>
      <trkpt lat="46.32485" lon="-0.53986">
        <ele>5.8</ele>
        <time>2021-04-27T14:01:36Z</time>
      </trkpt>
      <trkpt lat="46.32486" lon="-0.53995">
        <ele>5.6</ele>
        <time>2021-04-27T14:01:37Z</time>
      </trkpt>
      <trkpt lat="46.32488" lon="-0.54003">
        <ele>5.8</ele>
        <time>2021-04-27T14:01:38Z</time>
      </trkpt>
      <trkpt lat="46.32489" lon="-0.54012">
        <ele>5.8</ele>
        <time>2021-04-27T14:01:39Z</time>
      </trkpt>
      <trkpt lat="46.3249" lon="-0.54022">
        <ele>5.8</ele>
        <time>2021-04-27T14:01:40Z</time>
      </trkpt>
      <trkpt lat="46.32497" lon="-0.541">
        <ele>6</ele>
        <time>2021-04-27T14:01:48Z</time>
      </trkpt>
      <trkpt lat="46.325" lon="-0.54158">
        <ele>6</ele>
        <time>2021-04-27T14:01:54Z</time>
      </trkpt>
      <trkpt lat="46.32501" lon="-0.54245">
        <ele>5.8</ele>
        <time>2021-04-27T14:02:03Z</time>
      </trkpt>
      <trkpt lat="46.32498" lon="-0.54271">
        <ele>5.6</ele>
        <time>2021-04-27T14:02:06Z</time>
      </trkpt>
      <trkpt lat="46.32498" lon="-0.5428">
        <ele>5.6</ele>
        <time>2021-04-27T14:02:07Z</time>
      </trkpt>
      <trkpt lat="46.32498" lon="-0.54289">
        <ele>5.6</ele>
        <time>2021-04-27T14:02:08Z</time>
      </trkpt>
      <trkpt lat="46.32498" lon="-0.54327">
        <ele>5.6</ele>
        <time>2021-04-27T14:02:12Z</time>
      </trkpt>
      <trkpt lat="46.32498" lon="-0.54336">
        <ele>5.6</ele>
        <time>2021-04-27T14:02:13Z</time>
      </trkpt>
      <trkpt lat="46.32497" lon="-0.54345">
        <ele>5.8</ele>
        <time>2021-04-27T14:02:14Z</time>
      </trkpt>
      <trkpt lat="46.32493" lon="-0.54361">
        <ele>6</ele>
        <time>2021-04-27T14:02:16Z</time>
      </trkpt>
      <trkpt lat="46.32487" lon="-0.54377">
        <ele>6.2</ele>
        <time>2021-04-27T14:02:18Z</time>
      </trkpt>
      <trkpt lat="46.32483" lon="-0.54384">
        <ele>6.2</ele>
        <time>2021-04-27T14:02:19Z</time>
      </trkpt>
      <trkpt lat="46.32476" lon="-0.54399">
        <ele>6.2</ele>
        <time>2021-04-27T14:02:21Z</time>
      </trkpt>
      <trkpt lat="46.32472" lon="-0.54406">
        <ele>6.2</ele>
        <time>2021-04-27T14:02:22Z</time>
      </trkpt>
      <trkpt lat="46.32447" lon="-0.54458">
        <ele>6.2</ele>
        <time>2021-04-27T14:02:28Z</time>
      </trkpt>
      <trkpt lat="46.32443" lon="-0.54466">
        <ele>6.2</ele>
        <time>2021-04-27T14:02:29Z</time>
      </trkpt>
      <trkpt lat="46.32439" lon="-0.54475">
        <ele>6.2</ele>
        <time>2021-04-27T14:02:30Z</time>
      </trkpt>
      <trkpt lat="46.32437" lon="-0.54484">
        <ele>6.2</ele>
        <time>2021-04-27T14:02:31Z</time>
      </trkpt>
      <trkpt lat="46.32433" lon="-0.54502">
        <ele>6.2</ele>
        <time>2021-04-27T14:02:33Z</time>
      </trkpt>
      <trkpt lat="46.3242" lon="-0.54557">
        <ele>6.2</ele>
        <time>2021-04-27T14:02:39Z</time>
      </trkpt>
      <trkpt lat="46.32414" lon="-0.54573">
        <ele>6.2</ele>
        <time>2021-04-27T14:02:41Z</time>
      </trkpt>
      <trkpt lat="46.32404" lon="-0.54598">
        <ele>6</ele>
        <time>2021-04-27T14:02:44Z</time>
      </trkpt>
      <trkpt lat="46.32402" lon="-0.54608">
        <ele>6</ele>
        <time>2021-04-27T14:02:45Z</time>
      </trkpt>
      <trkpt lat="46.32395" lon="-0.54645">
        <ele>6</ele>
        <time>2021-04-27T14:02:49Z</time>
      </trkpt>
      <trkpt lat="46.32393" lon="-0.54654">
        <ele>5.8</ele>
        <time>2021-04-27T14:02:50Z</time>
      </trkpt>
      <trkpt lat="46.3239" lon="-0.54664">
        <ele>5.8</ele>
        <time>2021-04-27T14:02:51Z</time>
      </trkpt>
      <trkpt lat="46.32372" lon="-0.54714">
        <ele>5.8</ele>
        <time>2021-04-27T14:02:57Z</time>
      </trkpt>
      <trkpt lat="46.32369" lon="-0.54721">
        <ele>5.8</ele>
        <time>2021-04-27T14:02:58Z</time>
      </trkpt>
      <trkpt lat="46.32352" lon="-0.5475">
        <ele>5.8</ele>
        <time>2021-04-27T14:03:02Z</time>
      </trkpt>
      <trkpt lat="46.32337" lon="-0.54781">
        <ele>6.2</ele>
        <time>2021-04-27T14:03:06Z</time>
      </trkpt>
      <trkpt lat="46.32335" lon="-0.54792">
        <ele>6.2</ele>
        <time>2021-04-27T14:03:07Z</time>
      </trkpt>
      <trkpt lat="46.32334" lon="-0.548">
        <ele>6.2</ele>
        <time>2021-04-27T14:03:08Z</time>
      </trkpt>
      <trkpt lat="46.32334" lon="-0.54809">
        <ele>6.2</ele>
        <time>2021-04-27T14:03:09Z</time>
      </trkpt>
      <trkpt lat="46.32334" lon="-0.54818">
        <ele>6.2</ele>
        <time>2021-04-27T14:03:10Z</time>
      </trkpt>
      <trkpt lat="46.32335" lon="-0.54828">
        <ele>6.2</ele>
        <time>2021-04-27T14:03:11Z</time>
      </trkpt>
      <trkpt lat="46.32342" lon="-0.54884">
        <ele>6.2</ele>
        <time>2021-04-27T14:03:17Z</time>
      </trkpt>
      <trkpt lat="46.32342" lon="-0.54903">
        <ele>6.2</ele>
        <time>2021-04-27T14:03:19Z</time>
      </trkpt>
      <trkpt lat="46.32339" lon="-0.54941">
        <ele>6.2</ele>
        <time>2021-04-27T14:03:23Z</time>
      </trkpt>
      <trkpt lat="46.32336" lon="-0.54949">
        <ele>6.2</ele>
        <time>2021-04-27T14:03:24Z</time>
      </trkpt>
      <trkpt lat="46.32329" lon="-0.54967">
        <ele>6.2</ele>
        <time>2021-04-27T14:03:26Z</time>
      </trkpt>
      <trkpt lat="46.32323" lon="-0.54982">
        <ele>6.2</ele>
        <time>2021-04-27T14:03:28Z</time>
      </trkpt>
      <trkpt lat="46.32314" lon="-0.55009">
        <ele>6.2</ele>
        <time>2021-04-27T14:03:31Z</time>
      </trkpt>
      <trkpt lat="46.32309" lon="-0.55034">
        <ele>6.2</ele>
        <time>2021-04-27T14:03:34Z</time>
      </trkpt>
      <trkpt lat="46.32298" lon="-0.55099">
        <ele>6.2</ele>
        <time>2021-04-27T14:03:41Z</time>
      </trkpt>
      <trkpt lat="46.32296" lon="-0.55109">
        <ele>6.2</ele>
        <time>2021-04-27T14:03:42Z</time>
      </trkpt>
      <trkpt lat="46.32289" lon="-0.55145">
        <ele>6.2</ele>
        <time>2021-04-27T14:03:46Z</time>
      </trkpt>
      <trkpt lat="46.32289" lon="-0.55192">
        <ele>6.2</ele>
        <time>2021-04-27T14:03:51Z</time>
      </trkpt>
      <trkpt lat="46.32299" lon="-0.55237">
        <ele>6.4</ele>
        <time>2021-04-27T14:03:56Z</time>
      </trkpt>
      <trkpt lat="46.323" lon="-0.55246">
        <ele>6.4</ele>
        <time>2021-04-27T14:03:57Z</time>
      </trkpt>
      <trkpt lat="46.32302" lon="-0.55255">
        <ele>6.4</ele>
        <time>2021-04-27T14:03:58Z</time>
      </trkpt>
      <trkpt lat="46.3231" lon="-0.55329">
        <ele>6.2</ele>
        <time>2021-04-27T14:04:06Z</time>
      </trkpt>
      <trkpt lat="46.3231" lon="-0.55339">
        <ele>6.2</ele>
        <time>2021-04-27T14:04:07Z</time>
      </trkpt>
      <trkpt lat="46.32312" lon="-0.55359">
        <ele>6.2</ele>
        <time>2021-04-27T14:04:09Z</time>
      </trkpt>
      <trkpt lat="46.32311" lon="-0.55379">
        <ele>6</ele>
        <time>2021-04-27T14:04:11Z</time>
      </trkpt>
      <trkpt lat="46.32311" lon="-0.55386">
        <ele>6</ele>
        <time>2021-04-27T14:04:12Z</time>
      </trkpt>
      <trkpt lat="46.32308" lon="-0.55434">
        <ele>6</ele>
        <time>2021-04-27T14:04:17Z</time>
      </trkpt>
      <trkpt lat="46.32307" lon="-0.55443">
        <ele>6</ele>
        <time>2021-04-27T14:04:18Z</time>
      </trkpt>
      <trkpt lat="46.32306" lon="-0.55452">
        <ele>6</ele>
        <time>2021-04-27T14:04:19Z</time>
      </trkpt>
      <trkpt lat="46.32306" lon="-0.55461">
        <ele>6</ele>
        <time>2021-04-27T14:04:20Z</time>
      </trkpt>
      <trkpt lat="46.32306" lon="-0.55469">
        <ele>6</ele>
        <time>2021-04-27T14:04:21Z</time>
      </trkpt>
      <trkpt lat="46.32306" lon="-0.55477">
        <ele>6</ele>
        <time>2021-04-27T14:04:22Z</time>
      </trkpt>
      <trkpt lat="46.32306" lon="-0.55485">
        <ele>6</ele>
        <time>2021-04-27T14:04:23Z</time>
      </trkpt>
      <trkpt lat="46.32308" lon="-0.55541">
        <ele>6</ele>
        <time>2021-04-27T14:04:29Z</time>
      </trkpt>
      <trkpt lat="46.32318" lon="-0.55618">
        <ele>6.4</ele>
        <time>2021-04-27T14:04:37Z</time>
      </trkpt>
      <trkpt lat="46.32324" lon="-0.55643">
        <ele>6.6</ele>
        <time>2021-04-27T14:04:40Z</time>
      </trkpt>
      <trkpt lat="46.32332" lon="-0.55661">
        <ele>6.6</ele>
        <time>2021-04-27T14:04:42Z</time>
      </trkpt>
      <trkpt lat="46.32335" lon="-0.55668">
        <ele>6.6</ele>
        <time>2021-04-27T14:04:43Z</time>
      </trkpt>
      <trkpt lat="46.32338" lon="-0.55675">
        <ele>6.8</ele>
        <time>2021-04-27T14:04:44Z</time>
      </trkpt>
      <trkpt lat="46.32342" lon="-0.5568">
        <ele>6.8</ele>
        <time>2021-04-27T14:04:45Z</time>
      </trkpt>
      <trkpt lat="46.32347" lon="-0.55685">
        <ele>6.8</ele>
        <time>2021-04-27T14:04:46Z</time>
      </trkpt>
      <trkpt lat="46.32355" lon="-0.55693">
        <ele>6.8</ele>
        <time>2021-04-27T14:04:48Z</time>
      </trkpt>
      <trkpt lat="46.3236" lon="-0.55696">
        <ele>6.8</ele>
        <time>2021-04-27T14:04:49Z</time>
      </trkpt>
      <trkpt lat="46.32363" lon="-0.55698">
        <ele>6.8</ele>
        <time>2021-04-27T14:04:50Z</time>
      </trkpt>
      <trkpt lat="46.32365" lon="-0.55699">
        <ele>6.8</ele>
        <time>2021-04-27T14:04:51Z</time>
      </trkpt>
      <trkpt lat="46.32365" lon="-0.557">
        <ele>6.8</ele>
        <time>2021-04-27T14:04:52Z</time>
      </trkpt>
      <trkpt lat="46.32365" lon="-0.55701">
        <ele>6.8</ele>
        <time>2021-04-27T14:04:53Z</time>
      </trkpt>
      <trkpt lat="46.32365" lon="-0.55701">
        <ele>6.8</ele>
        <time>2021-04-27T14:04:54Z</time>
      </trkpt>
      <trkpt lat="46.32364" lon="-0.55701">
        <ele>6.8</ele>
        <time>2021-04-27T14:04:55Z</time>
      </trkpt>
      <trkpt lat="46.32363" lon="-0.55702">
        <ele>6.8</ele>
        <time>2021-04-27T14:04:56Z</time>
      </trkpt>
      <trkpt lat="46.32363" lon="-0.55702">
        <ele>6.8</ele>
        <time>2021-04-27T14:04:57Z</time>
      </trkpt>
      <trkpt lat="46.32363" lon="-0.55702">
        <ele>7</ele>
        <time>2021-04-27T14:04:58Z</time>
      </trkpt>
      <trkpt lat="46.32363" lon="-0.55703">
        <ele>7.2</ele>
        <time>2021-04-27T14:05:00Z</time>
      </trkpt>
      <trkpt lat="46.32363" lon="-0.55704">
        <ele>7.4</ele>
        <time>2021-04-27T14:05:01Z</time>
      </trkpt>
      <trkpt lat="46.32362" lon="-0.55706">
        <ele>7.4</ele>
        <time>2021-04-27T14:05:03Z</time>
      </trkpt>
      <trkpt lat="46.32362" lon="-0.55707">
        <ele>7.4</ele>
        <time>2021-04-27T14:05:04Z</time>
      </trkpt>
      <trkpt lat="46.32362" lon="-0.55708">
        <ele>7.4</ele>
        <time>2021-04-27T14:05:05Z</time>
      </trkpt>
      <trkpt lat="46.32362" lon="-0.5571">
        <ele>7.4</ele>
        <time>2021-04-27T14:05:06Z</time>
      </trkpt>
      <trkpt lat="46.32362" lon="-0.55711">
        <ele>7.4</ele>
        <time>2021-04-27T14:05:07Z</time>
      </trkpt>
      <trkpt lat="46.32362" lon="-0.55712">
        <ele>7.4</ele>
        <time>2021-04-27T14:05:08Z</time>
      </trkpt>
      <trkpt lat="46.32362" lon="-0.55717">
        <ele>7.4</ele>
        <time>2021-04-27T14:05:10Z</time>
      </trkpt>
      <trkpt lat="46.32363" lon="-0.55722">
        <ele>7.4</ele>
        <time>2021-04-27T14:05:12Z</time>
      </trkpt>
      <trkpt lat="46.32365" lon="-0.55727">
        <ele>7.4</ele>
        <time>2021-04-27T14:05:13Z</time>
      </trkpt>
      <trkpt lat="46.32367" lon="-0.55731">
        <ele>7.4</ele>
        <time>2021-04-27T14:05:14Z</time>
      </trkpt>
      <trkpt lat="46.32368" lon="-0.55739">
        <ele>7.4</ele>
        <time>2021-04-27T14:05:16Z</time>
      </trkpt>
      <trkpt lat="46.32369" lon="-0.55743">
        <ele>7.2</ele>
        <time>2021-04-27T14:05:17Z</time>
      </trkpt>
      <trkpt lat="46.3237" lon="-0.55746">
        <ele>7.2</ele>
        <time>2021-04-27T14:05:18Z</time>
      </trkpt>
      <trkpt lat="46.32371" lon="-0.5575">
        <ele>7.2</ele>
        <time>2021-04-27T14:05:19Z</time>
      </trkpt>
      <trkpt lat="46.32371" lon="-0.55754">
        <ele>7.2</ele>
        <time>2021-04-27T14:05:20Z</time>
      </trkpt>
      <trkpt lat="46.32373" lon="-0.55764">
        <ele>7.4</ele>
        <time>2021-04-27T14:05:23Z</time>
      </trkpt>
      <trkpt lat="46.32373" lon="-0.55767">
        <ele>7.2</ele>
        <time>2021-04-27T14:05:24Z</time>
      </trkpt>
      <trkpt lat="46.32375" lon="-0.55773">
        <ele>7.2</ele>
        <time>2021-04-27T14:05:25Z</time>
      </trkpt>
      <trkpt lat="46.32375" lon="-0.55774">
        <ele>7.2</ele>
        <time>2021-04-27T14:05:26Z</time>
      </trkpt>
      <trkpt lat="46.32375" lon="-0.55774">
        <ele>7.2</ele>
        <time>2021-04-27T14:05:27Z</time>
      </trkpt>
      <trkpt lat="46.32372" lon="-0.5578">
        <ele>7.2</ele>
        <time>2021-04-27T14:05:37Z</time>
      </trkpt>
      <trkpt lat="46.32363" lon="-0.55783">
        <ele>7.2</ele>
        <time>2021-04-27T14:05:39Z</time>
      </trkpt>
      <trkpt lat="46.32363" lon="-0.55783">
        <ele>7.2</ele>
        <time>2021-04-27T14:05:40Z</time>
      </trkpt>
      <trkpt lat="46.3236" lon="-0.55784">
        <ele>7.2</ele>
        <time>2021-04-27T14:05:41Z</time>
      </trkpt>
      <trkpt lat="46.3235" lon="-0.55783">
        <ele>7.2</ele>
        <time>2021-04-27T14:05:42Z</time>
      </trkpt>
      <trkpt lat="46.32346" lon="-0.55782">
        <ele>7.2</ele>
        <time>2021-04-27T14:05:44Z</time>
      </trkpt>
      <trkpt lat="46.32343" lon="-0.5578">
        <ele>7.2</ele>
        <time>2021-04-27T14:05:45Z</time>
      </trkpt>
      <trkpt lat="46.32339" lon="-0.55778">
        <ele>7.2</ele>
        <time>2021-04-27T14:05:46Z</time>
      </trkpt>
      <trkpt lat="46.32329" lon="-0.55768">
        <ele>7</ele>
        <time>2021-04-27T14:05:49Z</time>
      </trkpt>
      <trkpt lat="46.32323" lon="-0.55758">
        <ele>7</ele>
        <time>2021-04-27T14:05:51Z</time>
      </trkpt>
      <trkpt lat="46.32321" lon="-0.55753">
        <ele>7</ele>
        <time>2021-04-27T14:05:52Z</time>
      </trkpt>
      <trkpt lat="46.3232" lon="-0.55746">
        <ele>7</ele>
        <time>2021-04-27T14:05:53Z</time>
      </trkpt>
      <trkpt lat="46.32318" lon="-0.55739">
        <ele>7</ele>
        <time>2021-04-27T14:05:54Z</time>
      </trkpt>
      <trkpt lat="46.32305" lon="-0.55692">
        <ele>7</ele>
        <time>2021-04-27T14:05:59Z</time>
      </trkpt>
      <trkpt lat="46.323" lon="-0.55675">
        <ele>7</ele>
        <time>2021-04-27T14:06:02Z</time>
      </trkpt>
      <trkpt lat="46.32299" lon="-0.55667">
        <ele>7</ele>
        <time>2021-04-27T14:06:03Z</time>
      </trkpt>
      <trkpt lat="46.32296" lon="-0.55652">
        <ele>7</ele>
        <time>2021-04-27T14:06:04Z</time>
      </trkpt>
      <trkpt lat="46.32287" lon="-0.55609">
        <ele>7</ele>
        <time>2021-04-27T14:06:09Z</time>
      </trkpt>
      <trkpt lat="46.32274" lon="-0.55536">
        <ele>7</ele>
        <time>2021-04-27T14:06:17Z</time>
      </trkpt>
      <trkpt lat="46.32274" lon="-0.55536">
        <ele>7</ele>
        <time>2021-04-27T14:06:18Z</time>
      </trkpt>
      <trkpt lat="46.32277" lon="-0.55461">
        <ele>7</ele>
        <time>2021-04-27T14:06:25Z</time>
      </trkpt>
      <trkpt lat="46.3228" lon="-0.55384">
        <ele>6.8</ele>
        <time>2021-04-27T14:06:33Z</time>
      </trkpt>
      <trkpt lat="46.3228" lon="-0.55376">
        <ele>6.8</ele>
        <time>2021-04-27T14:06:34Z</time>
      </trkpt>
      <trkpt lat="46.3228" lon="-0.55376">
        <ele>6.8</ele>
        <time>2021-04-27T14:06:35Z</time>
      </trkpt>
      <trkpt lat="46.3228" lon="-0.55358">
        <ele>6.8</ele>
        <time>2021-04-27T14:06:36Z</time>
      </trkpt>
      <trkpt lat="46.32281" lon="-0.55349">
        <ele>6.8</ele>
        <time>2021-04-27T14:06:38Z</time>
      </trkpt>
      <trkpt lat="46.32281" lon="-0.5533">
        <ele>6.8</ele>
        <time>2021-04-27T14:06:39Z</time>
      </trkpt>
      <trkpt lat="46.32278" lon="-0.55298">
        <ele>6.8</ele>
        <time>2021-04-27T14:06:42Z</time>
      </trkpt>
      <trkpt lat="46.32276" lon="-0.55282">
        <ele>7.2</ele>
        <time>2021-04-27T14:06:45Z</time>
      </trkpt>
      <trkpt lat="46.32275" lon="-0.55272">
        <ele>7.2</ele>
        <time>2021-04-27T14:06:46Z</time>
      </trkpt>
      <trkpt lat="46.3227" lon="-0.55237">
        <ele>7.4</ele>
        <time>2021-04-27T14:06:49Z</time>
      </trkpt>
      <trkpt lat="46.32268" lon="-0.55229">
        <ele>7.4</ele>
        <time>2021-04-27T14:06:50Z</time>
      </trkpt>
      <trkpt lat="46.32266" lon="-0.55221">
        <ele>7.4</ele>
        <time>2021-04-27T14:06:51Z</time>
      </trkpt>
      <trkpt lat="46.32264" lon="-0.55215">
        <ele>7.4</ele>
        <time>2021-04-27T14:06:52Z</time>
      </trkpt>
      <trkpt lat="46.32263" lon="-0.5521">
        <ele>7.4</ele>
        <time>2021-04-27T14:06:53Z</time>
      </trkpt>
      <trkpt lat="46.32263" lon="-0.5521">
        <ele>7.6</ele>
        <time>2021-04-27T14:06:54Z</time>
      </trkpt>
      <trkpt lat="46.32261" lon="-0.55204">
        <ele>7.6</ele>
        <time>2021-04-27T14:06:55Z</time>
      </trkpt>
      <trkpt lat="46.32261" lon="-0.55201">
        <ele>7.6</ele>
        <time>2021-04-27T14:06:56Z</time>
      </trkpt>
      <trkpt lat="46.32261" lon="-0.55198">
        <ele>7.8</ele>
        <time>2021-04-27T14:06:57Z</time>
      </trkpt>
      <trkpt lat="46.32261" lon="-0.55197">
        <ele>7.8</ele>
        <time>2021-04-27T14:06:58Z</time>
      </trkpt>
      <trkpt lat="46.32261" lon="-0.55197">
        <ele>8</ele>
        <time>2021-04-27T14:06:59Z</time>
      </trkpt>
      <trkpt lat="46.32261" lon="-0.55197">
        <ele>8</ele>
        <time>2021-04-27T14:07:00Z</time>
      </trkpt>
      <trkpt lat="46.32261" lon="-0.55197">
        <ele>8.2</ele>
        <time>2021-04-27T14:07:01Z</time>
      </trkpt>
      <trkpt lat="46.3226" lon="-0.55191">
        <ele>8.6</ele>
        <time>2021-04-27T14:07:08Z</time>
      </trkpt>
      <trkpt lat="46.3226" lon="-0.55185">
        <ele>8.6</ele>
        <time>2021-04-27T14:07:11Z</time>
      </trkpt>
      <trkpt lat="46.32259" lon="-0.55183">
        <ele>8.4</ele>
        <time>2021-04-27T14:07:12Z</time>
      </trkpt>
      <trkpt lat="46.3226" lon="-0.5516">
        <ele>8</ele>
        <time>2021-04-27T14:07:21Z</time>
      </trkpt>
      <trkpt lat="46.32262" lon="-0.55147">
        <ele>8</ele>
        <time>2021-04-27T14:07:27Z</time>
      </trkpt>
      <trkpt lat="46.32262" lon="-0.55146">
        <ele>8</ele>
        <time>2021-04-27T14:07:28Z</time>
      </trkpt>
      <trkpt lat="46.32262" lon="-0.55146">
        <ele>8</ele>
        <time>2021-04-27T14:07:29Z</time>
      </trkpt>
      <trkpt lat="46.32263" lon="-0.55141">
        <ele>8</ele>
        <time>2021-04-27T14:07:30Z</time>
      </trkpt>
      <trkpt lat="46.32263" lon="-0.55139">
        <ele>8.2</ele>
        <time>2021-04-27T14:07:31Z</time>
      </trkpt>
      <trkpt lat="46.32264" lon="-0.55138">
        <ele>8.2</ele>
        <time>2021-04-27T14:07:32Z</time>
      </trkpt>
      <trkpt lat="46.32264" lon="-0.55136">
        <ele>8.2</ele>
        <time>2021-04-27T14:07:33Z</time>
      </trkpt>
      <trkpt lat="46.32264" lon="-0.55135">
        <ele>8.2</ele>
        <time>2021-04-27T14:07:34Z</time>
      </trkpt>
      <trkpt lat="46.32264" lon="-0.55135">
        <ele>8.2</ele>
        <time>2021-04-27T14:07:35Z</time>
      </trkpt>
      <trkpt lat="46.32264" lon="-0.55135">
        <ele>8.2</ele>
        <time>2021-04-27T14:07:36Z</time>
      </trkpt>
      <trkpt lat="46.32266" lon="-0.55127">
        <ele>8.4</ele>
        <time>2021-04-27T14:07:46Z</time>
      </trkpt>
      <trkpt lat="46.32266" lon="-0.55127">
        <ele>8.4</ele>
        <time>2021-04-27T14:07:47Z</time>
      </trkpt>
      <trkpt lat="46.32271" lon="-0.55098">
        <ele>8.4</ele>
        <time>2021-04-27T14:07:52Z</time>
      </trkpt>
      <trkpt lat="46.32276" lon="-0.55071">
        <ele>8.2</ele>
        <time>2021-04-27T14:07:57Z</time>
      </trkpt>
      <trkpt lat="46.32276" lon="-0.55071">
        <ele>8.4</ele>
        <time>2021-04-27T14:07:58Z</time>
      </trkpt>
      <trkpt lat="46.32277" lon="-0.55061">
        <ele>8</ele>
        <time>2021-04-27T14:07:59Z</time>
      </trkpt>
      <trkpt lat="46.32277" lon="-0.55056">
        <ele>8</ele>
        <time>2021-04-27T14:08:00Z</time>
      </trkpt>
      <trkpt lat="46.3228" lon="-0.55043">
        <ele>8</ele>
        <time>2021-04-27T14:08:02Z</time>
      </trkpt>
      <trkpt lat="46.32281" lon="-0.55035">
        <ele>8</ele>
        <time>2021-04-27T14:08:03Z</time>
      </trkpt>
      <trkpt lat="46.32282" lon="-0.5501">
        <ele>7.8</ele>
        <time>2021-04-27T14:08:06Z</time>
      </trkpt>
      <trkpt lat="46.32282" lon="-0.5501">
        <ele>7.6</ele>
        <time>2021-04-27T14:08:07Z</time>
      </trkpt>
      <trkpt lat="46.32284" lon="-0.54993">
        <ele>7.6</ele>
        <time>2021-04-27T14:08:08Z</time>
      </trkpt>
      <trkpt lat="46.32286" lon="-0.54985">
        <ele>7.4</ele>
        <time>2021-04-27T14:08:09Z</time>
      </trkpt>
      <trkpt lat="46.32289" lon="-0.54976">
        <ele>7.4</ele>
        <time>2021-04-27T14:08:10Z</time>
      </trkpt>
      <trkpt lat="46.32296" lon="-0.5496">
        <ele>7</ele>
        <time>2021-04-27T14:08:13Z</time>
      </trkpt>
      <trkpt lat="46.32306" lon="-0.54935">
        <ele>6.8</ele>
        <time>2021-04-27T14:08:15Z</time>
      </trkpt>
      <trkpt lat="46.32309" lon="-0.54927">
        <ele>6.8</ele>
        <time>2021-04-27T14:08:16Z</time>
      </trkpt>
      <trkpt lat="46.32313" lon="-0.54908">
        <ele>6.6</ele>
        <time>2021-04-27T14:08:18Z</time>
      </trkpt>
      <trkpt lat="46.32314" lon="-0.54871">
        <ele>6.4</ele>
        <time>2021-04-27T14:08:22Z</time>
      </trkpt>
      <trkpt lat="46.32312" lon="-0.54862">
        <ele>6.6</ele>
        <time>2021-04-27T14:08:23Z</time>
      </trkpt>
      <trkpt lat="46.32311" lon="-0.54852">
        <ele>6.4</ele>
        <time>2021-04-27T14:08:24Z</time>
      </trkpt>
      <trkpt lat="46.32308" lon="-0.54834">
        <ele>6.6</ele>
        <time>2021-04-27T14:08:26Z</time>
      </trkpt>
      <trkpt lat="46.32307" lon="-0.54823">
        <ele>6.4</ele>
        <time>2021-04-27T14:08:28Z</time>
      </trkpt>
      <trkpt lat="46.32306" lon="-0.54805">
        <ele>6.4</ele>
        <time>2021-04-27T14:08:29Z</time>
      </trkpt>
      <trkpt lat="46.32306" lon="-0.54796">
        <ele>6.4</ele>
        <time>2021-04-27T14:08:30Z</time>
      </trkpt>
      <trkpt lat="46.32308" lon="-0.54778">
        <ele>6.6</ele>
        <time>2021-04-27T14:08:32Z</time>
      </trkpt>
      <trkpt lat="46.3231" lon="-0.54763">
        <ele>6.6</ele>
        <time>2021-04-27T14:08:34Z</time>
      </trkpt>
      <trkpt lat="46.3231" lon="-0.54763">
        <ele>6.6</ele>
        <time>2021-04-27T14:08:35Z</time>
      </trkpt>
      <trkpt lat="46.32313" lon="-0.54748">
        <ele>6.6</ele>
        <time>2021-04-27T14:08:36Z</time>
      </trkpt>
      <trkpt lat="46.32315" lon="-0.54741">
        <ele>6.6</ele>
        <time>2021-04-27T14:08:37Z</time>
      </trkpt>
      <trkpt lat="46.32318" lon="-0.54734">
        <ele>6.6</ele>
        <time>2021-04-27T14:08:38Z</time>
      </trkpt>
      <trkpt lat="46.32322" lon="-0.54727">
        <ele>6.6</ele>
        <time>2021-04-27T14:08:39Z</time>
      </trkpt>
      <trkpt lat="46.32329" lon="-0.54715">
        <ele>6.4</ele>
        <time>2021-04-27T14:08:41Z</time>
      </trkpt>
      <trkpt lat="46.32332" lon="-0.54709">
        <ele>6.4</ele>
        <time>2021-04-27T14:08:42Z</time>
      </trkpt>
      <trkpt lat="46.32336" lon="-0.54703">
        <ele>6.4</ele>
        <time>2021-04-27T14:08:43Z</time>
      </trkpt>
      <trkpt lat="46.32339" lon="-0.54698">
        <ele>6.6</ele>
        <time>2021-04-27T14:08:44Z</time>
      </trkpt>
      <trkpt lat="46.32342" lon="-0.54693">
        <ele>6.6</ele>
        <time>2021-04-27T14:08:45Z</time>
      </trkpt>
      <trkpt lat="46.32342" lon="-0.54693">
        <ele>6.8</ele>
        <time>2021-04-27T14:08:46Z</time>
      </trkpt>
      <trkpt lat="46.32344" lon="-0.54688">
        <ele>6.8</ele>
        <time>2021-04-27T14:08:47Z</time>
      </trkpt>
      <trkpt lat="46.32346" lon="-0.54683">
        <ele>6.8</ele>
        <time>2021-04-27T14:08:48Z</time>
      </trkpt>
      <trkpt lat="46.32344" lon="-0.54675">
        <ele>7</ele>
        <time>2021-04-27T14:08:49Z</time>
      </trkpt>
      <trkpt lat="46.32342" lon="-0.54672">
        <ele>7</ele>
        <time>2021-04-27T14:08:50Z</time>
      </trkpt>
      <trkpt lat="46.32339" lon="-0.54668">
        <ele>7.2</ele>
        <time>2021-04-27T14:08:51Z</time>
      </trkpt>
      <trkpt lat="46.32331" lon="-0.54658">
        <ele>7.2</ele>
        <time>2021-04-27T14:08:53Z</time>
      </trkpt>
      <trkpt lat="46.32328" lon="-0.54652">
        <ele>7.2</ele>
        <time>2021-04-27T14:08:54Z</time>
      </trkpt>
      <trkpt lat="46.32327" lon="-0.54644">
        <ele>7.2</ele>
        <time>2021-04-27T14:08:55Z</time>
      </trkpt>
      <trkpt lat="46.32327" lon="-0.54636">
        <ele>7.2</ele>
        <time>2021-04-27T14:08:56Z</time>
      </trkpt>
      <trkpt lat="46.32327" lon="-0.54636">
        <ele>7.2</ele>
        <time>2021-04-27T14:08:57Z</time>
      </trkpt>
      <trkpt lat="46.3233" lon="-0.54616">
        <ele>7.2</ele>
        <time>2021-04-27T14:08:59Z</time>
      </trkpt>
      <trkpt lat="46.32331" lon="-0.54599">
        <ele>7.2</ele>
        <time>2021-04-27T14:09:00Z</time>
      </trkpt>
      <trkpt lat="46.3233" lon="-0.54591">
        <ele>7</ele>
        <time>2021-04-27T14:09:01Z</time>
      </trkpt>
      <trkpt lat="46.3233" lon="-0.54591">
        <ele>7.2</ele>
        <time>2021-04-27T14:09:02Z</time>
      </trkpt>
      <trkpt lat="46.32325" lon="-0.54579">
        <ele>7.2</ele>
        <time>2021-04-27T14:09:03Z</time>
      </trkpt>
      <trkpt lat="46.32322" lon="-0.54576">
        <ele>7</ele>
        <time>2021-04-27T14:09:04Z</time>
      </trkpt>
      <trkpt lat="46.32317" lon="-0.54574">
        <ele>7</ele>
        <time>2021-04-27T14:09:05Z</time>
      </trkpt>
      <trkpt lat="46.32312" lon="-0.54574">
        <ele>7</ele>
        <time>2021-04-27T14:09:06Z</time>
      </trkpt>
      <trkpt lat="46.32306" lon="-0.54572">
        <ele>6.8</ele>
        <time>2021-04-27T14:09:08Z</time>
      </trkpt>
      <trkpt lat="46.32294" lon="-0.5457">
        <ele>6.8</ele>
        <time>2021-04-27T14:09:09Z</time>
      </trkpt>
      <trkpt lat="46.32255" lon="-0.54562">
        <ele>6.6</ele>
        <time>2021-04-27T14:09:16Z</time>
      </trkpt>
      <trkpt lat="46.32201" lon="-0.54546">
        <ele>6.8</ele>
        <time>2021-04-27T14:09:23Z</time>
      </trkpt>
      <trkpt lat="46.32186" lon="-0.54541">
        <ele>6.8</ele>
        <time>2021-04-27T14:09:25Z</time>
      </trkpt>
      <trkpt lat="46.32174" lon="-0.54543">
        <ele>6.8</ele>
        <time>2021-04-27T14:09:27Z</time>
      </trkpt>
      <trkpt lat="46.32119" lon="-0.54556">
        <ele>7</ele>
        <time>2021-04-27T14:09:35Z</time>
      </trkpt>
      <trkpt lat="46.32106" lon="-0.54558">
        <ele>7</ele>
        <time>2021-04-27T14:09:37Z</time>
      </trkpt>
      <trkpt lat="46.32074" lon="-0.54567">
        <ele>7.8</ele>
        <time>2021-04-27T14:09:42Z</time>
      </trkpt>
      <trkpt lat="46.32055" lon="-0.54572">
        <ele>8.2</ele>
        <time>2021-04-27T14:09:45Z</time>
      </trkpt>
      <trkpt lat="46.32036" lon="-0.54578">
        <ele>8.4</ele>
        <time>2021-04-27T14:09:48Z</time>
      </trkpt>
      <trkpt lat="46.31983" lon="-0.54587">
        <ele>9</ele>
        <time>2021-04-27T14:09:56Z</time>
      </trkpt>
      <trkpt lat="46.31977" lon="-0.54587">
        <ele>9</ele>
        <time>2021-04-27T14:09:57Z</time>
      </trkpt>
      <trkpt lat="46.31957" lon="-0.54585">
        <ele>9.2</ele>
        <time>2021-04-27T14:10:00Z</time>
      </trkpt>
      <trkpt lat="46.31951" lon="-0.54584">
        <ele>9.4</ele>
        <time>2021-04-27T14:10:01Z</time>
      </trkpt>
      <trkpt lat="46.31903" lon="-0.54587">
        <ele>9.8</ele>
        <time>2021-04-27T14:10:09Z</time>
      </trkpt>
      <trkpt lat="46.31886" lon="-0.54589">
        <ele>9.8</ele>
        <time>2021-04-27T14:10:12Z</time>
      </trkpt>
      <trkpt lat="46.31881" lon="-0.54589">
        <ele>10</ele>
        <time>2021-04-27T14:10:13Z</time>
      </trkpt>
      <trkpt lat="46.31871" lon="-0.54588">
        <ele>10</ele>
        <time>2021-04-27T14:10:14Z</time>
      </trkpt>
      <trkpt lat="46.31868" lon="-0.54586">
        <ele>10</ele>
        <time>2021-04-27T14:10:15Z</time>
      </trkpt>
      <trkpt lat="46.31868" lon="-0.54586">
        <ele>10.2</ele>
        <time>2021-04-27T14:10:16Z</time>
      </trkpt>
      <trkpt lat="46.31864" lon="-0.54582">
        <ele>10.4</ele>
        <time>2021-04-27T14:10:17Z</time>
      </trkpt>
      <trkpt lat="46.31859" lon="-0.54577">
        <ele>10.4</ele>
        <time>2021-04-27T14:10:18Z</time>
      </trkpt>
      <trkpt lat="46.31848" lon="-0.5457">
        <ele>10.2</ele>
        <time>2021-04-27T14:10:19Z</time>
      </trkpt>
      <trkpt lat="46.31841" lon="-0.54568">
        <ele>10.2</ele>
        <time>2021-04-27T14:10:21Z</time>
      </trkpt>
      <trkpt lat="46.31789" lon="-0.54557">
        <ele>10.4</ele>
        <time>2021-04-27T14:10:29Z</time>
      </trkpt>
      <trkpt lat="46.31736" lon="-0.5455">
        <ele>10.4</ele>
        <time>2021-04-27T14:10:36Z</time>
      </trkpt>
      <trkpt lat="46.3173" lon="-0.5455">
        <ele>10.4</ele>
        <time>2021-04-27T14:10:37Z</time>
      </trkpt>
      <trkpt lat="46.31698" lon="-0.54547">
        <ele>10.4</ele>
        <time>2021-04-27T14:10:43Z</time>
      </trkpt>
      <trkpt lat="46.31672" lon="-0.54546">
        <ele>10.4</ele>
        <time>2021-04-27T14:10:46Z</time>
      </trkpt>
      <trkpt lat="46.31665" lon="-0.54546">
        <ele>10.4</ele>
        <time>2021-04-27T14:10:47Z</time>
      </trkpt>
      <trkpt lat="46.31658" lon="-0.54545">
        <ele>10.4</ele>
        <time>2021-04-27T14:10:48Z</time>
      </trkpt>
      <trkpt lat="46.31651" lon="-0.54543">
        <ele>10.4</ele>
        <time>2021-04-27T14:10:49Z</time>
      </trkpt>
      <trkpt lat="46.31638" lon="-0.5454">
        <ele>10.4</ele>
        <time>2021-04-27T14:10:51Z</time>
      </trkpt>
      <trkpt lat="46.31625" lon="-0.54542">
        <ele>10.6</ele>
        <time>2021-04-27T14:10:53Z</time>
      </trkpt>
      <trkpt lat="46.31619" lon="-0.54546">
        <ele>10.6</ele>
        <time>2021-04-27T14:10:55Z</time>
      </trkpt>
      <trkpt lat="46.31608" lon="-0.54556">
        <ele>10.6</ele>
        <time>2021-04-27T14:10:56Z</time>
      </trkpt>
      <trkpt lat="46.31603" lon="-0.54562">
        <ele>10.6</ele>
        <time>2021-04-27T14:10:57Z</time>
      </trkpt>
      <trkpt lat="46.31603" lon="-0.54562">
        <ele>10.6</ele>
        <time>2021-04-27T14:10:58Z</time>
      </trkpt>
      <trkpt lat="46.31577" lon="-0.54591">
        <ele>11</ele>
        <time>2021-04-27T14:11:02Z</time>
      </trkpt>
      <trkpt lat="46.31571" lon="-0.54595">
        <ele>11.2</ele>
        <time>2021-04-27T14:11:04Z</time>
      </trkpt>
      <trkpt lat="46.31559" lon="-0.54602">
        <ele>11.2</ele>
        <time>2021-04-27T14:11:05Z</time>
      </trkpt>
      <trkpt lat="46.31541" lon="-0.54611">
        <ele>11.2</ele>
        <time>2021-04-27T14:11:08Z</time>
      </trkpt>
      <trkpt lat="46.31541" lon="-0.54611">
        <ele>11.2</ele>
        <time>2021-04-27T14:11:09Z</time>
      </trkpt>
      <trkpt lat="46.31531" lon="-0.54618">
        <ele>11.4</ele>
        <time>2021-04-27T14:11:10Z</time>
      </trkpt>
      <trkpt lat="46.31527" lon="-0.54621">
        <ele>11.4</ele>
        <time>2021-04-27T14:11:11Z</time>
      </trkpt>
      <trkpt lat="46.31527" lon="-0.54621">
        <ele>11.4</ele>
        <time>2021-04-27T14:11:12Z</time>
      </trkpt>
      <trkpt lat="46.31522" lon="-0.54624">
        <ele>11.4</ele>
        <time>2021-04-27T14:11:13Z</time>
      </trkpt>
      <trkpt lat="46.31521" lon="-0.54625">
        <ele>11.4</ele>
        <time>2021-04-27T14:11:14Z</time>
      </trkpt>
      <trkpt lat="46.31521" lon="-0.54625">
        <ele>11.4</ele>
        <time>2021-04-27T14:11:15Z</time>
      </trkpt>
      <trkpt lat="46.3152" lon="-0.54625">
        <ele>11.6</ele>
        <time>2021-04-27T14:11:17Z</time>
      </trkpt>
      <trkpt lat="46.31513" lon="-0.54624">
        <ele>12.2</ele>
        <time>2021-04-27T14:11:23Z</time>
      </trkpt>
      <trkpt lat="46.31492" lon="-0.54622">
        <ele>12.4</ele>
        <time>2021-04-27T14:11:26Z</time>
      </trkpt>
      <trkpt lat="46.31459" lon="-0.54614">
        <ele>12.4</ele>
        <time>2021-04-27T14:11:31Z</time>
      </trkpt>
      <trkpt lat="46.31459" lon="-0.54614">
        <ele>12.2</ele>
        <time>2021-04-27T14:11:32Z</time>
      </trkpt>
      <trkpt lat="46.31411" lon="-0.54602">
        <ele>11.4</ele>
        <time>2021-04-27T14:11:38Z</time>
      </trkpt>
      <trkpt lat="46.31399" lon="-0.54598">
        <ele>11.4</ele>
        <time>2021-04-27T14:11:40Z</time>
      </trkpt>
      <trkpt lat="46.31346" lon="-0.54587">
        <ele>10.8</ele>
        <time>2021-04-27T14:11:48Z</time>
      </trkpt>
      <trkpt lat="46.31329" lon="-0.54582">
        <ele>10.8</ele>
        <time>2021-04-27T14:11:51Z</time>
      </trkpt>
      <trkpt lat="46.31329" lon="-0.54582">
        <ele>10.8</ele>
        <time>2021-04-27T14:11:52Z</time>
      </trkpt>
      <trkpt lat="46.31325" lon="-0.5458">
        <ele>10.8</ele>
        <time>2021-04-27T14:11:53Z</time>
      </trkpt>
      <trkpt lat="46.31321" lon="-0.54579">
        <ele>10.8</ele>
        <time>2021-04-27T14:11:54Z</time>
      </trkpt>
      <trkpt lat="46.31316" lon="-0.54577">
        <ele>10.6</ele>
        <time>2021-04-27T14:11:55Z</time>
      </trkpt>
      <trkpt lat="46.31316" lon="-0.54577">
        <ele>10.6</ele>
        <time>2021-04-27T14:11:56Z</time>
      </trkpt>
      <trkpt lat="46.31311" lon="-0.54572">
        <ele>10.6</ele>
        <time>2021-04-27T14:11:57Z</time>
      </trkpt>
      <trkpt lat="46.31311" lon="-0.54572">
        <ele>10.6</ele>
        <time>2021-04-27T14:11:58Z</time>
      </trkpt>
      <trkpt lat="46.31307" lon="-0.54563">
        <ele>10.6</ele>
        <time>2021-04-27T14:11:59Z</time>
      </trkpt>
      <trkpt lat="46.31304" lon="-0.54558">
        <ele>10.6</ele>
        <time>2021-04-27T14:12:00Z</time>
      </trkpt>
      <trkpt lat="46.31304" lon="-0.54558">
        <ele>10.4</ele>
        <time>2021-04-27T14:12:01Z</time>
      </trkpt>
      <trkpt lat="46.31294" lon="-0.5455">
        <ele>10.4</ele>
        <time>2021-04-27T14:12:02Z</time>
      </trkpt>
      <trkpt lat="46.31288" lon="-0.54548">
        <ele>10.2</ele>
        <time>2021-04-27T14:12:03Z</time>
      </trkpt>
      <trkpt lat="46.31288" lon="-0.54548">
        <ele>10</ele>
        <time>2021-04-27T14:12:04Z</time>
      </trkpt>
      <trkpt lat="46.31282" lon="-0.54547">
        <ele>10</ele>
        <time>2021-04-27T14:12:05Z</time>
      </trkpt>
      <trkpt lat="46.31277" lon="-0.54547">
        <ele>10</ele>
        <time>2021-04-27T14:12:06Z</time>
      </trkpt>
      <trkpt lat="46.31262" lon="-0.54546">
        <ele>9.8</ele>
        <time>2021-04-27T14:12:07Z</time>
      </trkpt>
      <trkpt lat="46.31239" lon="-0.54541">
        <ele>9.6</ele>
        <time>2021-04-27T14:12:11Z</time>
      </trkpt>
      <trkpt lat="46.31233" lon="-0.54539">
        <ele>9.6</ele>
        <time>2021-04-27T14:12:12Z</time>
      </trkpt>
      <trkpt lat="46.31228" lon="-0.54537">
        <ele>9.6</ele>
        <time>2021-04-27T14:12:13Z</time>
      </trkpt>
      <trkpt lat="46.31228" lon="-0.54537">
        <ele>9.6</ele>
        <time>2021-04-27T14:12:14Z</time>
      </trkpt>
      <trkpt lat="46.31224" lon="-0.54536">
        <ele>9.6</ele>
        <time>2021-04-27T14:12:15Z</time>
      </trkpt>
      <trkpt lat="46.31215" lon="-0.54533">
        <ele>9.6</ele>
        <time>2021-04-27T14:12:16Z</time>
      </trkpt>
      <trkpt lat="46.31212" lon="-0.54531">
        <ele>9.6</ele>
        <time>2021-04-27T14:12:17Z</time>
      </trkpt>
      <trkpt lat="46.31209" lon="-0.54529">
        <ele>9.8</ele>
        <time>2021-04-27T14:12:18Z</time>
      </trkpt>
      <trkpt lat="46.31206" lon="-0.54527">
        <ele>10</ele>
        <time>2021-04-27T14:12:19Z</time>
      </trkpt>
      <trkpt lat="46.31189" lon="-0.5452">
        <ele>11.2</ele>
        <time>2021-04-27T14:12:22Z</time>
      </trkpt>
      <trkpt lat="46.31157" lon="-0.54508">
        <ele>11.6</ele>
        <time>2021-04-27T14:12:27Z</time>
      </trkpt>
      <trkpt lat="46.31157" lon="-0.54508">
        <ele>11.6</ele>
        <time>2021-04-27T14:12:28Z</time>
      </trkpt>
      <trkpt lat="46.31116" lon="-0.54495">
        <ele>11.2</ele>
        <time>2021-04-27T14:12:34Z</time>
      </trkpt>
      <trkpt lat="46.31103" lon="-0.5449">
        <ele>10.6</ele>
        <time>2021-04-27T14:12:35Z</time>
      </trkpt>
      <trkpt lat="46.31097" lon="-0.54488">
        <ele>10.4</ele>
        <time>2021-04-27T14:12:36Z</time>
      </trkpt>
      <trkpt lat="46.31097" lon="-0.54488">
        <ele>10.2</ele>
        <time>2021-04-27T14:12:37Z</time>
      </trkpt>
      <trkpt lat="46.31086" lon="-0.54485">
        <ele>10</ele>
        <time>2021-04-27T14:12:38Z</time>
      </trkpt>
      <trkpt lat="46.31086" lon="-0.54485">
        <ele>10</ele>
        <time>2021-04-27T14:12:39Z</time>
      </trkpt>
      <trkpt lat="46.31078" lon="-0.54474">
        <ele>9.8</ele>
        <time>2021-04-27T14:12:40Z</time>
      </trkpt>
      <trkpt lat="46.31078" lon="-0.54466">
        <ele>9.8</ele>
        <time>2021-04-27T14:12:41Z</time>
      </trkpt>
      <trkpt lat="46.31078" lon="-0.54437">
        <ele>8.8</ele>
        <time>2021-04-27T14:12:44Z</time>
      </trkpt>
      <trkpt lat="46.31079" lon="-0.54427">
        <ele>9</ele>
        <time>2021-04-27T14:12:45Z</time>
      </trkpt>
      <trkpt lat="46.31082" lon="-0.54408">
        <ele>8.6</ele>
        <time>2021-04-27T14:12:47Z</time>
      </trkpt>
      <trkpt lat="46.31084" lon="-0.54399">
        <ele>8.6</ele>
        <time>2021-04-27T14:12:49Z</time>
      </trkpt>
      <trkpt lat="46.31088" lon="-0.54381">
        <ele>8.6</ele>
        <time>2021-04-27T14:12:50Z</time>
      </trkpt>
      <trkpt lat="46.3109" lon="-0.54362">
        <ele>8.6</ele>
        <time>2021-04-27T14:12:52Z</time>
      </trkpt>
      <trkpt lat="46.31089" lon="-0.54343">
        <ele>8.6</ele>
        <time>2021-04-27T14:12:54Z</time>
      </trkpt>
      <trkpt lat="46.31086" lon="-0.54324">
        <ele>8.6</ele>
        <time>2021-04-27T14:12:56Z</time>
      </trkpt>
      <trkpt lat="46.31076" lon="-0.54289">
        <ele>8.4</ele>
        <time>2021-04-27T14:13:00Z</time>
      </trkpt>
      <trkpt lat="46.3105" lon="-0.54211">
        <ele>8.2</ele>
        <time>2021-04-27T14:13:09Z</time>
      </trkpt>
      <trkpt lat="46.31048" lon="-0.54204">
        <ele>8.2</ele>
        <time>2021-04-27T14:13:10Z</time>
      </trkpt>
      <trkpt lat="46.31026" lon="-0.54144">
        <ele>8.2</ele>
        <time>2021-04-27T14:13:17Z</time>
      </trkpt>
      <trkpt lat="46.31024" lon="-0.54135">
        <ele>8.2</ele>
        <time>2021-04-27T14:13:18Z</time>
      </trkpt>
      <trkpt lat="46.31011" lon="-0.54071">
        <ele>8.6</ele>
        <time>2021-04-27T14:13:25Z</time>
      </trkpt>
      <trkpt lat="46.30998" lon="-0.53996">
        <ele>8.8</ele>
        <time>2021-04-27T14:13:33Z</time>
      </trkpt>
      <trkpt lat="46.30993" lon="-0.53978">
        <ele>8.6</ele>
        <time>2021-04-27T14:13:35Z</time>
      </trkpt>
      <trkpt lat="46.30981" lon="-0.53934">
        <ele>7.8</ele>
        <time>2021-04-27T14:13:40Z</time>
      </trkpt>
      <trkpt lat="46.30978" lon="-0.53925">
        <ele>7.8</ele>
        <time>2021-04-27T14:13:41Z</time>
      </trkpt>
      <trkpt lat="46.30954" lon="-0.53858">
        <ele>7.4</ele>
        <time>2021-04-27T14:13:49Z</time>
      </trkpt>
      <trkpt lat="46.30938" lon="-0.53828">
        <ele>7.4</ele>
        <time>2021-04-27T14:13:54Z</time>
      </trkpt>
      <trkpt lat="46.30929" lon="-0.53814">
        <ele>7.4</ele>
        <time>2021-04-27T14:13:55Z</time>
      </trkpt>
      <trkpt lat="46.30924" lon="-0.53807">
        <ele>7.4</ele>
        <time>2021-04-27T14:13:56Z</time>
      </trkpt>
      <trkpt lat="46.309" lon="-0.53775">
        <ele>7.2</ele>
        <time>2021-04-27T14:14:01Z</time>
      </trkpt>
      <trkpt lat="46.30878" lon="-0.53742">
        <ele>7</ele>
        <time>2021-04-27T14:14:06Z</time>
      </trkpt>
      <trkpt lat="46.3087" lon="-0.53729">
        <ele>7</ele>
        <time>2021-04-27T14:14:08Z</time>
      </trkpt>
      <trkpt lat="46.30868" lon="-0.53722">
        <ele>7</ele>
        <time>2021-04-27T14:14:09Z</time>
      </trkpt>
      <trkpt lat="46.30868" lon="-0.53714">
        <ele>7</ele>
        <time>2021-04-27T14:14:10Z</time>
      </trkpt>
      <trkpt lat="46.30869" lon="-0.53708">
        <ele>7</ele>
        <time>2021-04-27T14:14:11Z</time>
      </trkpt>
      <trkpt lat="46.30869" lon="-0.53708">
        <ele>7</ele>
        <time>2021-04-27T14:14:12Z</time>
      </trkpt>
      <trkpt lat="46.3087" lon="-0.53699">
        <ele>7.2</ele>
        <time>2021-04-27T14:14:13Z</time>
      </trkpt>
      <trkpt lat="46.30871" lon="-0.53695">
        <ele>7.2</ele>
        <time>2021-04-27T14:14:14Z</time>
      </trkpt>
      <trkpt lat="46.30871" lon="-0.53695">
        <ele>7.4</ele>
        <time>2021-04-27T14:14:15Z</time>
      </trkpt>
      <trkpt lat="46.30872" lon="-0.53689">
        <ele>7.6</ele>
        <time>2021-04-27T14:14:16Z</time>
      </trkpt>
      <trkpt lat="46.30872" lon="-0.53686">
        <ele>7.6</ele>
        <time>2021-04-27T14:14:17Z</time>
      </trkpt>
      <trkpt lat="46.30872" lon="-0.53683">
        <ele>7.8</ele>
        <time>2021-04-27T14:14:18Z</time>
      </trkpt>
      <trkpt lat="46.30872" lon="-0.5368">
        <ele>7.8</ele>
        <time>2021-04-27T14:14:19Z</time>
      </trkpt>
      <trkpt lat="46.30874" lon="-0.53674">
        <ele>8</ele>
        <time>2021-04-27T14:14:21Z</time>
      </trkpt>
      <trkpt lat="46.30874" lon="-0.53674">
        <ele>8</ele>
        <time>2021-04-27T14:14:22Z</time>
      </trkpt>
      <trkpt lat="46.30873" lon="-0.53672">
        <ele>8.2</ele>
        <time>2021-04-27T14:14:23Z</time>
      </trkpt>
      <trkpt lat="46.30873" lon="-0.53671">
        <ele>8.2</ele>
        <time>2021-04-27T14:14:24Z</time>
      </trkpt>
      <trkpt lat="46.30874" lon="-0.5367">
        <ele>8.4</ele>
        <time>2021-04-27T14:14:25Z</time>
      </trkpt>
      <trkpt lat="46.30874" lon="-0.5367">
        <ele>8.4</ele>
        <time>2021-04-27T14:14:26Z</time>
      </trkpt>
      <trkpt lat="46.30874" lon="-0.53659">
        <ele>8.6</ele>
        <time>2021-04-27T14:14:31Z</time>
      </trkpt>
      <trkpt lat="46.30875" lon="-0.53647">
        <ele>8.6</ele>
        <time>2021-04-27T14:14:32Z</time>
      </trkpt>
      <trkpt lat="46.30875" lon="-0.53637">
        <ele>8.6</ele>
        <time>2021-04-27T14:14:33Z</time>
      </trkpt>
      <trkpt lat="46.30874" lon="-0.53616">
        <ele>8.6</ele>
        <time>2021-04-27T14:14:37Z</time>
      </trkpt>
      <trkpt lat="46.30873" lon="-0.536">
        <ele>8.6</ele>
        <time>2021-04-27T14:14:38Z</time>
      </trkpt>
      <trkpt lat="46.30873" lon="-0.53591">
        <ele>8.2</ele>
        <time>2021-04-27T14:14:39Z</time>
      </trkpt>
      <trkpt lat="46.30877" lon="-0.53544">
        <ele>7.2</ele>
        <time>2021-04-27T14:14:45Z</time>
      </trkpt>
      <trkpt lat="46.30876" lon="-0.53524">
        <ele>7</ele>
        <time>2021-04-27T14:14:46Z</time>
      </trkpt>
      <trkpt lat="46.30876" lon="-0.53505">
        <ele>6.8</ele>
        <time>2021-04-27T14:14:48Z</time>
      </trkpt>
      <trkpt lat="46.30876" lon="-0.53496">
        <ele>6.8</ele>
        <time>2021-04-27T14:14:49Z</time>
      </trkpt>
      <trkpt lat="46.30876" lon="-0.53477">
        <ele>6.8</ele>
        <time>2021-04-27T14:14:51Z</time>
      </trkpt>
      <trkpt lat="46.30876" lon="-0.53477">
        <ele>6.8</ele>
        <time>2021-04-27T14:14:52Z</time>
      </trkpt>
      <trkpt lat="46.30879" lon="-0.53456">
        <ele>6.8</ele>
        <time>2021-04-27T14:14:53Z</time>
      </trkpt>
      <trkpt lat="46.30879" lon="-0.53444">
        <ele>6.8</ele>
        <time>2021-04-27T14:14:54Z</time>
      </trkpt>
      <trkpt lat="46.30881" lon="-0.53424">
        <ele>6.8</ele>
        <time>2021-04-27T14:14:56Z</time>
      </trkpt>
      <trkpt lat="46.3089" lon="-0.53352">
        <ele>7</ele>
        <time>2021-04-27T14:15:03Z</time>
      </trkpt>
      <trkpt lat="46.3089" lon="-0.53338">
        <ele>7</ele>
        <time>2021-04-27T14:15:05Z</time>
      </trkpt>
      <trkpt lat="46.3089" lon="-0.53334">
        <ele>7</ele>
        <time>2021-04-27T14:15:06Z</time>
      </trkpt>
      <trkpt lat="46.3089" lon="-0.53331">
        <ele>7</ele>
        <time>2021-04-27T14:15:07Z</time>
      </trkpt>
      <trkpt lat="46.3089" lon="-0.53331">
        <ele>7</ele>
        <time>2021-04-27T14:15:08Z</time>
      </trkpt>
      <trkpt lat="46.3089" lon="-0.5333">
        <ele>7</ele>
        <time>2021-04-27T14:15:09Z</time>
      </trkpt>
      <trkpt lat="46.3089" lon="-0.53329">
        <ele>7.2</ele>
        <time>2021-04-27T14:15:10Z</time>
      </trkpt>
      <trkpt lat="46.30891" lon="-0.53325">
        <ele>9.2</ele>
        <time>2021-04-27T14:15:27Z</time>
      </trkpt>
      <trkpt lat="46.30901" lon="-0.53309">
        <ele>9.2</ele>
        <time>2021-04-27T14:15:30Z</time>
      </trkpt>
      <trkpt lat="46.30905" lon="-0.53302">
        <ele>9.2</ele>
        <time>2021-04-27T14:15:31Z</time>
      </trkpt>
      <trkpt lat="46.3092" lon="-0.53281">
        <ele>9</ele>
        <time>2021-04-27T14:15:34Z</time>
      </trkpt>
      <trkpt lat="46.30935" lon="-0.5325">
        <ele>8.4</ele>
        <time>2021-04-27T14:15:38Z</time>
      </trkpt>
      <trkpt lat="46.30941" lon="-0.53233">
        <ele>8</ele>
        <time>2021-04-27T14:15:40Z</time>
      </trkpt>
      <trkpt lat="46.3095" lon="-0.53177">
        <ele>7.8</ele>
        <time>2021-04-27T14:15:47Z</time>
      </trkpt>
      <trkpt lat="46.30962" lon="-0.53113">
        <ele>7.8</ele>
        <time>2021-04-27T14:15:54Z</time>
      </trkpt>
      <trkpt lat="46.30984" lon="-0.53033">
        <ele>8</ele>
        <time>2021-04-27T14:16:02Z</time>
      </trkpt>
      <trkpt lat="46.31002" lon="-0.52953">
        <ele>8.6</ele>
        <time>2021-04-27T14:16:11Z</time>
      </trkpt>
      <trkpt lat="46.31004" lon="-0.52944">
        <ele>8.2</ele>
        <time>2021-04-27T14:16:12Z</time>
      </trkpt>
      <trkpt lat="46.31016" lon="-0.52861">
        <ele>8.2</ele>
        <time>2021-04-27T14:16:21Z</time>
      </trkpt>
      <trkpt lat="46.31019" lon="-0.52842">
        <ele>8.2</ele>
        <time>2021-04-27T14:16:24Z</time>
      </trkpt>
      <trkpt lat="46.3103" lon="-0.52777">
        <ele>7.8</ele>
        <time>2021-04-27T14:16:30Z</time>
      </trkpt>
      <trkpt lat="46.31033" lon="-0.52749">
        <ele>7.8</ele>
        <time>2021-04-27T14:16:33Z</time>
      </trkpt>
      <trkpt lat="46.31037" lon="-0.52721">
        <ele>7.8</ele>
        <time>2021-04-27T14:16:36Z</time>
      </trkpt>
      <trkpt lat="46.31044" lon="-0.52666">
        <ele>7.8</ele>
        <time>2021-04-27T14:16:42Z</time>
      </trkpt>
      <trkpt lat="46.31045" lon="-0.52658">
        <ele>7.8</ele>
        <time>2021-04-27T14:16:43Z</time>
      </trkpt>
      <trkpt lat="46.31046" lon="-0.52651">
        <ele>7.8</ele>
        <time>2021-04-27T14:16:44Z</time>
      </trkpt>
      <trkpt lat="46.31047" lon="-0.52646">
        <ele>8</ele>
        <time>2021-04-27T14:16:45Z</time>
      </trkpt>
      <trkpt lat="46.31049" lon="-0.52642">
        <ele>8</ele>
        <time>2021-04-27T14:16:46Z</time>
      </trkpt>
      <trkpt lat="46.3105" lon="-0.52638">
        <ele>8</ele>
        <time>2021-04-27T14:16:47Z</time>
      </trkpt>
      <trkpt lat="46.3105" lon="-0.52638">
        <ele>8</ele>
        <time>2021-04-27T14:16:48Z</time>
      </trkpt>
      <trkpt lat="46.31052" lon="-0.52633">
        <ele>8.2</ele>
        <time>2021-04-27T14:16:49Z</time>
      </trkpt>
      <trkpt lat="46.31052" lon="-0.52619">
        <ele>8.4</ele>
        <time>2021-04-27T14:16:50Z</time>
      </trkpt>
      <trkpt lat="46.31052" lon="-0.52619">
        <ele>8.4</ele>
        <time>2021-04-27T14:16:51Z</time>
      </trkpt>
      <trkpt lat="46.31053" lon="-0.52601">
        <ele>8.4</ele>
        <time>2021-04-27T14:16:52Z</time>
      </trkpt>
      <trkpt lat="46.31054" lon="-0.52592">
        <ele>8.8</ele>
        <time>2021-04-27T14:16:54Z</time>
      </trkpt>
      <trkpt lat="46.31065" lon="-0.52547">
        <ele>9</ele>
        <time>2021-04-27T14:16:58Z</time>
      </trkpt>
      <trkpt lat="46.31072" lon="-0.52523">
        <ele>9</ele>
        <time>2021-04-27T14:17:01Z</time>
      </trkpt>
      <trkpt lat="46.31074" lon="-0.52516">
        <ele>9</ele>
        <time>2021-04-27T14:17:02Z</time>
      </trkpt>
      <trkpt lat="46.31076" lon="-0.52509">
        <ele>9</ele>
        <time>2021-04-27T14:17:03Z</time>
      </trkpt>
      <trkpt lat="46.31078" lon="-0.52501">
        <ele>8.8</ele>
        <time>2021-04-27T14:17:04Z</time>
      </trkpt>
      <trkpt lat="46.3108" lon="-0.52493">
        <ele>8.6</ele>
        <time>2021-04-27T14:17:05Z</time>
      </trkpt>
      <trkpt lat="46.31081" lon="-0.52485">
        <ele>8.6</ele>
        <time>2021-04-27T14:17:06Z</time>
      </trkpt>
      <trkpt lat="46.31086" lon="-0.52463">
        <ele>8.6</ele>
        <time>2021-04-27T14:17:09Z</time>
      </trkpt>
      <trkpt lat="46.31087" lon="-0.52456">
        <ele>8.6</ele>
        <time>2021-04-27T14:17:10Z</time>
      </trkpt>
      <trkpt lat="46.31088" lon="-0.5245">
        <ele>8.6</ele>
        <time>2021-04-27T14:17:11Z</time>
      </trkpt>
      <trkpt lat="46.31089" lon="-0.52446">
        <ele>8.6</ele>
        <time>2021-04-27T14:17:12Z</time>
      </trkpt>
      <trkpt lat="46.31089" lon="-0.52446">
        <ele>8.6</ele>
        <time>2021-04-27T14:17:13Z</time>
      </trkpt>
      <trkpt lat="46.31093" lon="-0.52434">
        <ele>8.6</ele>
        <time>2021-04-27T14:17:14Z</time>
      </trkpt>
      <trkpt lat="46.31095" lon="-0.52428">
        <ele>8.6</ele>
        <time>2021-04-27T14:17:15Z</time>
      </trkpt>
      <trkpt lat="46.31104" lon="-0.52395">
        <ele>9</ele>
        <time>2021-04-27T14:17:19Z</time>
      </trkpt>
      <trkpt lat="46.31106" lon="-0.52387">
        <ele>9.2</ele>
        <time>2021-04-27T14:17:20Z</time>
      </trkpt>
      <trkpt lat="46.31115" lon="-0.52363">
        <ele>9.2</ele>
        <time>2021-04-27T14:17:23Z</time>
      </trkpt>
      <trkpt lat="46.31122" lon="-0.52346">
        <ele>9.4</ele>
        <time>2021-04-27T14:17:25Z</time>
      </trkpt>
      <trkpt lat="46.31125" lon="-0.5234">
        <ele>9.4</ele>
        <time>2021-04-27T14:17:26Z</time>
      </trkpt>
      <trkpt lat="46.31127" lon="-0.52334">
        <ele>9.6</ele>
        <time>2021-04-27T14:17:27Z</time>
      </trkpt>
      <trkpt lat="46.3113" lon="-0.52326">
        <ele>9.6</ele>
        <time>2021-04-27T14:17:28Z</time>
      </trkpt>
      <trkpt lat="46.31131" lon="-0.52321">
        <ele>9.8</ele>
        <time>2021-04-27T14:17:29Z</time>
      </trkpt>
      <trkpt lat="46.31131" lon="-0.5232">
        <ele>9.8</ele>
        <time>2021-04-27T14:17:30Z</time>
      </trkpt>
      <trkpt lat="46.31131" lon="-0.5232">
        <ele>9.8</ele>
        <time>2021-04-27T14:17:31Z</time>
      </trkpt>
      <trkpt lat="46.31131" lon="-0.5232">
        <ele>9.8</ele>
        <time>2021-04-27T14:17:32Z</time>
      </trkpt>
      <trkpt lat="46.31132" lon="-0.52325">
        <ele>11.8</ele>
        <time>2021-04-27T14:17:41Z</time>
      </trkpt>
      <trkpt lat="46.31131" lon="-0.52332">
        <ele>12</ele>
        <time>2021-04-27T14:17:42Z</time>
      </trkpt>
      <trkpt lat="46.31129" lon="-0.52336">
        <ele>12</ele>
        <time>2021-04-27T14:17:43Z</time>
      </trkpt>
      <trkpt lat="46.31129" lon="-0.52336">
        <ele>12</ele>
        <time>2021-04-27T14:17:44Z</time>
      </trkpt>
      <trkpt lat="46.31122" lon="-0.5235">
        <ele>12</ele>
        <time>2021-04-27T14:17:45Z</time>
      </trkpt>
      <trkpt lat="46.31119" lon="-0.52358">
        <ele>12</ele>
        <time>2021-04-27T14:17:46Z</time>
      </trkpt>
      <trkpt lat="46.31116" lon="-0.52368">
        <ele>12</ele>
        <time>2021-04-27T14:17:47Z</time>
      </trkpt>
      <trkpt lat="46.31112" lon="-0.52377">
        <ele>12</ele>
        <time>2021-04-27T14:17:48Z</time>
      </trkpt>
      <trkpt lat="46.31109" lon="-0.52386">
        <ele>12</ele>
        <time>2021-04-27T14:17:49Z</time>
      </trkpt>
      <trkpt lat="46.31106" lon="-0.52396">
        <ele>12</ele>
        <time>2021-04-27T14:17:50Z</time>
      </trkpt>
      <trkpt lat="46.31103" lon="-0.52405">
        <ele>12</ele>
        <time>2021-04-27T14:17:51Z</time>
      </trkpt>
      <trkpt lat="46.31103" lon="-0.52405">
        <ele>11.8</ele>
        <time>2021-04-27T14:17:52Z</time>
      </trkpt>
      <trkpt lat="46.31098" lon="-0.52425">
        <ele>11.4</ele>
        <time>2021-04-27T14:17:53Z</time>
      </trkpt>
      <trkpt lat="46.31096" lon="-0.52435">
        <ele>10.8</ele>
        <time>2021-04-27T14:17:54Z</time>
      </trkpt>
      <trkpt lat="46.31094" lon="-0.52442">
        <ele>10.4</ele>
        <time>2021-04-27T14:17:55Z</time>
      </trkpt>
      <trkpt lat="46.31088" lon="-0.52465">
        <ele>10</ele>
        <time>2021-04-27T14:17:58Z</time>
      </trkpt>
      <trkpt lat="46.31089" lon="-0.52469">
        <ele>10</ele>
        <time>2021-04-27T14:17:59Z</time>
      </trkpt>
      <trkpt lat="46.31089" lon="-0.52469">
        <ele>9.8</ele>
        <time>2021-04-27T14:18:00Z</time>
      </trkpt>
      <trkpt lat="46.31096" lon="-0.52473">
        <ele>9.6</ele>
        <time>2021-04-27T14:18:01Z</time>
      </trkpt>
      <trkpt lat="46.311" lon="-0.52477">
        <ele>9.6</ele>
        <time>2021-04-27T14:18:02Z</time>
      </trkpt>
      <trkpt lat="46.31109" lon="-0.52483">
        <ele>9.4</ele>
        <time>2021-04-27T14:18:04Z</time>
      </trkpt>
      <trkpt lat="46.31109" lon="-0.52483">
        <ele>9.4</ele>
        <time>2021-04-27T14:18:05Z</time>
      </trkpt>
      <trkpt lat="46.31121" lon="-0.52493">
        <ele>9.4</ele>
        <time>2021-04-27T14:18:06Z</time>
      </trkpt>
      <trkpt lat="46.31133" lon="-0.52504">
        <ele>9.2</ele>
        <time>2021-04-27T14:18:08Z</time>
      </trkpt>
      <trkpt lat="46.31138" lon="-0.52508">
        <ele>9.2</ele>
        <time>2021-04-27T14:18:10Z</time>
      </trkpt>
      <trkpt lat="46.3115" lon="-0.52519">
        <ele>9.2</ele>
        <time>2021-04-27T14:18:11Z</time>
      </trkpt>
      <trkpt lat="46.31184" lon="-0.52548">
        <ele>9.2</ele>
        <time>2021-04-27T14:18:17Z</time>
      </trkpt>
      <trkpt lat="46.31189" lon="-0.52552">
        <ele>9.4</ele>
        <time>2021-04-27T14:18:19Z</time>
      </trkpt>
      <trkpt lat="46.31192" lon="-0.52555">
        <ele>9.2</ele>
        <time>2021-04-27T14:18:20Z</time>
      </trkpt>
      <trkpt lat="46.31199" lon="-0.52564">
        <ele>9.4</ele>
        <time>2021-04-27T14:18:21Z</time>
      </trkpt>
      <trkpt lat="46.31199" lon="-0.52564">
        <ele>9.2</ele>
        <time>2021-04-27T14:18:22Z</time>
      </trkpt>
      <trkpt lat="46.31201" lon="-0.52572">
        <ele>9.6</ele>
        <time>2021-04-27T14:18:23Z</time>
      </trkpt>
      <trkpt lat="46.31201" lon="-0.52572">
        <ele>9.6</ele>
        <time>2021-04-27T14:18:24Z</time>
      </trkpt>
      <trkpt lat="46.31197" lon="-0.52582">
        <ele>9.6</ele>
        <time>2021-04-27T14:18:25Z</time>
      </trkpt>
      <trkpt lat="46.31193" lon="-0.52595">
        <ele>9.6</ele>
        <time>2021-04-27T14:18:27Z</time>
      </trkpt>
      <trkpt lat="46.31193" lon="-0.52595">
        <ele>9.6</ele>
        <time>2021-04-27T14:18:28Z</time>
      </trkpt>
      <trkpt lat="46.31196" lon="-0.52608">
        <ele>9.6</ele>
        <time>2021-04-27T14:18:29Z</time>
      </trkpt>
      <trkpt lat="46.312" lon="-0.52614">
        <ele>9.6</ele>
        <time>2021-04-27T14:18:30Z</time>
      </trkpt>
      <trkpt lat="46.31205" lon="-0.52618">
        <ele>9.4</ele>
        <time>2021-04-27T14:18:31Z</time>
      </trkpt>
      <trkpt lat="46.31217" lon="-0.52624">
        <ele>9.4</ele>
        <time>2021-04-27T14:18:33Z</time>
      </trkpt>
      <trkpt lat="46.31223" lon="-0.52625">
        <ele>9.4</ele>
        <time>2021-04-27T14:18:34Z</time>
      </trkpt>
      <trkpt lat="46.3123" lon="-0.52625">
        <ele>9</ele>
        <time>2021-04-27T14:18:35Z</time>
      </trkpt>
      <trkpt lat="46.31237" lon="-0.52625">
        <ele>8.8</ele>
        <time>2021-04-27T14:18:36Z</time>
      </trkpt>
      <trkpt lat="46.31244" lon="-0.52624">
        <ele>8.6</ele>
        <time>2021-04-27T14:18:37Z</time>
      </trkpt>
      <trkpt lat="46.31251" lon="-0.52625">
        <ele>8.4</ele>
        <time>2021-04-27T14:18:38Z</time>
      </trkpt>
      <trkpt lat="46.31257" lon="-0.52625">
        <ele>8</ele>
        <time>2021-04-27T14:18:39Z</time>
      </trkpt>
      <trkpt lat="46.31264" lon="-0.52626">
        <ele>7.6</ele>
        <time>2021-04-27T14:18:41Z</time>
      </trkpt>
      <trkpt lat="46.31297" lon="-0.52628">
        <ele>7.2</ele>
        <time>2021-04-27T14:18:45Z</time>
      </trkpt>
      <trkpt lat="46.31304" lon="-0.52628">
        <ele>7</ele>
        <time>2021-04-27T14:18:47Z</time>
      </trkpt>
      <trkpt lat="46.31337" lon="-0.52629">
        <ele>7</ele>
        <time>2021-04-27T14:18:51Z</time>
      </trkpt>
      <trkpt lat="46.31344" lon="-0.52627">
        <ele>7</ele>
        <time>2021-04-27T14:18:53Z</time>
      </trkpt>
      <trkpt lat="46.31349" lon="-0.52622">
        <ele>7</ele>
        <time>2021-04-27T14:18:54Z</time>
      </trkpt>
      <trkpt lat="46.31359" lon="-0.52609">
        <ele>7</ele>
        <time>2021-04-27T14:18:55Z</time>
      </trkpt>
      <trkpt lat="46.31359" lon="-0.52609">
        <ele>7</ele>
        <time>2021-04-27T14:18:56Z</time>
      </trkpt>
      <trkpt lat="46.31369" lon="-0.52596">
        <ele>7</ele>
        <time>2021-04-27T14:18:57Z</time>
      </trkpt>
      <trkpt lat="46.31408" lon="-0.52543">
        <ele>7</ele>
        <time>2021-04-27T14:19:05Z</time>
      </trkpt>
      <trkpt lat="46.31417" lon="-0.52529">
        <ele>6.8</ele>
        <time>2021-04-27T14:19:07Z</time>
      </trkpt>
      <trkpt lat="46.31433" lon="-0.52498">
        <ele>6.8</ele>
        <time>2021-04-27T14:19:11Z</time>
      </trkpt>
      <trkpt lat="46.31466" lon="-0.52427">
        <ele>7</ele>
        <time>2021-04-27T14:19:20Z</time>
      </trkpt>
      <trkpt lat="46.31492" lon="-0.52372">
        <ele>6.8</ele>
        <time>2021-04-27T14:19:27Z</time>
      </trkpt>
      <trkpt lat="46.31497" lon="-0.52366">
        <ele>6.8</ele>
        <time>2021-04-27T14:19:29Z</time>
      </trkpt>
      <trkpt lat="46.31502" lon="-0.52361">
        <ele>6.8</ele>
        <time>2021-04-27T14:19:30Z</time>
      </trkpt>
      <trkpt lat="46.31514" lon="-0.52354">
        <ele>6.8</ele>
        <time>2021-04-27T14:19:31Z</time>
      </trkpt>
      <trkpt lat="46.31521" lon="-0.52351">
        <ele>6.8</ele>
        <time>2021-04-27T14:19:32Z</time>
      </trkpt>
      <trkpt lat="46.31527" lon="-0.52349">
        <ele>6.8</ele>
        <time>2021-04-27T14:19:33Z</time>
      </trkpt>
      <trkpt lat="46.31533" lon="-0.52347">
        <ele>6.6</ele>
        <time>2021-04-27T14:19:34Z</time>
      </trkpt>
      <trkpt lat="46.31564" lon="-0.52331">
        <ele>6.6</ele>
        <time>2021-04-27T14:19:39Z</time>
      </trkpt>
      <trkpt lat="46.31581" lon="-0.52319">
        <ele>6.4</ele>
        <time>2021-04-27T14:19:42Z</time>
      </trkpt>
      <trkpt lat="46.31591" lon="-0.52307">
        <ele>6.4</ele>
        <time>2021-04-27T14:19:44Z</time>
      </trkpt>
      <trkpt lat="46.31616" lon="-0.52263">
        <ele>6.4</ele>
        <time>2021-04-27T14:19:50Z</time>
      </trkpt>
      <trkpt lat="46.3162" lon="-0.52257">
        <ele>6.6</ele>
        <time>2021-04-27T14:19:51Z</time>
      </trkpt>
      <trkpt lat="46.31663" lon="-0.52198">
        <ele>7.2</ele>
        <time>2021-04-27T14:20:00Z</time>
      </trkpt>
      <trkpt lat="46.31663" lon="-0.52198">
        <ele>7.4</ele>
        <time>2021-04-27T14:20:01Z</time>
      </trkpt>
      <trkpt lat="46.31691" lon="-0.52146">
        <ele>7.8</ele>
        <time>2021-04-27T14:20:07Z</time>
      </trkpt>
      <trkpt lat="46.31694" lon="-0.52139">
        <ele>7.8</ele>
        <time>2021-04-27T14:20:08Z</time>
      </trkpt>
      <trkpt lat="46.31701" lon="-0.52126">
        <ele>7.8</ele>
        <time>2021-04-27T14:20:10Z</time>
      </trkpt>
      <trkpt lat="46.31705" lon="-0.5212">
        <ele>7.8</ele>
        <time>2021-04-27T14:20:11Z</time>
      </trkpt>
      <trkpt lat="46.31709" lon="-0.52114">
        <ele>8</ele>
        <time>2021-04-27T14:20:12Z</time>
      </trkpt>
      <trkpt lat="46.31712" lon="-0.5211">
        <ele>8</ele>
        <time>2021-04-27T14:20:13Z</time>
      </trkpt>
      <trkpt lat="46.31714" lon="-0.52106">
        <ele>8.2</ele>
        <time>2021-04-27T14:20:14Z</time>
      </trkpt>
      <trkpt lat="46.31717" lon="-0.52102">
        <ele>8.2</ele>
        <time>2021-04-27T14:20:15Z</time>
      </trkpt>
      <trkpt lat="46.3172" lon="-0.52099">
        <ele>8.2</ele>
        <time>2021-04-27T14:20:16Z</time>
      </trkpt>
      <trkpt lat="46.31723" lon="-0.52095">
        <ele>8.4</ele>
        <time>2021-04-27T14:20:17Z</time>
      </trkpt>
      <trkpt lat="46.31726" lon="-0.52091">
        <ele>8.6</ele>
        <time>2021-04-27T14:20:18Z</time>
      </trkpt>
      <trkpt lat="46.31741" lon="-0.52074">
        <ele>8.8</ele>
        <time>2021-04-27T14:20:21Z</time>
      </trkpt>
      <trkpt lat="46.31747" lon="-0.52069">
        <ele>8.8</ele>
        <time>2021-04-27T14:20:22Z</time>
      </trkpt>
      <trkpt lat="46.31763" lon="-0.52053">
        <ele>8.8</ele>
        <time>2021-04-27T14:20:25Z</time>
      </trkpt>
      <trkpt lat="46.31767" lon="-0.52049">
        <ele>8.8</ele>
        <time>2021-04-27T14:20:26Z</time>
      </trkpt>
      <trkpt lat="46.31772" lon="-0.52044">
        <ele>8.8</ele>
        <time>2021-04-27T14:20:27Z</time>
      </trkpt>
      <trkpt lat="46.31783" lon="-0.52034">
        <ele>8.6</ele>
        <time>2021-04-27T14:20:29Z</time>
      </trkpt>
      <trkpt lat="46.31797" lon="-0.52018">
        <ele>8.6</ele>
        <time>2021-04-27T14:20:32Z</time>
      </trkpt>
      <trkpt lat="46.31803" lon="-0.52013">
        <ele>8.4</ele>
        <time>2021-04-27T14:20:33Z</time>
      </trkpt>
      <trkpt lat="46.31825" lon="-0.51993">
        <ele>8.4</ele>
        <time>2021-04-27T14:20:37Z</time>
      </trkpt>
      <trkpt lat="46.3186" lon="-0.51948">
        <ele>8.4</ele>
        <time>2021-04-27T14:20:44Z</time>
      </trkpt>
      <trkpt lat="46.31901" lon="-0.51894">
        <ele>8.2</ele>
        <time>2021-04-27T14:20:53Z</time>
      </trkpt>
      <trkpt lat="46.31905" lon="-0.51889">
        <ele>8.4</ele>
        <time>2021-04-27T14:20:54Z</time>
      </trkpt>
      <trkpt lat="46.3191" lon="-0.51884">
        <ele>8.4</ele>
        <time>2021-04-27T14:20:55Z</time>
      </trkpt>
      <trkpt lat="46.31914" lon="-0.51881">
        <ele>8.4</ele>
        <time>2021-04-27T14:20:56Z</time>
      </trkpt>
      <trkpt lat="46.31919" lon="-0.51879">
        <ele>8.4</ele>
        <time>2021-04-27T14:20:57Z</time>
      </trkpt>
      <trkpt lat="46.31924" lon="-0.51879">
        <ele>8.4</ele>
        <time>2021-04-27T14:20:58Z</time>
      </trkpt>
      <trkpt lat="46.3193" lon="-0.51879">
        <ele>8.4</ele>
        <time>2021-04-27T14:20:59Z</time>
      </trkpt>
      <trkpt lat="46.31936" lon="-0.51881">
        <ele>8.4</ele>
        <time>2021-04-27T14:21:00Z</time>
      </trkpt>
      <trkpt lat="46.31942" lon="-0.51882">
        <ele>8.4</ele>
        <time>2021-04-27T14:21:01Z</time>
      </trkpt>
      <trkpt lat="46.31948" lon="-0.51883">
        <ele>8.2</ele>
        <time>2021-04-27T14:21:02Z</time>
      </trkpt>
      <trkpt lat="46.31959" lon="-0.5188">
        <ele>8.2</ele>
        <time>2021-04-27T14:21:04Z</time>
      </trkpt>
      <trkpt lat="46.31964" lon="-0.51875">
        <ele>8.2</ele>
        <time>2021-04-27T14:21:05Z</time>
      </trkpt>
      <trkpt lat="46.31969" lon="-0.5187">
        <ele>8.2</ele>
        <time>2021-04-27T14:21:06Z</time>
      </trkpt>
      <trkpt lat="46.31975" lon="-0.51865">
        <ele>8.2</ele>
        <time>2021-04-27T14:21:07Z</time>
      </trkpt>
      <trkpt lat="46.3198" lon="-0.5186">
        <ele>8</ele>
        <time>2021-04-27T14:21:08Z</time>
      </trkpt>
      <trkpt lat="46.31985" lon="-0.51854">
        <ele>7.8</ele>
        <time>2021-04-27T14:21:09Z</time>
      </trkpt>
      <trkpt lat="46.31997" lon="-0.51845">
        <ele>7.6</ele>
        <time>2021-04-27T14:21:12Z</time>
      </trkpt>
      <trkpt lat="46.32044" lon="-0.5181">
        <ele>7.4</ele>
        <time>2021-04-27T14:21:19Z</time>
      </trkpt>
      <trkpt lat="46.32083" lon="-0.51801">
        <ele>7.6</ele>
        <time>2021-04-27T14:21:26Z</time>
      </trkpt>
      <trkpt lat="46.32103" lon="-0.518">
        <ele>7.6</ele>
        <time>2021-04-27T14:21:28Z</time>
      </trkpt>
      <trkpt lat="46.32116" lon="-0.51793">
        <ele>7.6</ele>
        <time>2021-04-27T14:21:30Z</time>
      </trkpt>
      <trkpt lat="46.32162" lon="-0.5176">
        <ele>7.4</ele>
        <time>2021-04-27T14:21:39Z</time>
      </trkpt>
      <trkpt lat="46.32178" lon="-0.51747">
        <ele>7.4</ele>
        <time>2021-04-27T14:21:41Z</time>
      </trkpt>
      <trkpt lat="46.32184" lon="-0.51743">
        <ele>7.4</ele>
        <time>2021-04-27T14:21:42Z</time>
      </trkpt>
      <trkpt lat="46.32189" lon="-0.51738">
        <ele>7.4</ele>
        <time>2021-04-27T14:21:43Z</time>
      </trkpt>
      <trkpt lat="46.32207" lon="-0.51725">
        <ele>7.4</ele>
        <time>2021-04-27T14:21:46Z</time>
      </trkpt>
      <trkpt lat="46.32212" lon="-0.51721">
        <ele>7.4</ele>
        <time>2021-04-27T14:21:47Z</time>
      </trkpt>
      <trkpt lat="46.32218" lon="-0.51717">
        <ele>7.4</ele>
        <time>2021-04-27T14:21:48Z</time>
      </trkpt>
      <trkpt lat="46.32223" lon="-0.51712">
        <ele>7.6</ele>
        <time>2021-04-27T14:21:49Z</time>
      </trkpt>
      <trkpt lat="46.32264" lon="-0.51683">
        <ele>7.8</ele>
        <time>2021-04-27T14:21:56Z</time>
      </trkpt>
      <trkpt lat="46.32275" lon="-0.51677">
        <ele>8</ele>
        <time>2021-04-27T14:21:58Z</time>
      </trkpt>
      <trkpt lat="46.32287" lon="-0.51671">
        <ele>8</ele>
        <time>2021-04-27T14:22:00Z</time>
      </trkpt>
      <trkpt lat="46.323" lon="-0.51669">
        <ele>8</ele>
        <time>2021-04-27T14:22:02Z</time>
      </trkpt>
      <trkpt lat="46.32313" lon="-0.51668">
        <ele>8.2</ele>
        <time>2021-04-27T14:22:04Z</time>
      </trkpt>
      <trkpt lat="46.32313" lon="-0.51668">
        <ele>8.2</ele>
        <time>2021-04-27T14:22:05Z</time>
      </trkpt>
      <trkpt lat="46.32323" lon="-0.51665">
        <ele>8.4</ele>
        <time>2021-04-27T14:22:06Z</time>
      </trkpt>
      <trkpt lat="46.32328" lon="-0.51662">
        <ele>8.4</ele>
        <time>2021-04-27T14:22:07Z</time>
      </trkpt>
      <trkpt lat="46.32333" lon="-0.51658">
        <ele>8.4</ele>
        <time>2021-04-27T14:22:08Z</time>
      </trkpt>
      <trkpt lat="46.32342" lon="-0.51649">
        <ele>8.6</ele>
        <time>2021-04-27T14:22:10Z</time>
      </trkpt>
      <trkpt lat="46.32347" lon="-0.51645">
        <ele>8.8</ele>
        <time>2021-04-27T14:22:11Z</time>
      </trkpt>
      <trkpt lat="46.32353" lon="-0.51642">
        <ele>8.8</ele>
        <time>2021-04-27T14:22:12Z</time>
      </trkpt>
      <trkpt lat="46.32359" lon="-0.5164">
        <ele>8.8</ele>
        <time>2021-04-27T14:22:14Z</time>
      </trkpt>
      <trkpt lat="46.32394" lon="-0.51635">
        <ele>8.8</ele>
        <time>2021-04-27T14:22:19Z</time>
      </trkpt>
      <trkpt lat="46.32407" lon="-0.51631">
        <ele>8.8</ele>
        <time>2021-04-27T14:22:20Z</time>
      </trkpt>
      <trkpt lat="46.32424" lon="-0.51625">
        <ele>9</ele>
        <time>2021-04-27T14:22:23Z</time>
      </trkpt>
      <trkpt lat="46.32424" lon="-0.51625">
        <ele>9</ele>
        <time>2021-04-27T14:22:24Z</time>
      </trkpt>
      <trkpt lat="46.3243" lon="-0.51623">
        <ele>9</ele>
        <time>2021-04-27T14:22:25Z</time>
      </trkpt>
      <trkpt lat="46.32432" lon="-0.51622">
        <ele>9</ele>
        <time>2021-04-27T14:22:26Z</time>
      </trkpt>
      <trkpt lat="46.32434" lon="-0.51621">
        <ele>9</ele>
        <time>2021-04-27T14:22:27Z</time>
      </trkpt>
      <trkpt lat="46.32437" lon="-0.5162">
        <ele>9</ele>
        <time>2021-04-27T14:22:28Z</time>
      </trkpt>
      <trkpt lat="46.32441" lon="-0.51618">
        <ele>9</ele>
        <time>2021-04-27T14:22:29Z</time>
      </trkpt>
      <trkpt lat="46.32462" lon="-0.51608">
        <ele>9</ele>
        <time>2021-04-27T14:22:33Z</time>
      </trkpt>
      <trkpt lat="46.32469" lon="-0.51605">
        <ele>9</ele>
        <time>2021-04-27T14:22:34Z</time>
      </trkpt>
      <trkpt lat="46.3248" lon="-0.51595">
        <ele>9</ele>
        <time>2021-04-27T14:22:36Z</time>
      </trkpt>
      <trkpt lat="46.32485" lon="-0.51588">
        <ele>9</ele>
        <time>2021-04-27T14:22:37Z</time>
      </trkpt>
      <trkpt lat="46.32489" lon="-0.51581">
        <ele>9</ele>
        <time>2021-04-27T14:22:38Z</time>
      </trkpt>
      <trkpt lat="46.32491" lon="-0.51573">
        <ele>9</ele>
        <time>2021-04-27T14:22:39Z</time>
      </trkpt>
      <trkpt lat="46.32493" lon="-0.51564">
        <ele>9.2</ele>
        <time>2021-04-27T14:22:40Z</time>
      </trkpt>
      <trkpt lat="46.32492" lon="-0.51554">
        <ele>9</ele>
        <time>2021-04-27T14:22:41Z</time>
      </trkpt>
      <trkpt lat="46.3249" lon="-0.51545">
        <ele>9</ele>
        <time>2021-04-27T14:22:42Z</time>
      </trkpt>
      <trkpt lat="46.32488" lon="-0.51537">
        <ele>9</ele>
        <time>2021-04-27T14:22:43Z</time>
      </trkpt>
      <trkpt lat="46.32487" lon="-0.51529">
        <ele>9</ele>
        <time>2021-04-27T14:22:44Z</time>
      </trkpt>
      <trkpt lat="46.32488" lon="-0.51523">
        <ele>9</ele>
        <time>2021-04-27T14:22:45Z</time>
      </trkpt>
      <trkpt lat="46.3249" lon="-0.51519">
        <ele>9</ele>
        <time>2021-04-27T14:22:46Z</time>
      </trkpt>
      <trkpt lat="46.32494" lon="-0.51517">
        <ele>9</ele>
        <time>2021-04-27T14:22:47Z</time>
      </trkpt>
      <trkpt lat="46.32499" lon="-0.51516">
        <ele>9</ele>
        <time>2021-04-27T14:22:48Z</time>
      </trkpt>
      <trkpt lat="46.32504" lon="-0.51515">
        <ele>9</ele>
        <time>2021-04-27T14:22:49Z</time>
      </trkpt>
      <trkpt lat="46.32514" lon="-0.51512">
        <ele>9.2</ele>
        <time>2021-04-27T14:22:51Z</time>
      </trkpt>
      <trkpt lat="46.32517" lon="-0.5151">
        <ele>9.2</ele>
        <time>2021-04-27T14:22:52Z</time>
      </trkpt>
      <trkpt lat="46.3252" lon="-0.51508">
        <ele>9.8</ele>
        <time>2021-04-27T14:22:53Z</time>
      </trkpt>
      <trkpt lat="46.32522" lon="-0.51505">
        <ele>10.2</ele>
        <time>2021-04-27T14:22:54Z</time>
      </trkpt>
      <trkpt lat="46.32523" lon="-0.51501">
        <ele>10.2</ele>
        <time>2021-04-27T14:22:55Z</time>
      </trkpt>
      <trkpt lat="46.32522" lon="-0.51495">
        <ele>11</ele>
        <time>2021-04-27T14:22:56Z</time>
      </trkpt>
      <trkpt lat="46.32521" lon="-0.51489">
        <ele>11.6</ele>
        <time>2021-04-27T14:22:57Z</time>
      </trkpt>
      <trkpt lat="46.32517" lon="-0.51474">
        <ele>12.2</ele>
        <time>2021-04-27T14:22:59Z</time>
      </trkpt>
      <trkpt lat="46.32514" lon="-0.51465">
        <ele>12.2</ele>
        <time>2021-04-27T14:23:00Z</time>
      </trkpt>
      <trkpt lat="46.32512" lon="-0.51457">
        <ele>12.4</ele>
        <time>2021-04-27T14:23:01Z</time>
      </trkpt>
      <trkpt lat="46.3251" lon="-0.51447">
        <ele>12.4</ele>
        <time>2021-04-27T14:23:02Z</time>
      </trkpt>
      <trkpt lat="46.32507" lon="-0.51438">
        <ele>12.6</ele>
        <time>2021-04-27T14:23:03Z</time>
      </trkpt>
      <trkpt lat="46.32505" lon="-0.51429">
        <ele>12.6</ele>
        <time>2021-04-27T14:23:04Z</time>
      </trkpt>
      <trkpt lat="46.32502" lon="-0.51421">
        <ele>12.6</ele>
        <time>2021-04-27T14:23:05Z</time>
      </trkpt>
      <trkpt lat="46.325" lon="-0.51413">
        <ele>12.6</ele>
        <time>2021-04-27T14:23:06Z</time>
      </trkpt>
      <trkpt lat="46.325" lon="-0.51413">
        <ele>12.6</ele>
        <time>2021-04-27T14:23:07Z</time>
      </trkpt>
      <trkpt lat="46.32494" lon="-0.51396">
        <ele>12.6</ele>
        <time>2021-04-27T14:23:08Z</time>
      </trkpt>
      <trkpt lat="46.32491" lon="-0.51388">
        <ele>12.6</ele>
        <time>2021-04-27T14:23:09Z</time>
      </trkpt>
      <trkpt lat="46.32488" lon="-0.51379">
        <ele>12.6</ele>
        <time>2021-04-27T14:23:10Z</time>
      </trkpt>
      <trkpt lat="46.32485" lon="-0.51371">
        <ele>12.6</ele>
        <time>2021-04-27T14:23:11Z</time>
      </trkpt>
      <trkpt lat="46.32485" lon="-0.51371">
        <ele>12.6</ele>
        <time>2021-04-27T14:23:12Z</time>
      </trkpt>
      <trkpt lat="46.3248" lon="-0.51354">
        <ele>12.6</ele>
        <time>2021-04-27T14:23:13Z</time>
      </trkpt>
      <trkpt lat="46.32477" lon="-0.51345">
        <ele>12.6</ele>
        <time>2021-04-27T14:23:14Z</time>
      </trkpt>
      <trkpt lat="46.32477" lon="-0.51345">
        <ele>12.6</ele>
        <time>2021-04-27T14:23:15Z</time>
      </trkpt>
      <trkpt lat="46.32475" lon="-0.51336">
        <ele>12.6</ele>
        <time>2021-04-27T14:23:16Z</time>
      </trkpt>
      <trkpt lat="46.32471" lon="-0.51321">
        <ele>12.8</ele>
        <time>2021-04-27T14:23:17Z</time>
      </trkpt>
      <trkpt lat="46.32468" lon="-0.51315">
        <ele>13.2</ele>
        <time>2021-04-27T14:23:18Z</time>
      </trkpt>
      <trkpt lat="46.32465" lon="-0.5131">
        <ele>13.6</ele>
        <time>2021-04-27T14:23:19Z</time>
      </trkpt>
      <trkpt lat="46.32462" lon="-0.51307">
        <ele>14</ele>
        <time>2021-04-27T14:23:20Z</time>
      </trkpt>
      <trkpt lat="46.3246" lon="-0.51304">
        <ele>14.4</ele>
        <time>2021-04-27T14:23:21Z</time>
      </trkpt>
      <trkpt lat="46.32458" lon="-0.51301">
        <ele>14.6</ele>
        <time>2021-04-27T14:23:22Z</time>
      </trkpt>
      <trkpt lat="46.32457" lon="-0.51298">
        <ele>14.8</ele>
        <time>2021-04-27T14:23:23Z</time>
      </trkpt>
      <trkpt lat="46.32457" lon="-0.51296">
        <ele>14.8</ele>
        <time>2021-04-27T14:23:24Z</time>
      </trkpt>
      <trkpt lat="46.32457" lon="-0.51293">
        <ele>15.4</ele>
        <time>2021-04-27T14:23:25Z</time>
      </trkpt>
      <trkpt lat="46.32456" lon="-0.51291">
        <ele>15.8</ele>
        <time>2021-04-27T14:23:26Z</time>
      </trkpt>
      <trkpt lat="46.32454" lon="-0.51291">
        <ele>16</ele>
        <time>2021-04-27T14:23:27Z</time>
      </trkpt>
      <trkpt lat="46.32451" lon="-0.51292">
        <ele>16.4</ele>
        <time>2021-04-27T14:23:28Z</time>
      </trkpt>
      <trkpt lat="46.32448" lon="-0.51295">
        <ele>16.4</ele>
        <time>2021-04-27T14:23:29Z</time>
      </trkpt>
      <trkpt lat="46.32444" lon="-0.51299">
        <ele>16.6</ele>
        <time>2021-04-27T14:23:30Z</time>
      </trkpt>
      <trkpt lat="46.32444" lon="-0.51299">
        <ele>16.8</ele>
        <time>2021-04-27T14:23:31Z</time>
      </trkpt>
      <trkpt lat="46.32433" lon="-0.51307">
        <ele>16.8</ele>
        <time>2021-04-27T14:23:32Z</time>
      </trkpt>
      <trkpt lat="46.32427" lon="-0.51309">
        <ele>16.8</ele>
        <time>2021-04-27T14:23:33Z</time>
      </trkpt>
      <trkpt lat="46.32421" lon="-0.51309">
        <ele>16.8</ele>
        <time>2021-04-27T14:23:34Z</time>
      </trkpt>
      <trkpt lat="46.32421" lon="-0.51309">
        <ele>16.8</ele>
        <time>2021-04-27T14:23:35Z</time>
      </trkpt>
      <trkpt lat="46.32414" lon="-0.51307">
        <ele>16.8</ele>
        <time>2021-04-27T14:23:36Z</time>
      </trkpt>
      <trkpt lat="46.32401" lon="-0.51305">
        <ele>16.8</ele>
        <time>2021-04-27T14:23:37Z</time>
      </trkpt>
      <trkpt lat="46.32394" lon="-0.51303">
        <ele>16.8</ele>
        <time>2021-04-27T14:23:38Z</time>
      </trkpt>
      <trkpt lat="46.32394" lon="-0.51303">
        <ele>16.8</ele>
        <time>2021-04-27T14:23:39Z</time>
      </trkpt>
      <trkpt lat="46.32382" lon="-0.51296">
        <ele>16.4</ele>
        <time>2021-04-27T14:23:40Z</time>
      </trkpt>
      <trkpt lat="46.32376" lon="-0.51292">
        <ele>16.2</ele>
        <time>2021-04-27T14:23:41Z</time>
      </trkpt>
      <trkpt lat="46.3237" lon="-0.51287">
        <ele>16</ele>
        <time>2021-04-27T14:23:42Z</time>
      </trkpt>
      <trkpt lat="46.32364" lon="-0.51283">
        <ele>15.8</ele>
        <time>2021-04-27T14:23:43Z</time>
      </trkpt>
      <trkpt lat="46.32358" lon="-0.51279">
        <ele>15.8</ele>
        <time>2021-04-27T14:23:44Z</time>
      </trkpt>
      <trkpt lat="46.32352" lon="-0.51275">
        <ele>15.8</ele>
        <time>2021-04-27T14:23:45Z</time>
      </trkpt>
      <trkpt lat="46.32346" lon="-0.5127">
        <ele>15.6</ele>
        <time>2021-04-27T14:23:46Z</time>
      </trkpt>
      <trkpt lat="46.32318" lon="-0.51246">
        <ele>15.6</ele>
        <time>2021-04-27T14:23:51Z</time>
      </trkpt>
      <trkpt lat="46.32285" lon="-0.51214">
        <ele>15.6</ele>
        <time>2021-04-27T14:23:57Z</time>
      </trkpt>
      <trkpt lat="46.32246" lon="-0.51178">
        <ele>15.8</ele>
        <time>2021-04-27T14:24:04Z</time>
      </trkpt>
      <trkpt lat="46.32235" lon="-0.51167">
        <ele>16</ele>
        <time>2021-04-27T14:24:07Z</time>
      </trkpt>
      <trkpt lat="46.32179" lon="-0.51114">
        <ele>16.2</ele>
        <time>2021-04-27T14:24:16Z</time>
      </trkpt>
      <trkpt lat="46.32141" lon="-0.51077">
        <ele>16</ele>
        <time>2021-04-27T14:24:22Z</time>
      </trkpt>
      <trkpt lat="46.32135" lon="-0.51071">
        <ele>16</ele>
        <time>2021-04-27T14:24:23Z</time>
      </trkpt>
      <trkpt lat="46.3213" lon="-0.51065">
        <ele>16</ele>
        <time>2021-04-27T14:24:24Z</time>
      </trkpt>
      <trkpt lat="46.32125" lon="-0.5106">
        <ele>16</ele>
        <time>2021-04-27T14:24:25Z</time>
      </trkpt>
      <trkpt lat="46.32119" lon="-0.51054">
        <ele>16</ele>
        <time>2021-04-27T14:24:26Z</time>
      </trkpt>
      <trkpt lat="46.32114" lon="-0.51048">
        <ele>16</ele>
        <time>2021-04-27T14:24:27Z</time>
      </trkpt>
      <trkpt lat="46.32109" lon="-0.51043">
        <ele>16</ele>
        <time>2021-04-27T14:24:28Z</time>
      </trkpt>
      <trkpt lat="46.32066" lon="-0.50999">
        <ele>16</ele>
        <time>2021-04-27T14:24:36Z</time>
      </trkpt>
      <trkpt lat="46.32016" lon="-0.50951">
        <ele>16.6</ele>
        <time>2021-04-27T14:24:45Z</time>
      </trkpt>
      <trkpt lat="46.32005" lon="-0.50941">
        <ele>16.6</ele>
        <time>2021-04-27T14:24:47Z</time>
      </trkpt>
      <trkpt lat="46.31989" lon="-0.50925">
        <ele>17</ele>
        <time>2021-04-27T14:24:50Z</time>
      </trkpt>
      <trkpt lat="46.31947" lon="-0.50882">
        <ele>18</ele>
        <time>2021-04-27T14:24:58Z</time>
      </trkpt>
      <trkpt lat="46.31922" lon="-0.5085">
        <ele>18</ele>
        <time>2021-04-27T14:25:03Z</time>
      </trkpt>
      <trkpt lat="46.31914" lon="-0.50834">
        <ele>18</ele>
        <time>2021-04-27T14:25:05Z</time>
      </trkpt>
      <trkpt lat="46.31899" lon="-0.50805">
        <ele>17.8</ele>
        <time>2021-04-27T14:25:09Z</time>
      </trkpt>
      <trkpt lat="46.31896" lon="-0.50798">
        <ele>17.4</ele>
        <time>2021-04-27T14:25:10Z</time>
      </trkpt>
      <trkpt lat="46.31892" lon="-0.50791">
        <ele>17</ele>
        <time>2021-04-27T14:25:11Z</time>
      </trkpt>
      <trkpt lat="46.31889" lon="-0.50785">
        <ele>16.6</ele>
        <time>2021-04-27T14:25:12Z</time>
      </trkpt>
      <trkpt lat="46.31885" lon="-0.50778">
        <ele>16.2</ele>
        <time>2021-04-27T14:25:13Z</time>
      </trkpt>
      <trkpt lat="46.31882" lon="-0.50771">
        <ele>16.2</ele>
        <time>2021-04-27T14:25:14Z</time>
      </trkpt>
      <trkpt lat="46.31865" lon="-0.50738">
        <ele>15.6</ele>
        <time>2021-04-27T14:25:18Z</time>
      </trkpt>
      <trkpt lat="46.31862" lon="-0.50731">
        <ele>15.6</ele>
        <time>2021-04-27T14:25:19Z</time>
      </trkpt>
      <trkpt lat="46.31857" lon="-0.50724">
        <ele>15.4</ele>
        <time>2021-04-27T14:25:20Z</time>
      </trkpt>
      <trkpt lat="46.31854" lon="-0.50718">
        <ele>15.2</ele>
        <time>2021-04-27T14:25:21Z</time>
      </trkpt>
      <trkpt lat="46.3185" lon="-0.50712">
        <ele>15.2</ele>
        <time>2021-04-27T14:25:22Z</time>
      </trkpt>
      <trkpt lat="46.31848" lon="-0.50707">
        <ele>15</ele>
        <time>2021-04-27T14:25:23Z</time>
      </trkpt>
      <trkpt lat="46.31848" lon="-0.50703">
        <ele>15</ele>
        <time>2021-04-27T14:25:24Z</time>
      </trkpt>
      <trkpt lat="46.31849" lon="-0.50699">
        <ele>15</ele>
        <time>2021-04-27T14:25:25Z</time>
      </trkpt>
      <trkpt lat="46.31851" lon="-0.50694">
        <ele>15</ele>
        <time>2021-04-27T14:25:26Z</time>
      </trkpt>
      <trkpt lat="46.31855" lon="-0.50688">
        <ele>15</ele>
        <time>2021-04-27T14:25:27Z</time>
      </trkpt>
      <trkpt lat="46.31859" lon="-0.50683">
        <ele>14.8</ele>
        <time>2021-04-27T14:25:29Z</time>
      </trkpt>
      <trkpt lat="46.31867" lon="-0.50671">
        <ele>14.8</ele>
        <time>2021-04-27T14:25:30Z</time>
      </trkpt>
      <trkpt lat="46.31871" lon="-0.50665">
        <ele>14.8</ele>
        <time>2021-04-27T14:25:31Z</time>
      </trkpt>
      <trkpt lat="46.31885" lon="-0.50653">
        <ele>14.4</ele>
        <time>2021-04-27T14:25:34Z</time>
      </trkpt>
      <trkpt lat="46.31889" lon="-0.50647">
        <ele>14.4</ele>
        <time>2021-04-27T14:25:35Z</time>
      </trkpt>
      <trkpt lat="46.31895" lon="-0.50631">
        <ele>14.2</ele>
        <time>2021-04-27T14:25:37Z</time>
      </trkpt>
      <trkpt lat="46.31898" lon="-0.50622">
        <ele>14</ele>
        <time>2021-04-27T14:25:38Z</time>
      </trkpt>
      <trkpt lat="46.31901" lon="-0.50612">
        <ele>13.6</ele>
        <time>2021-04-27T14:25:39Z</time>
      </trkpt>
      <trkpt lat="46.31901" lon="-0.50612">
        <ele>13.6</ele>
        <time>2021-04-27T14:25:40Z</time>
      </trkpt>
      <trkpt lat="46.31909" lon="-0.50587">
        <ele>12.8</ele>
        <time>2021-04-27T14:25:42Z</time>
      </trkpt>
      <trkpt lat="46.31912" lon="-0.50578">
        <ele>12.4</ele>
        <time>2021-04-27T14:25:43Z</time>
      </trkpt>
      <trkpt lat="46.31921" lon="-0.50552">
        <ele>11.8</ele>
        <time>2021-04-27T14:25:46Z</time>
      </trkpt>
      <trkpt lat="46.31944" lon="-0.50474">
        <ele>10.8</ele>
        <time>2021-04-27T14:25:55Z</time>
      </trkpt>
      <trkpt lat="46.31946" lon="-0.50465">
        <ele>10.8</ele>
        <time>2021-04-27T14:25:56Z</time>
      </trkpt>
      <trkpt lat="46.3195" lon="-0.50447">
        <ele>10.8</ele>
        <time>2021-04-27T14:25:58Z</time>
      </trkpt>
      <trkpt lat="46.31951" lon="-0.50439">
        <ele>10.8</ele>
        <time>2021-04-27T14:25:59Z</time>
      </trkpt>
      <trkpt lat="46.31952" lon="-0.50421">
        <ele>10.8</ele>
        <time>2021-04-27T14:26:01Z</time>
      </trkpt>
      <trkpt lat="46.31953" lon="-0.50403">
        <ele>10.8</ele>
        <time>2021-04-27T14:26:03Z</time>
      </trkpt>
      <trkpt lat="46.31954" lon="-0.50366">
        <ele>10.8</ele>
        <time>2021-04-27T14:26:07Z</time>
      </trkpt>
      <trkpt lat="46.31953" lon="-0.50338">
        <ele>10.6</ele>
        <time>2021-04-27T14:26:10Z</time>
      </trkpt>
      <trkpt lat="46.31953" lon="-0.50261">
        <ele>10.4</ele>
        <time>2021-04-27T14:26:18Z</time>
      </trkpt>
      <trkpt lat="46.31954" lon="-0.50252">
        <ele>10.4</ele>
        <time>2021-04-27T14:26:19Z</time>
      </trkpt>
      <trkpt lat="46.31956" lon="-0.50243">
        <ele>10.4</ele>
        <time>2021-04-27T14:26:20Z</time>
      </trkpt>
      <trkpt lat="46.31965" lon="-0.50197">
        <ele>10.2</ele>
        <time>2021-04-27T14:26:25Z</time>
      </trkpt>
      <trkpt lat="46.31978" lon="-0.50127">
        <ele>10.2</ele>
        <time>2021-04-27T14:26:33Z</time>
      </trkpt>
      <trkpt lat="46.31979" lon="-0.50119">
        <ele>10.4</ele>
        <time>2021-04-27T14:26:34Z</time>
      </trkpt>
      <trkpt lat="46.31979" lon="-0.50112">
        <ele>10.4</ele>
        <time>2021-04-27T14:26:35Z</time>
      </trkpt>
      <trkpt lat="46.31979" lon="-0.50105">
        <ele>10.4</ele>
        <time>2021-04-27T14:26:36Z</time>
      </trkpt>
      <trkpt lat="46.31979" lon="-0.50105">
        <ele>10.4</ele>
        <time>2021-04-27T14:26:37Z</time>
      </trkpt>
      <trkpt lat="46.31974" lon="-0.50093">
        <ele>10.4</ele>
        <time>2021-04-27T14:26:38Z</time>
      </trkpt>
      <trkpt lat="46.31971" lon="-0.50086">
        <ele>10.4</ele>
        <time>2021-04-27T14:26:40Z</time>
      </trkpt>
      <trkpt lat="46.31964" lon="-0.50071">
        <ele>10.4</ele>
        <time>2021-04-27T14:26:41Z</time>
      </trkpt>
      <trkpt lat="46.31954" lon="-0.50046">
        <ele>10.6</ele>
        <time>2021-04-27T14:26:44Z</time>
      </trkpt>
      <trkpt lat="46.31951" lon="-0.50037">
        <ele>10.8</ele>
        <time>2021-04-27T14:26:46Z</time>
      </trkpt>
      <trkpt lat="46.31937" lon="-0.49975">
        <ele>11</ele>
        <time>2021-04-27T14:26:52Z</time>
      </trkpt>
      <trkpt lat="46.31935" lon="-0.49947">
        <ele>11</ele>
        <time>2021-04-27T14:26:55Z</time>
      </trkpt>
      <trkpt lat="46.31934" lon="-0.49929">
        <ele>10.8</ele>
        <time>2021-04-27T14:26:57Z</time>
      </trkpt>
      <trkpt lat="46.31936" lon="-0.49893">
        <ele>10.8</ele>
        <time>2021-04-27T14:27:01Z</time>
      </trkpt>
      <trkpt lat="46.31938" lon="-0.49885">
        <ele>10.8</ele>
        <time>2021-04-27T14:27:02Z</time>
      </trkpt>
      <trkpt lat="46.3194" lon="-0.49877">
        <ele>10.8</ele>
        <time>2021-04-27T14:27:03Z</time>
      </trkpt>
      <trkpt lat="46.31944" lon="-0.49868">
        <ele>10.8</ele>
        <time>2021-04-27T14:27:04Z</time>
      </trkpt>
      <trkpt lat="46.31948" lon="-0.4986">
        <ele>11</ele>
        <time>2021-04-27T14:27:05Z</time>
      </trkpt>
      <trkpt lat="46.31953" lon="-0.49853">
        <ele>11</ele>
        <time>2021-04-27T14:27:06Z</time>
      </trkpt>
      <trkpt lat="46.3198" lon="-0.49812">
        <ele>10.8</ele>
        <time>2021-04-27T14:27:12Z</time>
      </trkpt>
      <trkpt lat="46.32012" lon="-0.49764">
        <ele>11.2</ele>
        <time>2021-04-27T14:27:19Z</time>
      </trkpt>
      <trkpt lat="46.32017" lon="-0.49756">
        <ele>11.4</ele>
        <time>2021-04-27T14:27:21Z</time>
      </trkpt>
      <trkpt lat="46.32052" lon="-0.49712">
        <ele>11.4</ele>
        <time>2021-04-27T14:27:27Z</time>
      </trkpt>
      <trkpt lat="46.32057" lon="-0.49707">
        <ele>11.4</ele>
        <time>2021-04-27T14:27:28Z</time>
      </trkpt>
      <trkpt lat="46.32074" lon="-0.49694">
        <ele>11.6</ele>
        <time>2021-04-27T14:27:32Z</time>
      </trkpt>
      <trkpt lat="46.32086" lon="-0.49686">
        <ele>11.6</ele>
        <time>2021-04-27T14:27:33Z</time>
      </trkpt>
      <trkpt lat="46.32141" lon="-0.49656">
        <ele>11.2</ele>
        <time>2021-04-27T14:27:42Z</time>
      </trkpt>
      <trkpt lat="46.32153" lon="-0.49647">
        <ele>11.2</ele>
        <time>2021-04-27T14:27:44Z</time>
      </trkpt>
      <trkpt lat="46.32162" lon="-0.49635">
        <ele>11</ele>
        <time>2021-04-27T14:27:46Z</time>
      </trkpt>
      <trkpt lat="46.32165" lon="-0.49628">
        <ele>11</ele>
        <time>2021-04-27T14:27:47Z</time>
      </trkpt>
      <trkpt lat="46.32167" lon="-0.49621">
        <ele>11</ele>
        <time>2021-04-27T14:27:48Z</time>
      </trkpt>
      <trkpt lat="46.32169" lon="-0.49613">
        <ele>10.8</ele>
        <time>2021-04-27T14:27:49Z</time>
      </trkpt>
      <trkpt lat="46.32172" lon="-0.49606">
        <ele>10.8</ele>
        <time>2021-04-27T14:27:50Z</time>
      </trkpt>
      <trkpt lat="46.32173" lon="-0.496">
        <ele>10.8</ele>
        <time>2021-04-27T14:27:51Z</time>
      </trkpt>
      <trkpt lat="46.32175" lon="-0.49595">
        <ele>10.8</ele>
        <time>2021-04-27T14:27:52Z</time>
      </trkpt>
      <trkpt lat="46.32177" lon="-0.4959">
        <ele>10.8</ele>
        <time>2021-04-27T14:27:53Z</time>
      </trkpt>
      <trkpt lat="46.3218" lon="-0.49586">
        <ele>10.8</ele>
        <time>2021-04-27T14:27:54Z</time>
      </trkpt>
      <trkpt lat="46.32183" lon="-0.49584">
        <ele>10.8</ele>
        <time>2021-04-27T14:27:55Z</time>
      </trkpt>
      <trkpt lat="46.32187" lon="-0.49584">
        <ele>11</ele>
        <time>2021-04-27T14:27:56Z</time>
      </trkpt>
      <trkpt lat="46.32192" lon="-0.49586">
        <ele>11</ele>
        <time>2021-04-27T14:27:57Z</time>
      </trkpt>
      <trkpt lat="46.32197" lon="-0.49588">
        <ele>11</ele>
        <time>2021-04-27T14:27:58Z</time>
      </trkpt>
      <trkpt lat="46.32203" lon="-0.49589">
        <ele>11.2</ele>
        <time>2021-04-27T14:27:59Z</time>
      </trkpt>
      <trkpt lat="46.32214" lon="-0.49585">
        <ele>11.4</ele>
        <time>2021-04-27T14:28:01Z</time>
      </trkpt>
      <trkpt lat="46.32219" lon="-0.49581">
        <ele>11.6</ele>
        <time>2021-04-27T14:28:02Z</time>
      </trkpt>
      <trkpt lat="46.32223" lon="-0.49576">
        <ele>11.6</ele>
        <time>2021-04-27T14:28:03Z</time>
      </trkpt>
      <trkpt lat="46.32227" lon="-0.49569">
        <ele>11.6</ele>
        <time>2021-04-27T14:28:04Z</time>
      </trkpt>
      <trkpt lat="46.32232" lon="-0.49562">
        <ele>11.6</ele>
        <time>2021-04-27T14:28:05Z</time>
      </trkpt>
      <trkpt lat="46.32235" lon="-0.49555">
        <ele>11.6</ele>
        <time>2021-04-27T14:28:06Z</time>
      </trkpt>
      <trkpt lat="46.3224" lon="-0.49547">
        <ele>11.6</ele>
        <time>2021-04-27T14:28:07Z</time>
      </trkpt>
      <trkpt lat="46.32245" lon="-0.4954">
        <ele>11.6</ele>
        <time>2021-04-27T14:28:08Z</time>
      </trkpt>
      <trkpt lat="46.32249" lon="-0.49535">
        <ele>11.6</ele>
        <time>2021-04-27T14:28:09Z</time>
      </trkpt>
      <trkpt lat="46.32286" lon="-0.49491">
        <ele>11.4</ele>
        <time>2021-04-27T14:28:16Z</time>
      </trkpt>
      <trkpt lat="46.32305" lon="-0.49468">
        <ele>11.4</ele>
        <time>2021-04-27T14:28:20Z</time>
      </trkpt>
      <trkpt lat="46.3231" lon="-0.49462">
        <ele>11.4</ele>
        <time>2021-04-27T14:28:21Z</time>
      </trkpt>
      <trkpt lat="46.32315" lon="-0.49456">
        <ele>11.4</ele>
        <time>2021-04-27T14:28:22Z</time>
      </trkpt>
      <trkpt lat="46.32319" lon="-0.4945">
        <ele>11.4</ele>
        <time>2021-04-27T14:28:23Z</time>
      </trkpt>
      <trkpt lat="46.32323" lon="-0.49444">
        <ele>11.4</ele>
        <time>2021-04-27T14:28:24Z</time>
      </trkpt>
      <trkpt lat="46.32327" lon="-0.49439">
        <ele>11.4</ele>
        <time>2021-04-27T14:28:25Z</time>
      </trkpt>
      <trkpt lat="46.32331" lon="-0.49433">
        <ele>11.4</ele>
        <time>2021-04-27T14:28:26Z</time>
      </trkpt>
      <trkpt lat="46.32336" lon="-0.49427">
        <ele>11.4</ele>
        <time>2021-04-27T14:28:27Z</time>
      </trkpt>
      <trkpt lat="46.32361" lon="-0.49399">
        <ele>11.2</ele>
        <time>2021-04-27T14:28:32Z</time>
      </trkpt>
      <trkpt lat="46.32365" lon="-0.49395">
        <ele>11.2</ele>
        <time>2021-04-27T14:28:33Z</time>
      </trkpt>
      <trkpt lat="46.32365" lon="-0.49395">
        <ele>11.2</ele>
        <time>2021-04-27T14:28:34Z</time>
      </trkpt>
      <trkpt lat="46.32372" lon="-0.49387">
        <ele>11.2</ele>
        <time>2021-04-27T14:28:35Z</time>
      </trkpt>
      <trkpt lat="46.32376" lon="-0.49382">
        <ele>11.2</ele>
        <time>2021-04-27T14:28:36Z</time>
      </trkpt>
      <trkpt lat="46.32379" lon="-0.49378">
        <ele>11.2</ele>
        <time>2021-04-27T14:28:37Z</time>
      </trkpt>
      <trkpt lat="46.32382" lon="-0.49372">
        <ele>11.2</ele>
        <time>2021-04-27T14:28:38Z</time>
      </trkpt>
      <trkpt lat="46.32403" lon="-0.49339">
        <ele>11.8</ele>
        <time>2021-04-27T14:28:43Z</time>
      </trkpt>
      <trkpt lat="46.32412" lon="-0.49326">
        <ele>11.8</ele>
        <time>2021-04-27T14:28:45Z</time>
      </trkpt>
      <trkpt lat="46.32421" lon="-0.49315">
        <ele>12</ele>
        <time>2021-04-27T14:28:47Z</time>
      </trkpt>
      <trkpt lat="46.32426" lon="-0.49309">
        <ele>12</ele>
        <time>2021-04-27T14:28:48Z</time>
      </trkpt>
      <trkpt lat="46.32437" lon="-0.49299">
        <ele>12</ele>
        <time>2021-04-27T14:28:50Z</time>
      </trkpt>
      <trkpt lat="46.32462" lon="-0.49281">
        <ele>12</ele>
        <time>2021-04-27T14:28:54Z</time>
      </trkpt>
      <trkpt lat="46.32504" lon="-0.49251">
        <ele>12</ele>
        <time>2021-04-27T14:29:01Z</time>
      </trkpt>
      <trkpt lat="46.32515" lon="-0.49244">
        <ele>12</ele>
        <time>2021-04-27T14:29:03Z</time>
      </trkpt>
      <trkpt lat="46.32522" lon="-0.49242">
        <ele>12</ele>
        <time>2021-04-27T14:29:04Z</time>
      </trkpt>
      <trkpt lat="46.32535" lon="-0.49239">
        <ele>12</ele>
        <time>2021-04-27T14:29:06Z</time>
      </trkpt>
      <trkpt lat="46.32573" lon="-0.49239">
        <ele>12</ele>
        <time>2021-04-27T14:29:12Z</time>
      </trkpt>
      <trkpt lat="46.32573" lon="-0.49239">
        <ele>12</ele>
        <time>2021-04-27T14:29:13Z</time>
      </trkpt>
      <trkpt lat="46.32579" lon="-0.49239">
        <ele>12</ele>
        <time>2021-04-27T14:29:14Z</time>
      </trkpt>
      <trkpt lat="46.32589" lon="-0.49233">
        <ele>12</ele>
        <time>2021-04-27T14:29:15Z</time>
      </trkpt>
      <trkpt lat="46.32593" lon="-0.49228">
        <ele>12</ele>
        <time>2021-04-27T14:29:16Z</time>
      </trkpt>
      <trkpt lat="46.32595" lon="-0.49222">
        <ele>12</ele>
        <time>2021-04-27T14:29:17Z</time>
      </trkpt>
      <trkpt lat="46.32595" lon="-0.49222">
        <ele>12</ele>
        <time>2021-04-27T14:29:18Z</time>
      </trkpt>
      <trkpt lat="46.326" lon="-0.49212">
        <ele>12</ele>
        <time>2021-04-27T14:29:19Z</time>
      </trkpt>
      <trkpt lat="46.32603" lon="-0.49209">
        <ele>12</ele>
        <time>2021-04-27T14:29:20Z</time>
      </trkpt>
      <trkpt lat="46.32607" lon="-0.49208">
        <ele>12</ele>
        <time>2021-04-27T14:29:21Z</time>
      </trkpt>
      <trkpt lat="46.32611" lon="-0.49206">
        <ele>12</ele>
        <time>2021-04-27T14:29:22Z</time>
      </trkpt>
      <trkpt lat="46.32611" lon="-0.49206">
        <ele>12.2</ele>
        <time>2021-04-27T14:29:23Z</time>
      </trkpt>
      <trkpt lat="46.32617" lon="-0.49206">
        <ele>12.4</ele>
        <time>2021-04-27T14:29:24Z</time>
      </trkpt>
      <trkpt lat="46.32622" lon="-0.49206">
        <ele>12.8</ele>
        <time>2021-04-27T14:29:25Z</time>
      </trkpt>
      <trkpt lat="46.32631" lon="-0.49205">
        <ele>13</ele>
        <time>2021-04-27T14:29:27Z</time>
      </trkpt>
      <trkpt lat="46.3264" lon="-0.49204">
        <ele>13</ele>
        <time>2021-04-27T14:29:29Z</time>
      </trkpt>
      <trkpt lat="46.32653" lon="-0.49196">
        <ele>13.4</ele>
        <time>2021-04-27T14:29:33Z</time>
      </trkpt>
      <trkpt lat="46.32655" lon="-0.49194">
        <ele>13.4</ele>
        <time>2021-04-27T14:29:34Z</time>
      </trkpt>
      <trkpt lat="46.32655" lon="-0.49194">
        <ele>13.4</ele>
        <time>2021-04-27T14:29:35Z</time>
      </trkpt>
      <trkpt lat="46.32655" lon="-0.49194">
        <ele>13.6</ele>
        <time>2021-04-27T14:29:36Z</time>
      </trkpt>
      <trkpt lat="46.32657" lon="-0.49188">
        <ele>13.8</ele>
        <time>2021-04-27T14:29:57Z</time>
      </trkpt>
      <trkpt lat="46.32656" lon="-0.4918">
        <ele>13.8</ele>
        <time>2021-04-27T14:29:59Z</time>
      </trkpt>
      <trkpt lat="46.32654" lon="-0.49174">
        <ele>13.8</ele>
        <time>2021-04-27T14:30:00Z</time>
      </trkpt>
      <trkpt lat="46.32653" lon="-0.49166">
        <ele>13.8</ele>
        <time>2021-04-27T14:30:01Z</time>
      </trkpt>
      <trkpt lat="46.32652" lon="-0.49157">
        <ele>13.8</ele>
        <time>2021-04-27T14:30:02Z</time>
      </trkpt>
      <trkpt lat="46.32653" lon="-0.49148">
        <ele>13.8</ele>
        <time>2021-04-27T14:30:03Z</time>
      </trkpt>
      <trkpt lat="46.32655" lon="-0.49138">
        <ele>13.8</ele>
        <time>2021-04-27T14:30:04Z</time>
      </trkpt>
      <trkpt lat="46.32657" lon="-0.49128">
        <ele>13.8</ele>
        <time>2021-04-27T14:30:05Z</time>
      </trkpt>
      <trkpt lat="46.32658" lon="-0.49119">
        <ele>13.6</ele>
        <time>2021-04-27T14:30:06Z</time>
      </trkpt>
      <trkpt lat="46.32657" lon="-0.4911">
        <ele>13.4</ele>
        <time>2021-04-27T14:30:07Z</time>
      </trkpt>
      <trkpt lat="46.32657" lon="-0.49102">
        <ele>13</ele>
        <time>2021-04-27T14:30:08Z</time>
      </trkpt>
      <trkpt lat="46.32659" lon="-0.49092">
        <ele>12.8</ele>
        <time>2021-04-27T14:30:09Z</time>
      </trkpt>
      <trkpt lat="46.32662" lon="-0.4907">
        <ele>12.6</ele>
        <time>2021-04-27T14:30:12Z</time>
      </trkpt>
      <trkpt lat="46.32663" lon="-0.49065">
        <ele>12.6</ele>
        <time>2021-04-27T14:30:13Z</time>
      </trkpt>
      <trkpt lat="46.32665" lon="-0.4906">
        <ele>12.6</ele>
        <time>2021-04-27T14:30:14Z</time>
      </trkpt>
      <trkpt lat="46.32668" lon="-0.49057">
        <ele>12.6</ele>
        <time>2021-04-27T14:30:15Z</time>
      </trkpt>
      <trkpt lat="46.32671" lon="-0.49054">
        <ele>12.6</ele>
        <time>2021-04-27T14:30:16Z</time>
      </trkpt>
      <trkpt lat="46.32674" lon="-0.49052">
        <ele>12.6</ele>
        <time>2021-04-27T14:30:17Z</time>
      </trkpt>
      <trkpt lat="46.32677" lon="-0.49049">
        <ele>12.6</ele>
        <time>2021-04-27T14:30:18Z</time>
      </trkpt>
      <trkpt lat="46.32679" lon="-0.49047">
        <ele>12.6</ele>
        <time>2021-04-27T14:30:19Z</time>
      </trkpt>
      <trkpt lat="46.32681" lon="-0.49044">
        <ele>12.6</ele>
        <time>2021-04-27T14:30:20Z</time>
      </trkpt>
      <trkpt lat="46.32683" lon="-0.49042">
        <ele>12.8</ele>
        <time>2021-04-27T14:30:21Z</time>
      </trkpt>
      <trkpt lat="46.32684" lon="-0.49042">
        <ele>12.8</ele>
        <time>2021-04-27T14:30:22Z</time>
      </trkpt>
      <trkpt lat="46.32687" lon="-0.49043">
        <ele>13</ele>
        <time>2021-04-27T14:30:23Z</time>
      </trkpt>
      <trkpt lat="46.3269" lon="-0.49045">
        <ele>13</ele>
        <time>2021-04-27T14:30:24Z</time>
      </trkpt>
      <trkpt lat="46.32696" lon="-0.49052">
        <ele>13.4</ele>
        <time>2021-04-27T14:30:26Z</time>
      </trkpt>
      <trkpt lat="46.327" lon="-0.49054">
        <ele>13.4</ele>
        <time>2021-04-27T14:30:27Z</time>
      </trkpt>
      <trkpt lat="46.32704" lon="-0.49056">
        <ele>13.6</ele>
        <time>2021-04-27T14:30:28Z</time>
      </trkpt>
      <trkpt lat="46.32708" lon="-0.49055">
        <ele>13.6</ele>
        <time>2021-04-27T14:30:29Z</time>
      </trkpt>
      <trkpt lat="46.32711" lon="-0.49053">
        <ele>13.6</ele>
        <time>2021-04-27T14:30:30Z</time>
      </trkpt>
      <trkpt lat="46.32711" lon="-0.49053">
        <ele>13.6</ele>
        <time>2021-04-27T14:30:31Z</time>
      </trkpt>
      <trkpt lat="46.32723" lon="-0.49035">
        <ele>13.6</ele>
        <time>2021-04-27T14:30:34Z</time>
      </trkpt>
      <trkpt lat="46.32726" lon="-0.49031">
        <ele>13.6</ele>
        <time>2021-04-27T14:30:35Z</time>
      </trkpt>
      <trkpt lat="46.32726" lon="-0.49031">
        <ele>13.6</ele>
        <time>2021-04-27T14:30:36Z</time>
      </trkpt>
      <trkpt lat="46.32736" lon="-0.49026">
        <ele>13.6</ele>
        <time>2021-04-27T14:30:37Z</time>
      </trkpt>
      <trkpt lat="46.32742" lon="-0.49024">
        <ele>13.4</ele>
        <time>2021-04-27T14:30:38Z</time>
      </trkpt>
      <trkpt lat="46.32748" lon="-0.49021">
        <ele>13.4</ele>
        <time>2021-04-27T14:30:39Z</time>
      </trkpt>
      <trkpt lat="46.32755" lon="-0.49019">
        <ele>13.2</ele>
        <time>2021-04-27T14:30:40Z</time>
      </trkpt>
      <trkpt lat="46.32774" lon="-0.49012">
        <ele>13</ele>
        <time>2021-04-27T14:30:43Z</time>
      </trkpt>
      <trkpt lat="46.32787" lon="-0.49008">
        <ele>12.8</ele>
        <time>2021-04-27T14:30:46Z</time>
      </trkpt>
      <trkpt lat="46.32844" lon="-0.48984">
        <ele>12.2</ele>
        <time>2021-04-27T14:30:54Z</time>
      </trkpt>
      <trkpt lat="46.3285" lon="-0.48981">
        <ele>12.2</ele>
        <time>2021-04-27T14:30:55Z</time>
      </trkpt>
      <trkpt lat="46.32908" lon="-0.48958">
        <ele>12.2</ele>
        <time>2021-04-27T14:31:04Z</time>
      </trkpt>
      <trkpt lat="46.32908" lon="-0.48958">
        <ele>12.2</ele>
        <time>2021-04-27T14:31:05Z</time>
      </trkpt>
      <trkpt lat="46.32959" lon="-0.48938">
        <ele>12.4</ele>
        <time>2021-04-27T14:31:12Z</time>
      </trkpt>
      <trkpt lat="46.32965" lon="-0.48935">
        <ele>12.4</ele>
        <time>2021-04-27T14:31:13Z</time>
      </trkpt>
      <trkpt lat="46.33015" lon="-0.48915">
        <ele>12.6</ele>
        <time>2021-04-27T14:31:21Z</time>
      </trkpt>
      <trkpt lat="46.33034" lon="-0.48908">
        <ele>12.6</ele>
        <time>2021-04-27T14:31:24Z</time>
      </trkpt>
      <trkpt lat="46.33072" lon="-0.48892">
        <ele>12.6</ele>
        <time>2021-04-27T14:31:30Z</time>
      </trkpt>
      <trkpt lat="46.33123" lon="-0.48873">
        <ele>12.6</ele>
        <time>2021-04-27T14:31:39Z</time>
      </trkpt>
      <trkpt lat="46.33148" lon="-0.48864">
        <ele>12.6</ele>
        <time>2021-04-27T14:31:42Z</time>
      </trkpt>
      <trkpt lat="46.3318" lon="-0.48852">
        <ele>12.6</ele>
        <time>2021-04-27T14:31:47Z</time>
      </trkpt>
      <trkpt lat="46.33193" lon="-0.48847">
        <ele>12.6</ele>
        <time>2021-04-27T14:31:49Z</time>
      </trkpt>
      <trkpt lat="46.3325" lon="-0.48823">
        <ele>12.4</ele>
        <time>2021-04-27T14:31:58Z</time>
      </trkpt>
      <trkpt lat="46.33256" lon="-0.4882">
        <ele>12.4</ele>
        <time>2021-04-27T14:31:59Z</time>
      </trkpt>
      <trkpt lat="46.33273" lon="-0.48815">
        <ele>12.4</ele>
        <time>2021-04-27T14:32:02Z</time>
      </trkpt>
      <trkpt lat="46.33276" lon="-0.48813">
        <ele>12.4</ele>
        <time>2021-04-27T14:32:03Z</time>
      </trkpt>
      <trkpt lat="46.33279" lon="-0.48812">
        <ele>12.4</ele>
        <time>2021-04-27T14:32:04Z</time>
      </trkpt>
      <trkpt lat="46.33281" lon="-0.4881">
        <ele>12.4</ele>
        <time>2021-04-27T14:32:05Z</time>
      </trkpt>
      <trkpt lat="46.33283" lon="-0.48807">
        <ele>12.4</ele>
        <time>2021-04-27T14:32:06Z</time>
      </trkpt>
      <trkpt lat="46.33285" lon="-0.48801">
        <ele>12.4</ele>
        <time>2021-04-27T14:32:07Z</time>
      </trkpt>
      <trkpt lat="46.33286" lon="-0.48795">
        <ele>12.4</ele>
        <time>2021-04-27T14:32:08Z</time>
      </trkpt>
      <trkpt lat="46.33287" lon="-0.48789">
        <ele>12.4</ele>
        <time>2021-04-27T14:32:09Z</time>
      </trkpt>
      <trkpt lat="46.33291" lon="-0.48784">
        <ele>12.4</ele>
        <time>2021-04-27T14:32:10Z</time>
      </trkpt>
      <trkpt lat="46.33295" lon="-0.4878">
        <ele>13</ele>
        <time>2021-04-27T14:32:11Z</time>
      </trkpt>
      <trkpt lat="46.333" lon="-0.48777">
        <ele>13.2</ele>
        <time>2021-04-27T14:32:12Z</time>
      </trkpt>
      <trkpt lat="46.33305" lon="-0.48775">
        <ele>13.4</ele>
        <time>2021-04-27T14:32:13Z</time>
      </trkpt>
      <trkpt lat="46.3331" lon="-0.48773">
        <ele>13.4</ele>
        <time>2021-04-27T14:32:14Z</time>
      </trkpt>
      <trkpt lat="46.33315" lon="-0.48771">
        <ele>13.4</ele>
        <time>2021-04-27T14:32:15Z</time>
      </trkpt>
      <trkpt lat="46.3332" lon="-0.48769">
        <ele>13.4</ele>
        <time>2021-04-27T14:32:16Z</time>
      </trkpt>
      <trkpt lat="46.33327" lon="-0.48767">
        <ele>13.4</ele>
        <time>2021-04-27T14:32:17Z</time>
      </trkpt>
      <trkpt lat="46.33358" lon="-0.48756">
        <ele>13.4</ele>
        <time>2021-04-27T14:32:22Z</time>
      </trkpt>
      <trkpt lat="46.33364" lon="-0.48754">
        <ele>13.2</ele>
        <time>2021-04-27T14:32:23Z</time>
      </trkpt>
      <trkpt lat="46.33375" lon="-0.48749">
        <ele>12.6</ele>
        <time>2021-04-27T14:32:25Z</time>
      </trkpt>
      <trkpt lat="46.3338" lon="-0.48747">
        <ele>12.4</ele>
        <time>2021-04-27T14:32:26Z</time>
      </trkpt>
      <trkpt lat="46.33384" lon="-0.48745">
        <ele>12.2</ele>
        <time>2021-04-27T14:32:27Z</time>
      </trkpt>
      <trkpt lat="46.3339" lon="-0.48742">
        <ele>12.2</ele>
        <time>2021-04-27T14:32:28Z</time>
      </trkpt>
      <trkpt lat="46.33395" lon="-0.48739">
        <ele>12</ele>
        <time>2021-04-27T14:32:29Z</time>
      </trkpt>
      <trkpt lat="46.33408" lon="-0.48734">
        <ele>12</ele>
        <time>2021-04-27T14:32:31Z</time>
      </trkpt>
      <trkpt lat="46.33441" lon="-0.48721">
        <ele>11.8</ele>
        <time>2021-04-27T14:32:36Z</time>
      </trkpt>
      <trkpt lat="46.33453" lon="-0.48716">
        <ele>11.8</ele>
        <time>2021-04-27T14:32:38Z</time>
      </trkpt>
      <trkpt lat="46.33512" lon="-0.48694">
        <ele>11.8</ele>
        <time>2021-04-27T14:32:47Z</time>
      </trkpt>
      <trkpt lat="46.33518" lon="-0.48691">
        <ele>11.6</ele>
        <time>2021-04-27T14:32:48Z</time>
      </trkpt>
      <trkpt lat="46.33553" lon="-0.48677">
        <ele>11.6</ele>
        <time>2021-04-27T14:32:54Z</time>
      </trkpt>
      <trkpt lat="46.33557" lon="-0.48674">
        <ele>11.6</ele>
        <time>2021-04-27T14:32:55Z</time>
      </trkpt>
      <trkpt lat="46.33561" lon="-0.48669">
        <ele>11.6</ele>
        <time>2021-04-27T14:32:56Z</time>
      </trkpt>
      <trkpt lat="46.33565" lon="-0.48664">
        <ele>11.6</ele>
        <time>2021-04-27T14:32:57Z</time>
      </trkpt>
      <trkpt lat="46.33569" lon="-0.48658">
        <ele>11.8</ele>
        <time>2021-04-27T14:32:58Z</time>
      </trkpt>
      <trkpt lat="46.33574" lon="-0.48651">
        <ele>11.8</ele>
        <time>2021-04-27T14:32:59Z</time>
      </trkpt>
      <trkpt lat="46.33582" lon="-0.48637">
        <ele>11.8</ele>
        <time>2021-04-27T14:33:01Z</time>
      </trkpt>
      <trkpt lat="46.33584" lon="-0.48629">
        <ele>11.8</ele>
        <time>2021-04-27T14:33:02Z</time>
      </trkpt>
      <trkpt lat="46.33585" lon="-0.48619">
        <ele>12</ele>
        <time>2021-04-27T14:33:03Z</time>
      </trkpt>
      <trkpt lat="46.33586" lon="-0.4861">
        <ele>12</ele>
        <time>2021-04-27T14:33:04Z</time>
      </trkpt>
      <trkpt lat="46.33587" lon="-0.48601">
        <ele>12</ele>
        <time>2021-04-27T14:33:05Z</time>
      </trkpt>
      <trkpt lat="46.33588" lon="-0.48591">
        <ele>12</ele>
        <time>2021-04-27T14:33:06Z</time>
      </trkpt>
      <trkpt lat="46.33589" lon="-0.48581">
        <ele>12</ele>
        <time>2021-04-27T14:33:07Z</time>
      </trkpt>
      <trkpt lat="46.33596" lon="-0.48505">
        <ele>12</ele>
        <time>2021-04-27T14:33:15Z</time>
      </trkpt>
      <trkpt lat="46.33598" lon="-0.48486">
        <ele>12</ele>
        <time>2021-04-27T14:33:18Z</time>
      </trkpt>
      <trkpt lat="46.33605" lon="-0.484">
        <ele>12</ele>
        <time>2021-04-27T14:33:26Z</time>
      </trkpt>
      <trkpt lat="46.33606" lon="-0.48391">
        <ele>12</ele>
        <time>2021-04-27T14:33:27Z</time>
      </trkpt>
      <trkpt lat="46.33611" lon="-0.48315">
        <ele>12</ele>
        <time>2021-04-27T14:33:35Z</time>
      </trkpt>
      <trkpt lat="46.33612" lon="-0.48249">
        <ele>12.2</ele>
        <time>2021-04-27T14:33:43Z</time>
      </trkpt>
      <trkpt lat="46.33612" lon="-0.48223">
        <ele>12.4</ele>
        <time>2021-04-27T14:33:45Z</time>
      </trkpt>
      <trkpt lat="46.33612" lon="-0.48215">
        <ele>12.4</ele>
        <time>2021-04-27T14:33:46Z</time>
      </trkpt>
      <trkpt lat="46.33614" lon="-0.48208">
        <ele>12.4</ele>
        <time>2021-04-27T14:33:47Z</time>
      </trkpt>
      <trkpt lat="46.33616" lon="-0.48202">
        <ele>12.4</ele>
        <time>2021-04-27T14:33:48Z</time>
      </trkpt>
      <trkpt lat="46.33619" lon="-0.48197">
        <ele>12.4</ele>
        <time>2021-04-27T14:33:49Z</time>
      </trkpt>
      <trkpt lat="46.3362" lon="-0.48191">
        <ele>12.4</ele>
        <time>2021-04-27T14:33:50Z</time>
      </trkpt>
      <trkpt lat="46.3362" lon="-0.48185">
        <ele>12.6</ele>
        <time>2021-04-27T14:33:51Z</time>
      </trkpt>
      <trkpt lat="46.33619" lon="-0.48177">
        <ele>12.6</ele>
        <time>2021-04-27T14:33:52Z</time>
      </trkpt>
      <trkpt lat="46.33618" lon="-0.48169">
        <ele>12.6</ele>
        <time>2021-04-27T14:33:53Z</time>
      </trkpt>
      <trkpt lat="46.33617" lon="-0.48161">
        <ele>12.8</ele>
        <time>2021-04-27T14:33:54Z</time>
      </trkpt>
      <trkpt lat="46.33615" lon="-0.48152">
        <ele>12.8</ele>
        <time>2021-04-27T14:33:55Z</time>
      </trkpt>
      <trkpt lat="46.33613" lon="-0.48142">
        <ele>12.8</ele>
        <time>2021-04-27T14:33:56Z</time>
      </trkpt>
      <trkpt lat="46.33606" lon="-0.48116">
        <ele>12.8</ele>
        <time>2021-04-27T14:33:59Z</time>
      </trkpt>
      <trkpt lat="46.33604" lon="-0.48108">
        <ele>12.8</ele>
        <time>2021-04-27T14:34:00Z</time>
      </trkpt>
      <trkpt lat="46.33602" lon="-0.481">
        <ele>12.8</ele>
        <time>2021-04-27T14:34:01Z</time>
      </trkpt>
      <trkpt lat="46.33595" lon="-0.48077">
        <ele>13</ele>
        <time>2021-04-27T14:34:04Z</time>
      </trkpt>
      <trkpt lat="46.33593" lon="-0.4807">
        <ele>13</ele>
        <time>2021-04-27T14:34:05Z</time>
      </trkpt>
      <trkpt lat="46.33591" lon="-0.48063">
        <ele>13</ele>
        <time>2021-04-27T14:34:06Z</time>
      </trkpt>
      <trkpt lat="46.33588" lon="-0.48056">
        <ele>13</ele>
        <time>2021-04-27T14:34:07Z</time>
      </trkpt>
      <trkpt lat="46.33586" lon="-0.4805">
        <ele>13</ele>
        <time>2021-04-27T14:34:08Z</time>
      </trkpt>
      <trkpt lat="46.33584" lon="-0.48044">
        <ele>13</ele>
        <time>2021-04-27T14:34:09Z</time>
      </trkpt>
      <trkpt lat="46.33581" lon="-0.48038">
        <ele>13</ele>
        <time>2021-04-27T14:34:10Z</time>
      </trkpt>
      <trkpt lat="46.33572" lon="-0.48024">
        <ele>13</ele>
        <time>2021-04-27T14:34:12Z</time>
      </trkpt>
      <trkpt lat="46.33563" lon="-0.4801">
        <ele>12.8</ele>
        <time>2021-04-27T14:34:14Z</time>
      </trkpt>
      <trkpt lat="46.33553" lon="-0.48">
        <ele>12.8</ele>
        <time>2021-04-27T14:34:16Z</time>
      </trkpt>
      <trkpt lat="46.33548" lon="-0.47995">
        <ele>12.8</ele>
        <time>2021-04-27T14:34:17Z</time>
      </trkpt>
      <trkpt lat="46.33543" lon="-0.47992">
        <ele>12.8</ele>
        <time>2021-04-27T14:34:18Z</time>
      </trkpt>
      <trkpt lat="46.33538" lon="-0.47988">
        <ele>12.8</ele>
        <time>2021-04-27T14:34:19Z</time>
      </trkpt>
      <trkpt lat="46.33533" lon="-0.47985">
        <ele>13</ele>
        <time>2021-04-27T14:34:20Z</time>
      </trkpt>
      <trkpt lat="46.33521" lon="-0.4798">
        <ele>13</ele>
        <time>2021-04-27T14:34:22Z</time>
      </trkpt>
      <trkpt lat="46.33508" lon="-0.47975">
        <ele>12.8</ele>
        <time>2021-04-27T14:34:24Z</time>
      </trkpt>
      <trkpt lat="46.33495" lon="-0.4797">
        <ele>12.8</ele>
        <time>2021-04-27T14:34:27Z</time>
      </trkpt>
      <trkpt lat="46.33483" lon="-0.47964">
        <ele>12.8</ele>
        <time>2021-04-27T14:34:28Z</time>
      </trkpt>
      <trkpt lat="46.33483" lon="-0.47964">
        <ele>12.8</ele>
        <time>2021-04-27T14:34:29Z</time>
      </trkpt>
      <trkpt lat="46.33472" lon="-0.47961">
        <ele>12.8</ele>
        <time>2021-04-27T14:34:30Z</time>
      </trkpt>
      <trkpt lat="46.33466" lon="-0.4796">
        <ele>12.8</ele>
        <time>2021-04-27T14:34:31Z</time>
      </trkpt>
      <trkpt lat="46.3346" lon="-0.47959">
        <ele>12.8</ele>
        <time>2021-04-27T14:34:32Z</time>
      </trkpt>
      <trkpt lat="46.33434" lon="-0.47956">
        <ele>13</ele>
        <time>2021-04-27T14:34:36Z</time>
      </trkpt>
      <trkpt lat="46.33427" lon="-0.47957">
        <ele>13.2</ele>
        <time>2021-04-27T14:34:37Z</time>
      </trkpt>
      <trkpt lat="46.3342" lon="-0.47957">
        <ele>13.2</ele>
        <time>2021-04-27T14:34:38Z</time>
      </trkpt>
      <trkpt lat="46.33395" lon="-0.47956">
        <ele>13.2</ele>
        <time>2021-04-27T14:34:42Z</time>
      </trkpt>
      <trkpt lat="46.33383" lon="-0.47955">
        <ele>13.2</ele>
        <time>2021-04-27T14:34:44Z</time>
      </trkpt>
      <trkpt lat="46.33364" lon="-0.47951">
        <ele>13.2</ele>
        <time>2021-04-27T14:34:47Z</time>
      </trkpt>
      <trkpt lat="46.33364" lon="-0.47951">
        <ele>13.2</ele>
        <time>2021-04-27T14:34:48Z</time>
      </trkpt>
      <trkpt lat="46.33351" lon="-0.4795">
        <ele>13.2</ele>
        <time>2021-04-27T14:34:49Z</time>
      </trkpt>
      <trkpt lat="46.33345" lon="-0.47949">
        <ele>13</ele>
        <time>2021-04-27T14:34:50Z</time>
      </trkpt>
      <trkpt lat="46.33339" lon="-0.47949">
        <ele>13</ele>
        <time>2021-04-27T14:34:51Z</time>
      </trkpt>
      <trkpt lat="46.33328" lon="-0.47947">
        <ele>13</ele>
        <time>2021-04-27T14:34:53Z</time>
      </trkpt>
      <trkpt lat="46.33322" lon="-0.47945">
        <ele>13</ele>
        <time>2021-04-27T14:34:54Z</time>
      </trkpt>
      <trkpt lat="46.33304" lon="-0.47943">
        <ele>13</ele>
        <time>2021-04-27T14:34:58Z</time>
      </trkpt>
      <trkpt lat="46.33294" lon="-0.47942">
        <ele>13</ele>
        <time>2021-04-27T14:34:59Z</time>
      </trkpt>
      <trkpt lat="46.33288" lon="-0.47941">
        <ele>12.8</ele>
        <time>2021-04-27T14:35:00Z</time>
      </trkpt>
      <trkpt lat="46.33282" lon="-0.4794">
        <ele>12.8</ele>
        <time>2021-04-27T14:35:01Z</time>
      </trkpt>
      <trkpt lat="46.33277" lon="-0.4794">
        <ele>13</ele>
        <time>2021-04-27T14:35:02Z</time>
      </trkpt>
      <trkpt lat="46.33273" lon="-0.47939">
        <ele>13</ele>
        <time>2021-04-27T14:35:03Z</time>
      </trkpt>
      <trkpt lat="46.33267" lon="-0.47938">
        <ele>13</ele>
        <time>2021-04-27T14:35:04Z</time>
      </trkpt>
      <trkpt lat="46.33262" lon="-0.47937">
        <ele>13</ele>
        <time>2021-04-27T14:35:05Z</time>
      </trkpt>
      <trkpt lat="46.33221" lon="-0.47932">
        <ele>13.2</ele>
        <time>2021-04-27T14:35:11Z</time>
      </trkpt>
      <trkpt lat="46.33207" lon="-0.47931">
        <ele>13</ele>
        <time>2021-04-27T14:35:13Z</time>
      </trkpt>
      <trkpt lat="46.33187" lon="-0.4793">
        <ele>13.2</ele>
        <time>2021-04-27T14:35:16Z</time>
      </trkpt>
      <trkpt lat="46.33162" lon="-0.4793">
        <ele>13.2</ele>
        <time>2021-04-27T14:35:20Z</time>
      </trkpt>
      <trkpt lat="46.33156" lon="-0.47929">
        <ele>13.2</ele>
        <time>2021-04-27T14:35:21Z</time>
      </trkpt>
      <trkpt lat="46.33151" lon="-0.47929">
        <ele>13.2</ele>
        <time>2021-04-27T14:35:22Z</time>
      </trkpt>
      <trkpt lat="46.33145" lon="-0.47929">
        <ele>13.2</ele>
        <time>2021-04-27T14:35:23Z</time>
      </trkpt>
      <trkpt lat="46.33134" lon="-0.47928">
        <ele>13.2</ele>
        <time>2021-04-27T14:35:25Z</time>
      </trkpt>
      <trkpt lat="46.3313" lon="-0.47927">
        <ele>13.2</ele>
        <time>2021-04-27T14:35:26Z</time>
      </trkpt>
      <trkpt lat="46.33125" lon="-0.47927">
        <ele>13.2</ele>
        <time>2021-04-27T14:35:27Z</time>
      </trkpt>
      <trkpt lat="46.33121" lon="-0.47926">
        <ele>13.4</ele>
        <time>2021-04-27T14:35:28Z</time>
      </trkpt>
      <trkpt lat="46.33117" lon="-0.47925">
        <ele>13.4</ele>
        <time>2021-04-27T14:35:29Z</time>
      </trkpt>
      <trkpt lat="46.33115" lon="-0.47925">
        <ele>13.6</ele>
        <time>2021-04-27T14:35:30Z</time>
      </trkpt>
      <trkpt lat="46.33113" lon="-0.47925">
        <ele>13.6</ele>
        <time>2021-04-27T14:35:31Z</time>
      </trkpt>
      <trkpt lat="46.33111" lon="-0.47925">
        <ele>13.8</ele>
        <time>2021-04-27T14:35:32Z</time>
      </trkpt>
      <trkpt lat="46.33109" lon="-0.47926">
        <ele>13.8</ele>
        <time>2021-04-27T14:35:33Z</time>
      </trkpt>
      <trkpt lat="46.33098" lon="-0.47927">
        <ele>14</ele>
        <time>2021-04-27T14:35:37Z</time>
      </trkpt>
      <trkpt lat="46.33096" lon="-0.47928">
        <ele>14.2</ele>
        <time>2021-04-27T14:35:38Z</time>
      </trkpt>
      <trkpt lat="46.33093" lon="-0.47929">
        <ele>14.2</ele>
        <time>2021-04-27T14:35:39Z</time>
      </trkpt>
      <trkpt lat="46.33079" lon="-0.4793">
        <ele>14.2</ele>
        <time>2021-04-27T14:35:42Z</time>
      </trkpt>
      <trkpt lat="46.33055" lon="-0.47933">
        <ele>14.2</ele>
        <time>2021-04-27T14:35:46Z</time>
      </trkpt>
      <trkpt lat="46.33055" lon="-0.47933">
        <ele>14.2</ele>
        <time>2021-04-27T14:35:47Z</time>
      </trkpt>
      <trkpt lat="46.33038" lon="-0.47935">
        <ele>14</ele>
        <time>2021-04-27T14:35:49Z</time>
      </trkpt>
      <trkpt lat="46.33011" lon="-0.47939">
        <ele>14</ele>
        <time>2021-04-27T14:35:54Z</time>
      </trkpt>
      <trkpt lat="46.33007" lon="-0.4794">
        <ele>14</ele>
        <time>2021-04-27T14:35:55Z</time>
      </trkpt>
      <trkpt lat="46.33007" lon="-0.4794">
        <ele>14</ele>
        <time>2021-04-27T14:35:56Z</time>
      </trkpt>
      <trkpt lat="46.32999" lon="-0.47942">
        <ele>14</ele>
        <time>2021-04-27T14:35:57Z</time>
      </trkpt>
      <trkpt lat="46.32995" lon="-0.47943">
        <ele>14</ele>
        <time>2021-04-27T14:35:58Z</time>
      </trkpt>
      <trkpt lat="46.32992" lon="-0.47943">
        <ele>14</ele>
        <time>2021-04-27T14:35:59Z</time>
      </trkpt>
      <trkpt lat="46.32989" lon="-0.47941">
        <ele>14</ele>
        <time>2021-04-27T14:36:00Z</time>
      </trkpt>
      <trkpt lat="46.32986" lon="-0.47938">
        <ele>14</ele>
        <time>2021-04-27T14:36:01Z</time>
      </trkpt>
      <trkpt lat="46.32984" lon="-0.47933">
        <ele>14</ele>
        <time>2021-04-27T14:36:02Z</time>
      </trkpt>
      <trkpt lat="46.32983" lon="-0.47927">
        <ele>14.2</ele>
        <time>2021-04-27T14:36:03Z</time>
      </trkpt>
      <trkpt lat="46.32985" lon="-0.47912">
        <ele>14.4</ele>
        <time>2021-04-27T14:36:05Z</time>
      </trkpt>
      <trkpt lat="46.32987" lon="-0.47905">
        <ele>14.4</ele>
        <time>2021-04-27T14:36:06Z</time>
      </trkpt>
      <trkpt lat="46.32991" lon="-0.47898">
        <ele>14.4</ele>
        <time>2021-04-27T14:36:07Z</time>
      </trkpt>
      <trkpt lat="46.32994" lon="-0.47892">
        <ele>14.4</ele>
        <time>2021-04-27T14:36:08Z</time>
      </trkpt>
      <trkpt lat="46.32995" lon="-0.47886">
        <ele>14.4</ele>
        <time>2021-04-27T14:36:09Z</time>
      </trkpt>
      <trkpt lat="46.32996" lon="-0.47881">
        <ele>14.4</ele>
        <time>2021-04-27T14:36:10Z</time>
      </trkpt>
      <trkpt lat="46.32996" lon="-0.47877">
        <ele>14.4</ele>
        <time>2021-04-27T14:36:11Z</time>
      </trkpt>
      <trkpt lat="46.32995" lon="-0.47875">
        <ele>14.4</ele>
        <time>2021-04-27T14:36:12Z</time>
      </trkpt>
      <trkpt lat="46.32993" lon="-0.47872">
        <ele>14.8</ele>
        <time>2021-04-27T14:36:13Z</time>
      </trkpt>
      <trkpt lat="46.32991" lon="-0.47869">
        <ele>14.8</ele>
        <time>2021-04-27T14:36:14Z</time>
      </trkpt>
      <trkpt lat="46.3299" lon="-0.47865">
        <ele>15</ele>
        <time>2021-04-27T14:36:15Z</time>
      </trkpt>
      <trkpt lat="46.32989" lon="-0.47861">
        <ele>15</ele>
        <time>2021-04-27T14:36:16Z</time>
      </trkpt>
      <trkpt lat="46.32989" lon="-0.47851">
        <ele>15</ele>
        <time>2021-04-27T14:36:18Z</time>
      </trkpt>
      <trkpt lat="46.32989" lon="-0.47845">
        <ele>15</ele>
        <time>2021-04-27T14:36:19Z</time>
      </trkpt>
      <trkpt lat="46.32989" lon="-0.47839">
        <ele>15.2</ele>
        <time>2021-04-27T14:36:20Z</time>
      </trkpt>
      <trkpt lat="46.32988" lon="-0.4783">
        <ele>15.6</ele>
        <time>2021-04-27T14:36:22Z</time>
      </trkpt>
      <trkpt lat="46.32986" lon="-0.47827">
        <ele>16</ele>
        <time>2021-04-27T14:36:23Z</time>
      </trkpt>
      <trkpt lat="46.32983" lon="-0.47823">
        <ele>16.2</ele>
        <time>2021-04-27T14:36:24Z</time>
      </trkpt>
      <trkpt lat="46.32979" lon="-0.47819">
        <ele>16.2</ele>
        <time>2021-04-27T14:36:25Z</time>
      </trkpt>
      <trkpt lat="46.32971" lon="-0.47811">
        <ele>16.4</ele>
        <time>2021-04-27T14:36:27Z</time>
      </trkpt>
      <trkpt lat="46.32967" lon="-0.47806">
        <ele>16.4</ele>
        <time>2021-04-27T14:36:28Z</time>
      </trkpt>
      <trkpt lat="46.32956" lon="-0.47796">
        <ele>16.4</ele>
        <time>2021-04-27T14:36:31Z</time>
      </trkpt>
      <trkpt lat="46.32952" lon="-0.47792">
        <ele>16.4</ele>
        <time>2021-04-27T14:36:32Z</time>
      </trkpt>
      <trkpt lat="46.32949" lon="-0.47789">
        <ele>16.4</ele>
        <time>2021-04-27T14:36:33Z</time>
      </trkpt>
      <trkpt lat="46.32945" lon="-0.47785">
        <ele>16.2</ele>
        <time>2021-04-27T14:36:34Z</time>
      </trkpt>
      <trkpt lat="46.32929" lon="-0.4777">
        <ele>15.6</ele>
        <time>2021-04-27T14:36:39Z</time>
      </trkpt>
      <trkpt lat="46.32926" lon="-0.47769">
        <ele>15.6</ele>
        <time>2021-04-27T14:36:40Z</time>
      </trkpt>
      <trkpt lat="46.32924" lon="-0.4777">
        <ele>15.4</ele>
        <time>2021-04-27T14:36:41Z</time>
      </trkpt>
      <trkpt lat="46.32922" lon="-0.47772">
        <ele>15.4</ele>
        <time>2021-04-27T14:36:42Z</time>
      </trkpt>
      <trkpt lat="46.3292" lon="-0.47775">
        <ele>15.4</ele>
        <time>2021-04-27T14:36:43Z</time>
      </trkpt>
      <trkpt lat="46.32917" lon="-0.47778">
        <ele>15.4</ele>
        <time>2021-04-27T14:36:45Z</time>
      </trkpt>
      <trkpt lat="46.32913" lon="-0.47783">
        <ele>15.4</ele>
        <time>2021-04-27T14:36:46Z</time>
      </trkpt>
      <trkpt lat="46.3291" lon="-0.47784">
        <ele>15.4</ele>
        <time>2021-04-27T14:36:47Z</time>
      </trkpt>
      <trkpt lat="46.32908" lon="-0.47784">
        <ele>15.4</ele>
        <time>2021-04-27T14:36:48Z</time>
      </trkpt>
      <trkpt lat="46.32906" lon="-0.47782">
        <ele>15.4</ele>
        <time>2021-04-27T14:36:49Z</time>
      </trkpt>
      <trkpt lat="46.32904" lon="-0.47779">
        <ele>15.4</ele>
        <time>2021-04-27T14:36:50Z</time>
      </trkpt>
      <trkpt lat="46.32903" lon="-0.47775">
        <ele>15.4</ele>
        <time>2021-04-27T14:36:51Z</time>
      </trkpt>
      <trkpt lat="46.32894" lon="-0.47752">
        <ele>15.4</ele>
        <time>2021-04-27T14:36:55Z</time>
      </trkpt>
      <trkpt lat="46.32879" lon="-0.47729">
        <ele>15.4</ele>
        <time>2021-04-27T14:36:59Z</time>
      </trkpt>
      <trkpt lat="46.32875" lon="-0.47724">
        <ele>15.4</ele>
        <time>2021-04-27T14:37:00Z</time>
      </trkpt>
      <trkpt lat="46.3287" lon="-0.47721">
        <ele>15.4</ele>
        <time>2021-04-27T14:37:01Z</time>
      </trkpt>
      <trkpt lat="46.3286" lon="-0.47715">
        <ele>15.4</ele>
        <time>2021-04-27T14:37:03Z</time>
      </trkpt>
      <trkpt lat="46.32853" lon="-0.47714">
        <ele>15.4</ele>
        <time>2021-04-27T14:37:04Z</time>
      </trkpt>
      <trkpt lat="46.3283" lon="-0.47704">
        <ele>15.4</ele>
        <time>2021-04-27T14:37:08Z</time>
      </trkpt>
      <trkpt lat="46.32819" lon="-0.47699">
        <ele>15.2</ele>
        <time>2021-04-27T14:37:10Z</time>
      </trkpt>
      <trkpt lat="46.32802" lon="-0.47688">
        <ele>15</ele>
        <time>2021-04-27T14:37:13Z</time>
      </trkpt>
      <trkpt lat="46.32791" lon="-0.47677">
        <ele>14.8</ele>
        <time>2021-04-27T14:37:15Z</time>
      </trkpt>
      <trkpt lat="46.32763" lon="-0.47638">
        <ele>14.6</ele>
        <time>2021-04-27T14:37:21Z</time>
      </trkpt>
      <trkpt lat="46.32754" lon="-0.47626">
        <ele>14.4</ele>
        <time>2021-04-27T14:37:23Z</time>
      </trkpt>
      <trkpt lat="46.32749" lon="-0.47621">
        <ele>14.4</ele>
        <time>2021-04-27T14:37:24Z</time>
      </trkpt>
      <trkpt lat="46.32745" lon="-0.47615">
        <ele>14.4</ele>
        <time>2021-04-27T14:37:25Z</time>
      </trkpt>
      <trkpt lat="46.32741" lon="-0.47611">
        <ele>14.4</ele>
        <time>2021-04-27T14:37:26Z</time>
      </trkpt>
      <trkpt lat="46.32736" lon="-0.47607">
        <ele>14.4</ele>
        <time>2021-04-27T14:37:27Z</time>
      </trkpt>
      <trkpt lat="46.3272" lon="-0.47595">
        <ele>14.4</ele>
        <time>2021-04-27T14:37:30Z</time>
      </trkpt>
      <trkpt lat="46.32714" lon="-0.47589">
        <ele>14.4</ele>
        <time>2021-04-27T14:37:31Z</time>
      </trkpt>
      <trkpt lat="46.3269" lon="-0.47574">
        <ele>14.6</ele>
        <time>2021-04-27T14:37:35Z</time>
      </trkpt>
      <trkpt lat="46.32684" lon="-0.47571">
        <ele>14.6</ele>
        <time>2021-04-27T14:37:36Z</time>
      </trkpt>
      <trkpt lat="46.32678" lon="-0.47567">
        <ele>14.4</ele>
        <time>2021-04-27T14:37:38Z</time>
      </trkpt>
      <trkpt lat="46.3266" lon="-0.47556">
        <ele>14</ele>
        <time>2021-04-27T14:37:40Z</time>
      </trkpt>
      <trkpt lat="46.32616" lon="-0.47535">
        <ele>13.6</ele>
        <time>2021-04-27T14:37:47Z</time>
      </trkpt>
      <trkpt lat="46.32584" lon="-0.47523">
        <ele>13.4</ele>
        <time>2021-04-27T14:37:52Z</time>
      </trkpt>
      <trkpt lat="46.32573" lon="-0.47513">
        <ele>13.4</ele>
        <time>2021-04-27T14:37:54Z</time>
      </trkpt>
      <trkpt lat="46.32564" lon="-0.47499">
        <ele>13.4</ele>
        <time>2021-04-27T14:37:56Z</time>
      </trkpt>
      <trkpt lat="46.32561" lon="-0.47491">
        <ele>13.4</ele>
        <time>2021-04-27T14:37:57Z</time>
      </trkpt>
      <trkpt lat="46.32557" lon="-0.47483">
        <ele>13.6</ele>
        <time>2021-04-27T14:37:58Z</time>
      </trkpt>
      <trkpt lat="46.32545" lon="-0.47428">
        <ele>13.6</ele>
        <time>2021-04-27T14:38:04Z</time>
      </trkpt>
      <trkpt lat="46.32531" lon="-0.47344">
        <ele>14</ele>
        <time>2021-04-27T14:38:13Z</time>
      </trkpt>
      <trkpt lat="46.32527" lon="-0.47316">
        <ele>14</ele>
        <time>2021-04-27T14:38:16Z</time>
      </trkpt>
      <trkpt lat="46.32526" lon="-0.47298">
        <ele>14.2</ele>
        <time>2021-04-27T14:38:18Z</time>
      </trkpt>
      <trkpt lat="46.32519" lon="-0.47234">
        <ele>14.8</ele>
        <time>2021-04-27T14:38:25Z</time>
      </trkpt>
      <trkpt lat="46.32518" lon="-0.47225">
        <ele>15</ele>
        <time>2021-04-27T14:38:26Z</time>
      </trkpt>
      <trkpt lat="46.32518" lon="-0.47215">
        <ele>15</ele>
        <time>2021-04-27T14:38:27Z</time>
      </trkpt>
      <trkpt lat="46.32514" lon="-0.47178">
        <ele>15.2</ele>
        <time>2021-04-27T14:38:32Z</time>
      </trkpt>
      <trkpt lat="46.32508" lon="-0.47102">
        <ele>15.6</ele>
        <time>2021-04-27T14:38:39Z</time>
      </trkpt>
      <trkpt lat="46.32505" lon="-0.47076">
        <ele>15.8</ele>
        <time>2021-04-27T14:38:42Z</time>
      </trkpt>
      <trkpt lat="46.32503" lon="-0.4707">
        <ele>15.8</ele>
        <time>2021-04-27T14:38:43Z</time>
      </trkpt>
      <trkpt lat="46.325" lon="-0.47065">
        <ele>15.8</ele>
        <time>2021-04-27T14:38:44Z</time>
      </trkpt>
      <trkpt lat="46.32496" lon="-0.47063">
        <ele>15.8</ele>
        <time>2021-04-27T14:38:45Z</time>
      </trkpt>
      <trkpt lat="46.32492" lon="-0.47061">
        <ele>16</ele>
        <time>2021-04-27T14:38:46Z</time>
      </trkpt>
      <trkpt lat="46.32487" lon="-0.47058">
        <ele>16</ele>
        <time>2021-04-27T14:38:47Z</time>
      </trkpt>
      <trkpt lat="46.32484" lon="-0.47052">
        <ele>16</ele>
        <time>2021-04-27T14:38:48Z</time>
      </trkpt>
      <trkpt lat="46.32483" lon="-0.47043">
        <ele>16</ele>
        <time>2021-04-27T14:38:49Z</time>
      </trkpt>
      <trkpt lat="46.32481" lon="-0.47015">
        <ele>16</ele>
        <time>2021-04-27T14:38:52Z</time>
      </trkpt>
      <trkpt lat="46.32478" lon="-0.46998">
        <ele>16</ele>
        <time>2021-04-27T14:38:54Z</time>
      </trkpt>
      <trkpt lat="46.32477" lon="-0.46991">
        <ele>16</ele>
        <time>2021-04-27T14:38:55Z</time>
      </trkpt>
      <trkpt lat="46.32477" lon="-0.46985">
        <ele>16</ele>
        <time>2021-04-27T14:38:56Z</time>
      </trkpt>
      <trkpt lat="46.32477" lon="-0.46979">
        <ele>16</ele>
        <time>2021-04-27T14:38:57Z</time>
      </trkpt>
      <trkpt lat="46.32479" lon="-0.46974">
        <ele>16</ele>
        <time>2021-04-27T14:38:58Z</time>
      </trkpt>
      <trkpt lat="46.32482" lon="-0.46971">
        <ele>16</ele>
        <time>2021-04-27T14:38:59Z</time>
      </trkpt>
      <trkpt lat="46.32487" lon="-0.46968">
        <ele>16</ele>
        <time>2021-04-27T14:39:00Z</time>
      </trkpt>
      <trkpt lat="46.32493" lon="-0.46963">
        <ele>16.2</ele>
        <time>2021-04-27T14:39:02Z</time>
      </trkpt>
      <trkpt lat="46.32493" lon="-0.46963">
        <ele>16.2</ele>
        <time>2021-04-27T14:39:03Z</time>
      </trkpt>
      <trkpt lat="46.32495" lon="-0.46959">
        <ele>16.4</ele>
        <time>2021-04-27T14:39:04Z</time>
      </trkpt>
      <trkpt lat="46.32495" lon="-0.46959">
        <ele>16.4</ele>
        <time>2021-04-27T14:39:05Z</time>
      </trkpt>
      <trkpt lat="46.32495" lon="-0.46959">
        <ele>16.6</ele>
        <time>2021-04-27T14:39:06Z</time>
      </trkpt>
    </trkseg>
  </trk>
</gpx>